[[{"header":{"parameterUnit":"m.s-1","parameterCategory":1,"la1":31.0,"la2":29.5877,"lo1":-88.7671,"lo2":-86.6584,"dy":0.0162,"dx":0.0185,"nx":115,"ny":88,"refTime":"2024-08-07T18:00:00:Z","depth":0,"parameterNumber":2,"parameterNumberName":"U-component_of_WINDS"},"data":[0.0,0.0,0.0,0.0,0.0,0.0,0.0,0.0,0.0,0.0,0.0,0.0,0.0,0.0,0.0,0.0,0.0,0.0,0.0,0.0,0.0,0.0,0.0,0.0,0.0,0.0,0.0,0.0,0.0,0.0,0.0,0.0,0.0,0.0,0.0,0.0,0.0,0.0,0.0,0.0,0.0,0.0,0.0,0.0,0.0,0.0,0.0,0.0,0.0,0.0,0.0,0.0,0.0,0.0,0.0,0.0,0.0,0.0,0.0,0.0,0.0,0.0,0.0,0.0,0.0,0.0,0.0,0.0,0.0,0.0,0.0,0.0,0.0,0.0,0.0,0.0,0.0,0.0,0.0,0.0,0.0,0.0,0.0,0.0,0.0,0.0,0.0,0.0,0.0,0.0,0.0,0.0,0.0,0.0,0.0,0.0,0.0,0.0,0.0,0.0,0.0,0.0,0.0,0.0,0.0,0.0,0.0,0.0,0.0,0.0,0.0,0.0,0.0,0.0,0.0,0.0,0.0,0.0,0.0,0.0,0.0,0.0,0.0,0.0,0.0,0.0,0.0,0.0,0.0,0.0,0.0,0.0,0.0,0.0,0.0,0.0,0.0,0.0,0.0,0.0,0.0,0.0,0.0,0.0,0.0,0.0,0.0,0.0,0.0,0.0,0.0,0.0,0.0,0.0,0.0,0.0,0.0,0.0,0.0,0.0,0.0,0.0,0.0,0.0,0.0,0.0,0.0,0.0,0.0,0.0,0.0,0.0,0.0,0.0,0.0,0.0,0.0,0.0,0.0,0.0,0.0,0.0,0.0,0.0,0.0,0.0,0.0,0.0,0.0,0.0,0.0,0.0,0.0,0.0,0.0,0.0,0.0,0.0,0.0,0.0,0.0,0.0,0.0,0.0,0.0,0.0,0.0,0.0,0.0,0.0,0.0,0.0,0.0,0.0,0.0,0.0,0.0,0.0,0.0,0.0,0.0,0.0,0.0,0.0,0.0,0.0,0.0,0.0,0.0,0.0,0.0,0.0,0.0,0.0,0.0,0.0,0.0,0.0,0.0,0.0,0.0,0.0,0.0,0.0,0.0,0.0,0.0,0.0,0.0,0.0,0.0,0.0,0.0,0.0,0.0,0.0,0.0,0.0,0.0,0.0,0.0,0.0,0.0,0.0,0.0,0.0,0.0,0.0,0.0,0.0,0.0,0.0,0.0,0.0,0.0,0.0,0.0,0.0,0.0,0.0,0.0,0.0,0.0,0.0,0.0,0.0,0.0,0.0,0.0,0.0,0.0,0.0,0.0,0.0,0.0,0.0,0.0,0.0,0.0,0.0,0.0,0.0,0.0,0.0,0.0,0.0,0.0,0.0,0.0,0.0,0.0,0.0,0.0,0.0,0.0,0.0,0.0,0.0,0.0,0.0,0.0,0.0,0.0,0.0,0.0,0.0,0.0,0.0,0.0,0.0,0.0,0.0,0.0,0.0,0.0,0.0,0.0,0.0,0.0,0.0,0.0,0.0,0.0,0.0,0.0,0.0,0.0,0.0,0.0,0.0,0.0,0.0,0.0,0.0,0.0,0.0,0.0,0.0,0.0,0.0,0.0,0.0,0.0,0.0,0.0,0.0,0.0,0.0,0.0,0.0,0.0,0.0,0.0,0.0,0.0,0.0,0.0,0.0,0.0,0.0,0.0,0.0,0.0,0.0,0.0,0.0,0.0,0.0,0.0,0.0,0.0,0.0,0.0,0.0,0.0,0.0,0.0,0.0,0.0,0.0,0.0,0.0,0.0,0.0,0.0,0.0,0.0,0.0,0.0,0.0,0.0,0.0,0.0,0.0,0.0,0.0,0.0,0.0,0.0,0.0,0.0,0.0,0.0,0.0,0.0,0.0,0.0,0.0,0.0,0.0,0.0,0.0,0.0,0.0,0.0,0.0,0.0,0.0,0.0,0.0,0.0,0.0,0.0,0.0,0.0,0.0,0.0,0.0,0.0,0.0,0.0,0.0,0.0,0.0,0.0,0.0,0.0,0.0,0.0,0.0,0.0,0.0,0.0,0.0,0.0,0.0,0.0,0.0,0.0,0.0,0.0,0.0,0.0,0.0,0.0,0.0,0.0,0.0,0.0,0.0,0.0,0.0,0.0,0.0,0.0,0.0,0.0,0.0,0.0,0.0,0.0,0.0,0.0,0.0,0.0,0.0,0.0,0.0,0.0,0.0,0.0,0.0,0.0,0.0,0.0,0.0,0.0,0.0,0.0,0.0,0.0,0.0,0.0,0.0,0.0,0.0,0.0,0.0,0.0,0.0,0.0,0.0,0.0,0.0,0.0,0.0,0.0,0.0,0.0,0.0,0.0,0.0,0.0,0.0,0.0,0.0,0.0,0.0,0.0,0.0,0.0,0.0,0.0,0.0,0.0,0.0,0.0,0.0,0.0,0.0,0.0,0.0,0.0,0.0,0.0,0.0,0.0,0.0,0.0,0.0,0.0,0.0,0.0,0.0,0.0,0.0,0.0,0.0,0.0,0.0,0.0,0.0,0.0,0.0,0.0,0.0,0.0,0.0,0.0,0.0,0.0,0.0,0.0,0.0,0.0,0.0,0.0,0.0,0.0,0.0,0.0,0.0,0.0,0.0,0.0,0.0,0.0,0.0,0.0,0.0,0.0,0.0,0.0,0.0,0.0,0.0,0.0,0.0,0.0,0.0,0.0,0.0,0.0,0.0,0.0,0.0,0.0,0.0,0.0,0.0,0.0,0.0,0.0,0.0,0.0,0.0,0.0,0.0,0.0,0.0,0.0,0.0,0.0,0.0,0.0,0.0,0.0,0.0,0.0,0.0,0.0,0.0,0.0,0.0,0.0,0.0,0.0,0.0,0.0,0.0,0.0,0.0,0.0,0.0,0.0,0.0,0.0,0.0,0.0,0.0,0.0,0.0,0.0,0.0,0.0,0.0,0.0,0.0,0.0,0.0,0.0,0.0,0.0,0.0,0.0,0.0,0.0,0.0,0.0,0.0,0.0,0.0,0.0,0.0,0.0,0.0,0.0,0.0,0.0,0.0,0.0,0.0,0.0,0.0,0.0,0.0,0.0,0.0,0.0,0.0,0.0,0.0,0.0,0.0,0.0,0.0,0.0,0.0,0.0,0.0,0.0,0.0,0.0,0.0,0.0,0.0,0.0,0.0,0.0,0.0,0.0,0.0,0.0,0.0,0.0,0.0,0.0,0.0,0.0,0.0,0.0,0.0,0.0,0.0,0.0,0.0,0.0,0.0,0.0,0.0,0.0,0.0,0.0,0.0,0.0,0.0,0.0,0.0,0.0,0.0,0.0,0.0,0.0,0.0,0.0,0.0,0.0,0.0,0.0,0.0,0.0,0.0,0.0,0.0,0.0,0.0,0.0,0.0,0.0,0.0,0.0,0.0,0.0,0.0,0.0,0.0,0.0,0.0,0.0,0.0,0.0,0.0,0.0,0.0,0.0,0.0,0.0,0.0,0.0,0.0,0.0,0.0,0.0,0.0,0.0,0.0,0.0,0.0,0.0,0.0,0.0,0.0,0.0,0.0,0.0,0.0,0.0,0.0,0.0,0.0,0.0,0.0,0.0,0.0,0.0,0.0,0.0,0.0,0.0,0.0,0.0,0.0,0.0,0.0,0.0,0.0,0.0,0.0,0.0,0.0,0.0,0.0,0.0,0.0,0.0,0.0,0.0,0.0,0.0,0.0,0.0,0.0,0.0,0.0,0.0,0.0,0.0,0.0,0.0,0.0,0.0,0.0,0.0,0.0,0.0,0.0,0.0,0.0,0.0,0.0,0.0,0.0,0.0,0.0,0.0,0.0,0.0,0.0,0.0,0.0,0.0,0.0,0.0,0.0,0.0,0.0,0.0,0.0,0.0,0.0,0.0,0.0,0.0,0.0,0.0,0.0,0.0,0.0,0.0,0.0,0.0,0.0,0.0,0.0,0.0,0.0,0.0,0.0,0.0,0.0,0.0,0.0,0.0,0.0,0.0,0.0,0.0,0.0,0.0,0.0,0.0,0.0,0.0,0.0,0.0,0.0,0.0,0.0,0.0,0.0,0.0,0.0,0.0,0.0,0.0,0.0,0.0,0.0,0.0,0.0,0.0,0.0,0.0,0.0,0.0,0.0,0.0,0.0,0.0,0.0,0.0,0.0,0.0,0.0,0.0,0.0,0.0,0.0,0.0,0.0,0.0,0.0,0.0,0.0,0.0,0.0,0.0,0.0,0.0,0.0,0.0,0.0,0.0,0.0,0.0,0.0,1.388,0.0,0.0,0.0,0.0,0.0,0.0,0.0,0.0,0.0,0.0,0.0,0.0,0.0,0.0,0.0,0.0,0.0,0.0,0.0,0.0,0.0,0.0,0.0,0.0,0.0,0.0,0.0,0.0,0.0,0.0,0.0,0.0,0.0,0.0,0.0,0.0,0.0,0.0,0.0,0.0,0.0,0.0,0.0,0.0,0.0,0.0,0.0,0.0,0.0,0.0,0.0,0.0,0.0,0.0,0.0,0.0,0.0,0.0,0.0,0.0,0.0,0.0,0.0,0.0,0.0,0.0,0.0,0.0,0.0,0.0,0.0,0.0,0.0,0.0,0.0,0.0,0.0,0.0,0.0,0.0,0.0,0.0,0.0,0.0,0.0,0.0,0.0,0.0,0.0,0.0,0.0,0.0,0.0,0.0,0.0,0.0,0.0,0.0,0.0,0.0,0.0,0.0,0.0,0.0,0.0,0.0,0.0,0.0,0.0,0.0,1.5345,1.5338,1.4884,1.4228,1.3403,0.0,0.0,0.0,0.0,0.0,0.0,0.0,0.0,0.0,0.0,0.0,0.0,0.0,0.0,0.0,0.0,0.0,0.0,0.0,0.0,0.0,0.0,0.0,0.0,0.0,0.0,0.0,0.0,0.0,0.0,0.0,0.0,0.0,0.0,0.0,0.0,0.0,0.0,0.0,0.0,0.0,0.0,0.0,0.0,0.0,0.0,0.0,0.0,0.0,0.0,0.0,0.0,0.0,0.0,0.0,0.0,0.0,0.0,0.0,0.0,0.0,0.0,0.0,0.0,0.0,0.0,0.0,0.0,0.0,0.0,0.0,0.0,0.0,0.0,0.0,0.0,0.0,0.0,0.0,0.0,0.0,0.0,0.0,0.0,0.0,0.0,0.0,0.0,0.0,0.0,0.0,0.0,0.0,0.0,0.0,0.0,0.0,0.0,0.0,0.0,0.0,0.0,0.0,0.0,0.0,0.0,0.0,0.0,0.0,0.0,0.0,0.0,1.5306,1.4536,1.372,0.0,0.0,0.0,0.0,0.0,0.0,0.0,0.0,0.0,0.0,0.0,0.0,0.0,0.0,0.0,0.0,0.0,0.0,0.0,0.0,0.0,0.0,0.0,0.0,0.0,0.0,0.0,0.0,0.0,0.0,0.0,0.0,0.0,0.0,0.0,0.0,0.0,0.0,0.0,0.0,0.0,0.0,0.0,0.0,0.0,0.0,0.0,0.0,0.0,0.0,0.0,0.0,0.0,0.0,0.0,0.0,0.0,0.0,0.0,0.0,0.0,0.0,0.0,0.0,0.0,0.0,0.0,0.0,0.0,0.0,0.0,0.0,0.0,0.0,0.0,0.0,0.0,0.0,0.0,0.0,0.0,0.0,0.0,0.0,0.0,0.0,0.0,0.0,0.0,0.0,0.0,0.0,0.0,0.0,0.0,0.0,0.0,0.0,0.0,0.0,0.0,0.0,0.0,0.0,0.0,0.0,0.0,0.0,0.0,0.0,1.606,1.7616,1.7551,0.0,1.6311,0.0,0.0,0.0,0.0,0.0,0.0,0.0,0.0,0.0,0.0,0.0,0.0,0.0,0.0,0.0,0.0,0.0,0.0,0.0,0.0,0.0,0.0,0.0,0.0,0.0,0.0,0.0,0.0,0.0,0.0,0.0,0.0,0.0,0.0,0.0,0.0,0.0,0.0,0.0,0.0,0.0,0.0,0.0,0.0,0.0,0.0,0.0,0.0,0.0,0.0,0.0,0.0,0.0,0.0,0.0,0.0,0.0,0.0,0.0,0.0,0.0,0.0,0.0,0.0,0.0,0.0,0.0,0.0,0.0,0.0,0.0,0.0,0.0,0.0,0.0,0.0,0.0,0.0,0.0,0.0,0.0,0.0,0.0,0.0,0.0,0.0,0.0,0.0,0.0,0.0,0.0,0.0,0.0,0.0,0.0,0.0,0.0,0.0,0.0,0.0,0.0,0.0,0.0,0.0,0.0,0.0,0.0,0.0,0.0,0.0,1.6405,1.712,1.6684,1.6237,0.0,0.0,0.0,0.0,0.0,0.0,0.0,0.0,0.0,0.0,0.0,0.0,0.0,0.0,0.0,0.0,0.0,0.0,0.0,0.0,0.0,0.0,0.0,0.0,0.0,0.0,0.0,0.0,0.0,0.0,0.0,0.0,0.0,0.0,0.0,0.0,0.0,0.0,0.0,0.0,0.0,0.0,0.0,0.0,0.0,0.0,0.0,0.0,0.0,0.0,0.0,0.0,0.0,0.0,0.0,0.0,0.0,0.0,0.0,0.0,0.0,0.0,0.0,0.0,0.0,0.0,0.0,0.0,0.0,0.0,0.0,0.0,0.0,0.0,0.0,0.0,0.0,0.0,0.0,0.0,0.0,0.0,0.0,0.0,0.0,0.0,0.0,0.0,0.0,0.0,0.0,0.0,0.0,0.0,0.0,0.0,0.0,0.0,0.0,0.0,0.0,0.0,0.0,0.0,0.0,0.0,0.0,0.0,0.0,0.0,1.623,1.682,1.7267,1.6749,1.5987,1.5002,0.0,0.0,0.0,0.0,0.0,0.0,0.0,0.0,0.0,0.0,0.0,0.0,0.0,0.0,0.0,0.0,0.0,0.0,0.0,0.0,0.0,0.0,0.0,0.0,0.0,0.0,0.0,0.0,0.0,0.0,0.0,0.0,0.0,0.0,0.0,0.0,0.0,0.0,0.0,0.0,0.0,0.0,0.0,0.0,0.0,0.0,0.0,0.0,0.0,0.0,0.0,0.0,0.0,0.0,0.0,0.0,0.0,0.0,0.0,0.0,0.0,0.0,0.0,0.0,0.0,0.0,0.0,0.0,0.0,0.0,0.0,0.0,0.0,0.0,0.0,0.0,0.0,0.0,0.0,0.0,0.0,0.0,0.0,0.0,0.0,0.0,0.0,0.0,0.0,0.0,0.0,0.0,0.0,0.0,0.0,0.0,0.0,0.0,0.0,0.0,0.0,0.0,0.0,0.0,0.0,0.0,0.0,0.0,1.861,1.7342,1.7389,1.9021,1.904,1.749,0.0,0.0,0.0,0.0,0.0,0.0,0.0,0.0,0.0,0.0,0.0,0.0,0.0,0.0,0.0,0.0,0.0,0.0,0.0,0.0,0.0,0.0,0.0,0.0,0.0,0.0,0.0,0.0,0.0,0.0,0.0,0.0,0.0,0.0,0.0,0.0,0.0,0.0,0.0,0.0,0.0,0.0,0.0,0.0,0.0,0.0,0.0,0.0,0.0,0.0,0.0,0.0,0.0,0.0,0.0,0.0,0.0,0.0,0.0,0.0,0.0,0.0,0.0,0.0,0.0,0.0,0.0,0.0,0.0,0.0,0.0,0.0,0.0,0.0,0.0,0.0,0.0,0.0,0.0,0.0,0.0,0.0,0.0,0.0,0.0,0.0,0.0,0.0,0.0,0.0,0.0,0.0,0.0,0.0,0.0,0.0,0.0,0.0,0.0,0.0,0.0,0.0,0.0,0.0,0.0,0.0,0.0,0.0,0.0,1.4196,1.4717,1.6905,2.0577,1.7683,1.611,0.0,0.0,0.0,0.0,0.0,0.0,0.0,0.0,0.0,0.0,0.0,0.0,0.0,0.0,0.0,0.0,0.0,0.0,0.0,0.0,0.0,0.0,0.0,0.0,0.0,0.0,0.0,0.0,0.0,0.0,0.0,0.0,0.0,0.0,0.0,0.0,0.0,0.0,0.0,0.0,0.0,0.0,0.0,0.0,0.0,0.0,0.0,0.0,0.0,0.0,0.0,0.0,0.0,0.0,0.0,0.0,0.0,0.0,0.0,0.0,0.0,0.0,0.0,0.0,0.0,0.0,0.0,0.0,0.0,0.0,0.0,0.0,0.0,0.0,0.0,0.0,0.0,0.0,0.0,0.0,0.0,0.0,0.0,0.0,0.0,0.0,0.0,0.0,0.0,0.0,0.0,0.0,0.0,0.0,0.0,0.0,0.0,0.0,0.0,0.0,0.0,0.0,0.0,0.0,0.0,0.0,0.0,0.0,0.0,1.3547,0.0,1.8016,0.0,1.7346,1.5516,0.0,0.0,0.0,0.0,0.0,0.0,0.0,0.0,0.0,0.0,0.0,0.0,0.0,0.0,0.0,0.0,0.0,0.0,0.0,0.0,0.0,0.0,0.0,0.0,0.0,0.0,0.0,0.0,0.0,0.0,0.0,0.0,0.0,0.0,0.0,0.0,0.0,0.0,0.0,0.0,0.0,0.0,0.0,0.0,0.0,0.0,0.0,0.0,0.0,0.0,0.0,0.0,0.0,0.0,0.0,0.0,0.0,0.0,0.0,0.0,0.0,0.0,0.0,0.0,0.0,0.0,0.0,0.0,0.0,0.0,0.0,0.0,0.0,0.0,0.0,0.0,0.0,0.0,0.0,0.0,0.0,0.0,0.0,0.0,0.0,0.0,0.0,0.0,0.0,0.0,0.0,0.0,0.0,0.0,0.0,0.0,0.0,0.0,0.0,0.0,0.0,0.0,0.0,0.0,0.0,0.0,0.0,0.0,1.279,1.7628,2.0184,2.0637,1.9307,1.8291,1.5909,0.0,0.0,0.0,0.0,0.0,0.0,0.0,0.0,0.0,0.0,0.0,0.0,0.0,0.0,0.0,0.0,0.0,0.0,0.0,0.0,0.0,0.0,0.0,0.0,0.0,0.0,0.0,0.0,0.0,0.0,0.0,0.0,0.0,0.0,0.0,0.0,0.0,0.0,0.0,0.0,0.0,0.0,0.0,0.0,0.0,0.0,0.0,0.0,0.0,0.0,0.0,0.0,0.0,0.0,0.0,0.0,0.0,0.0,0.0,0.0,0.0,0.0,0.0,0.0,0.0,0.0,0.0,0.0,0.0,0.0,0.0,0.0,0.0,0.0,0.0,0.0,0.0,0.0,0.0,0.0,0.0,0.0,0.0,0.0,0.0,0.0,0.0,0.0,0.0,0.0,0.0,0.0,0.0,0.0,0.0,0.0,0.0,0.0,0.0,0.0,0.0,0.0,0.0,0.0,0.0,0.0,0.0,0.0,0.0,1.619,1.7556,1.9141,2.078,1.7285,1.5505,0.0,0.0,0.0,0.0,0.0,0.0,0.0,0.0,0.0,0.0,0.0,0.0,0.0,0.0,0.0,0.0,0.0,0.0,0.0,0.0,0.0,0.0,0.0,0.0,0.0,0.0,0.0,0.0,0.0,0.0,0.0,0.0,0.0,0.0,0.0,0.0,0.0,0.0,0.0,0.0,0.0,0.0,0.0,0.0,0.0,0.0,0.0,0.0,0.0,0.0,0.0,0.0,0.0,0.0,0.0,0.0,0.0,0.0,0.0,0.0,0.0,0.0,0.0,0.0,0.0,0.0,0.0,0.0,0.0,0.0,0.0,0.0,0.0,0.0,0.0,0.0,0.0,0.0,0.0,0.0,0.0,0.0,0.0,0.0,0.0,0.0,0.0,0.0,0.0,0.0,0.0,0.0,0.0,0.0,0.0,0.0,0.0,0.0,0.0,0.0,0.0,0.0,0.0,0.0,0.0,0.0,0.0,0.0,0.0,1.7905,1.9277,2.0755,2.2236,1.8237,1.6484,1.7382,0.0,0.0,0.0,0.0,0.0,0.0,0.0,0.0,0.0,0.0,0.0,0.0,0.0,0.0,0.0,0.0,0.0,0.0,0.0,0.0,0.0,0.0,0.0,0.0,0.0,0.0,0.0,0.0,0.0,0.0,0.0,0.0,0.0,0.0,0.0,0.0,0.0,0.0,0.0,0.0,0.0,0.0,0.0,0.0,0.0,0.0,0.0,0.0,0.0,0.0,0.0,0.0,0.0,0.0,0.0,0.0,0.0,0.0,0.0,0.0,0.0,0.0,0.0,0.0,0.0,0.0,0.0,0.0,0.0,0.0,0.0,0.0,0.0,0.0,0.0,0.0,0.0,0.0,0.0,0.0,0.0,0.0,0.0,0.0,0.0,0.0,0.0,0.0,0.0,0.0,0.0,0.0,0.0,0.0,0.0,0.0,0.0,0.0,0.0,0.0,0.0,0.0,0.0,0.0,0.0,0.0,0.0,0.0,2.1835,2.4367,2.4868,2.3287,2.069,1.8581,0.0,0.0,0.0,0.0,0.0,0.0,0.0,0.0,0.0,0.0,0.0,0.0,0.0,0.0,0.0,0.0,0.0,0.0,0.0,0.0,0.0,0.0,0.0,0.0,0.0,0.0,0.0,0.0,0.0,0.0,0.0,0.0,0.0,0.0,0.0,0.0,0.0,0.0,0.0,0.0,0.0,0.0,0.0,0.0,0.0,0.0,0.0,0.0,0.0,0.0,0.0,0.0,0.0,0.0,0.0,0.0,0.0,0.0,0.0,0.0,0.0,0.0,0.0,0.0,0.0,0.0,0.0,0.0,0.0,0.0,0.0,0.0,0.0,0.0,0.0,0.0,0.0,0.0,0.0,0.0,0.0,0.0,0.0,0.0,0.0,0.0,0.0,0.0,0.0,0.0,0.0,0.0,0.0,0.0,0.0,0.0,0.0,0.0,0.0,0.0,0.0,0.0,0.0,0.0,0.0,0.0,0.0,0.0,0.0,2.2746,2.4694,2.5473,2.4965,2.194,1.9754,0.0,0.0,0.0,0.0,0.0,0.0,0.0,0.0,0.0,0.0,0.0,0.0,0.0,0.0,0.0,0.0,0.0,0.0,0.0,0.0,0.0,0.0,0.0,0.0,0.0,0.0,0.0,0.0,0.0,0.0,0.0,0.0,0.0,0.0,0.0,0.0,0.0,0.0,0.0,0.0,0.0,0.0,0.0,0.0,0.0,0.0,0.0,0.0,0.0,0.0,0.0,0.0,0.0,0.0,0.0,0.0,0.0,0.0,0.0,0.0,0.0,0.0,0.0,0.0,0.0,0.0,0.0,0.0,0.0,0.0,0.0,0.0,0.0,0.0,0.0,0.0,0.0,0.0,0.0,0.0,0.0,0.0,0.0,0.0,0.0,0.0,0.0,0.0,0.0,0.0,0.0,0.0,0.0,0.0,0.0,0.0,0.0,0.0,0.0,0.0,0.0,0.0,0.0,0.0,0.0,0.0,0.0,0.0,2.189,2.3599,2.4985,2.5687,2.5687,2.3072,2.1079,0.0,0.0,0.0,0.0,0.0,0.0,0.0,0.0,0.0,0.0,0.0,0.0,0.0,0.0,0.0,0.0,0.0,0.0,0.0,0.0,0.0,0.0,0.0,0.0,0.0,0.0,0.0,0.0,0.0,0.0,0.0,0.0,0.0,0.0,0.0,0.0,0.0,0.0,0.0,0.0,0.0,0.0,0.0,0.0,0.0,0.0,0.0,0.0,0.0,0.0,0.0,0.0,0.0,0.0,0.0,0.0,0.0,0.0,0.0,0.0,0.0,0.0,0.0,0.0,0.0,0.0,0.0,0.0,0.0,0.0,0.0,0.0,0.0,0.0,0.0,0.0,0.0,0.0,0.0,0.0,0.0,0.0,0.0,0.0,0.0,0.0,0.0,0.0,0.0,0.0,0.0,0.0,0.0,0.0,0.0,0.0,0.0,0.0,0.0,0.0,0.0,0.0,0.0,0.0,0.0,0.0,0.0,0.0,2.2729,2.4378,2.5236,2.5687,2.5648,2.4087,2.24,0.0,0.0,0.0,0.0,0.0,0.0,0.0,0.0,0.0,0.0,0.0,0.0,0.0,0.0,0.0,0.0,0.0,0.0,0.0,0.0,0.0,0.0,0.0,0.0,0.0,0.0,0.0,0.0,0.0,0.0,0.0,0.0,0.0,0.0,0.0,0.0,0.0,0.0,0.0,0.0,0.0,0.0,0.0,0.0,0.0,0.0,0.0,0.0,0.0,0.0,0.0,0.0,0.0,0.0,0.0,0.0,0.0,0.0,0.0,0.0,0.0,0.0,0.0,0.0,0.0,0.0,0.0,0.0,0.0,0.0,0.0,0.0,0.0,0.0,0.0,0.0,0.0,0.0,0.0,0.0,0.0,0.0,0.0,0.0,0.0,0.0,0.0,0.0,0.0,0.0,0.0,0.0,0.0,0.0,0.0,0.0,0.0,0.0,0.0,0.0,0.0,0.0,0.0,0.0,0.0,0.0,0.0,0.0,2.3341,2.4371,2.5256,2.5687,2.5687,2.4692,2.3296,0.0,0.0,0.0,0.0,0.0,0.0,0.0,0.0,0.0,0.0,0.0,0.0,0.0,0.0,0.0,0.0,0.0,0.0,0.0,0.0,0.0,0.0,0.0,0.0,0.0,0.0,0.0,0.0,0.0,0.0,0.0,0.0,0.0,0.0,0.0,0.0,0.0,0.0,0.0,0.0,0.0,0.0,0.0,0.0,0.0,0.0,0.0,0.0,1.5742,0.0,0.0,0.0,0.0,0.0,0.0,0.0,0.0,0.0,0.0,0.0,0.0,0.0,0.0,0.0,0.0,0.0,0.0,0.0,0.0,0.0,0.0,0.0,0.0,0.0,0.0,0.0,0.0,0.0,0.0,0.0,0.0,0.0,0.0,0.0,0.0,0.0,0.0,0.0,0.0,0.0,0.0,0.0,0.0,0.0,0.0,0.0,0.0,0.0,0.0,0.0,0.0,0.0,0.0,0.0,0.0,0.0,0.0,0.0,2.4139,2.4976,2.5439,2.5673,2.5679,2.5187,2.3922,0.0,0.0,0.0,0.0,0.0,0.0,0.0,0.0,0.0,0.0,0.0,0.0,0.0,0.0,0.0,0.0,0.0,0.0,0.0,0.0,0.0,0.0,0.0,0.0,0.0,0.0,0.0,0.0,0.0,0.0,0.0,0.0,0.0,0.0,0.0,0.0,0.0,0.0,0.0,0.0,0.0,0.0,0.0,0.0,0.0,0.0,0.0,0.0,0.0,0.0,0.0,0.0,0.0,0.0,0.0,0.0,0.0,0.0,0.0,0.0,0.0,0.0,0.0,0.0,0.0,0.0,0.0,0.0,0.0,0.0,0.0,0.0,0.0,0.0,0.0,0.0,0.0,0.0,0.0,0.0,0.0,0.0,0.0,0.0,0.0,0.0,0.0,0.0,0.0,0.0,0.0,0.0,0.0,0.0,0.0,0.0,0.0,0.0,0.0,0.0,0.0,0.0,0.0,0.0,0.0,0.0,0.0,2.3074,2.4705,2.564,2.5639,2.5636,2.5684,2.5576,2.4388,2.1983,0.0,0.0,0.0,0.0,0.0,0.0,0.0,0.0,0.0,0.0,0.0,0.0,0.0,0.0,0.0,0.0,0.0,0.0,0.0,0.0,0.0,0.0,0.0,0.0,0.0,0.0,0.0,0.0,0.0,0.0,0.0,0.0,0.0,0.0,0.0,0.0,0.0,0.0,1.4014,1.6097,0.0,0.0,0.0,0.0,0.0,0.0,0.0,0.0,1.7633,0.0,0.0,0.0,0.0,0.0,0.0,0.0,0.0,0.0,0.0,0.0,0.0,0.0,0.0,0.0,0.0,0.0,0.0,0.0,0.0,0.0,0.0,0.0,0.0,0.0,0.0,0.0,0.0,0.0,0.0,0.0,0.0,0.0,0.0,0.0,0.0,0.0,0.0,0.0,0.0,0.0,0.0,0.0,0.0,0.0,0.0,0.0,0.0,0.0,0.0,0.0,0.0,0.0,0.0,0.0,0.0,2.2608,2.3093,2.4088,2.5651,2.5693,2.5665,2.5625,2.5598,2.4662,2.2746,0.0,0.0,0.0,0.0,0.0,0.0,0.0,0.0,0.0,0.0,0.0,0.0,0.0,0.0,0.0,0.0,0.0,0.0,0.0,0.0,0.0,0.0,0.0,0.0,0.0,0.0,0.0,0.0,0.0,0.0,0.0,0.0,0.0,0.0,0.0,0.0,0.0,0.0,0.0,1.899,2.0411,0.0,0.0,0.0,0.0,0.0,0.0,0.0,0.0,1.7813,0.0,0.0,0.0,0.0,0.0,0.0,0.0,0.0,0.0,0.0,0.0,0.0,0.0,0.0,0.0,0.0,0.0,0.0,0.0,0.0,0.0,0.0,0.0,0.0,0.0,0.0,0.0,0.0,0.0,0.0,0.0,0.0,0.0,0.0,0.0,0.0,0.0,0.0,0.0,0.0,0.0,0.0,0.0,0.0,0.0,0.0,0.0,0.0,0.0,0.0,0.0,0.0,0.0,0.0,0.0,2.1691,2.3542,2.4817,2.5574,2.5604,2.5566,2.5529,2.4645,2.3527,0.0,0.0,0.0,0.0,0.0,0.0,0.0,0.0,0.0,0.0,0.0,0.0,0.0,0.0,0.0,0.0,0.0,0.0,0.0,0.0,0.0,0.0,0.0,0.0,0.0,0.0,0.0,0.0,0.0,0.0,0.0,0.0,0.0,0.0,0.0,0.0,0.0,0.0,0.0,0.0,1.9332,2.0522,2.1782,0.0,0.0,0.0,0.0,0.0,0.0,1.9563,1.8828,0.0,0.0,0.0,0.0,0.0,0.0,0.0,0.0,0.0,0.0,0.0,0.0,0.0,0.0,0.0,0.0,0.0,0.0,0.0,0.0,0.0,0.0,0.0,0.0,0.0,0.0,0.0,0.0,0.0,0.0,0.0,0.0,0.0,0.0,0.0,0.0,0.0,0.0,0.0,0.0,0.0,0.0,0.0,0.0,0.0,0.0,0.0,0.0,0.0,0.0,0.0,0.0,0.0,0.0,0.0,2.0601,2.3595,2.5266,2.5482,2.5492,2.5492,2.5449,2.4058,2.2726,0.0,0.0,0.0,0.0,0.0,0.0,0.0,0.0,0.0,0.0,0.0,0.0,0.0,0.0,0.0,0.0,0.0,0.0,0.0,0.0,0.0,0.0,0.0,0.0,0.0,0.0,0.0,0.0,0.0,0.0,0.0,0.0,0.0,0.0,0.0,0.0,0.0,0.0,0.0,0.0,0.0,2.0911,2.1992,2.1618,0.0,0.0,0.0,0.0,2.2107,2.1063,0.0,0.0,0.0,0.0,0.0,0.0,0.0,0.0,0.0,0.0,0.0,0.0,0.0,0.0,0.0,0.0,0.0,0.0,0.0,0.0,0.0,0.0,0.0,0.0,0.0,0.0,0.0,0.0,0.0,0.0,0.0,0.0,0.0,0.0,0.0,0.0,0.0,0.0,0.0,0.0,0.0,0.0,0.0,0.0,0.0,0.0,0.0,0.0,0.0,0.0,0.0,0.0,0.0,0.0,0.0,0.0,2.0436,2.236,2.4024,2.5404,2.5447,2.5418,2.541,2.5082,2.3823,0.0,0.0,0.0,0.0,0.0,0.0,0.0,0.0,0.0,0.0,0.0,0.0,0.0,0.0,0.0,0.0,0.0,0.0,0.0,0.0,0.0,0.0,0.0,0.0,0.0,0.0,0.0,0.0,0.0,0.0,0.0,0.0,0.0,0.0,0.0,0.0,0.0,0.0,0.0,0.0,0.0,2.3652,2.3117,2.295,2.2932,0.0,0.0,2.2145,2.2943,2.2309,0.0,0.0,0.0,0.0,0.0,0.0,0.0,0.0,0.0,0.0,0.0,0.0,0.0,0.0,0.0,0.0,0.0,0.0,0.0,0.0,0.0,0.0,0.0,0.0,0.0,0.0,0.0,0.0,0.0,0.0,0.0,0.0,0.0,0.0,0.0,0.0,0.0,0.0,0.0,0.0,0.0,0.0,0.0,0.0,0.0,0.0,0.0,0.0,0.0,0.0,0.0,0.0,0.0,0.0,0.0,1.8055,2.0492,2.3086,2.4748,2.5415,2.5376,2.5274,2.519,2.42,2.2664,0.0,0.0,0.0,0.0,0.0,0.0,0.0,0.0,0.0,0.0,0.0,0.0,0.0,0.0,0.0,0.0,0.0,0.0,0.0,0.0,0.0,0.0,0.0,0.0,0.0,0.0,0.0,0.0,0.0,0.0,0.0,0.0,0.0,0.0,0.0,0.0,0.0,0.0,0.0,0.0,0.0,0.0,2.3802,2.3503,0.0,0.0,0.0,2.298,2.3814,0.0,0.0,0.0,0.0,0.0,0.0,0.0,0.0,0.0,0.0,0.0,0.0,0.0,0.0,0.0,0.0,0.0,0.0,0.0,0.0,0.0,0.0,0.0,0.0,0.0,0.0,0.0,0.0,0.0,0.0,0.0,0.0,0.0,0.0,0.0,0.0,0.0,0.0,0.0,0.0,0.0,0.0,0.0,0.0,0.0,0.0,0.0,0.0,0.0,0.0,0.0,0.0,0.0,0.0,0.0,0.0,0.0,2.0497,2.3786,2.5439,2.5382,2.5312,2.5182,2.4987,2.372,0.0,0.0,0.0,0.0,0.0,0.0,0.0,0.0,0.0,0.0,0.0,0.0,0.0,0.0,0.0,0.0,0.0,0.0,0.0,0.0,0.0,0.0,0.0,0.0,0.0,0.0,0.0,1.0049,0.0,0.0,0.0,0.0,0.0,0.0,0.0,0.0,0.0,0.0,0.0,0.0,0.0,0.0,2.2827,2.375,2.3566,2.3529,0.0,0.0,2.3671,2.4318,2.3927,2.3184,0.0,0.0,0.0,0.0,0.0,0.0,0.0,0.0,0.0,0.0,0.0,0.0,0.0,0.0,0.0,0.0,0.0,0.0,0.0,0.0,0.0,0.0,0.0,0.0,0.0,0.0,0.0,0.0,0.0,0.0,0.0,0.0,0.0,0.0,0.0,0.0,0.0,0.0,0.0,0.0,0.0,0.0,0.0,0.0,0.0,0.0,0.0,0.0,0.0,0.0,0.0,0.0,0.0,0.0,1.8741,2.0443,2.3696,2.5374,2.5303,2.5239,2.5156,2.4993,2.4705,2.3023,0.0,0.0,0.0,0.0,0.0,0.0,0.0,0.0,0.0,0.0,0.0,0.0,0.0,0.0,0.0,0.0,0.0,0.0,0.0,0.0,0.0,0.0,0.0,0.0,0.0,0.0,0.0,0.0,0.0,0.0,0.0,0.0,0.0,0.0,0.0,0.0,0.0,0.0,0.0,0.0,0.0,2.3517,2.256,2.3166,2.3681,0.0,2.3964,2.4155,2.421,2.432,2.3851,2.2256,0.0,0.0,0.0,0.0,0.0,0.0,0.0,0.0,0.0,0.0,0.0,0.0,0.0,0.0,0.0,0.0,0.0,0.0,0.0,0.0,0.0,0.0,0.0,0.0,0.0,0.0,0.0,0.0,0.0,0.0,0.0,0.0,0.0,0.0,0.0,0.0,0.0,0.0,0.0,0.0,0.0,0.0,0.0,0.0,0.0,0.0,0.0,0.0,0.0,0.0,0.0,0.0,0.0,1.8701,2.0419,2.3678,2.5322,2.5303,2.5248,2.5113,2.4947,2.4799,2.3399,0.0,0.0,0.0,0.0,0.0,0.0,0.0,0.0,0.0,0.0,0.0,0.0,0.0,0.0,0.0,0.0,0.0,0.0,0.0,0.0,0.0,0.0,0.0,0.0,0.0,0.0,0.0,0.0,1.2437,1.2919,1.3969,0.0,0.0,0.0,0.0,0.0,0.0,0.0,0.0,0.0,0.0,2.3703,2.3773,2.4105,0.0,0.0,2.4418,2.4363,2.4012,2.4518,2.4394,2.2864,2.272,0.0,0.0,0.0,0.0,0.0,0.0,0.0,0.0,0.0,0.0,0.0,0.0,0.0,0.0,0.0,0.0,0.0,0.0,0.0,0.0,0.0,0.0,0.0,0.0,0.0,0.0,0.0,0.0,0.0,0.0,0.0,0.0,0.0,0.0,0.0,0.0,0.0,0.0,0.0,0.0,0.0,0.0,0.0,0.0,0.0,0.0,0.0,0.0,0.0,0.0,0.0,0.0,1.9026,2.0718,2.375,2.5293,2.5262,2.5225,2.5082,2.4915,2.4874,2.3719,0.0,0.0,0.0,0.0,0.0,0.0,0.0,0.0,0.0,0.0,0.0,0.0,0.0,0.0,0.0,0.0,0.0,0.0,0.0,0.0,0.0,0.0,0.0,0.0,0.0,0.0,0.0,0.0,1.3641,1.3961,1.4407,0.0,0.0,0.0,0.0,0.0,0.0,0.0,0.0,0.0,0.0,2.3809,2.4311,2.4424,2.4473,2.4539,2.4444,2.4289,2.4151,2.4675,2.4595,2.3105,0.0,0.0,0.0,0.0,0.0,0.0,0.0,0.0,0.0,0.0,0.0,0.0,0.0,0.0,0.0,0.0,0.0,0.0,0.0,0.0,0.0,0.0,0.0,0.0,0.0,0.0,0.0,1.2477,0.0,0.0,1.1288,0.0,0.0,0.0,0.0,0.0,0.0,0.0,0.0,0.0,0.0,0.0,0.0,0.0,0.0,0.0,0.0,0.0,0.0,0.0,0.0,0.0,0.0,1.9838,2.149,2.4005,2.5262,2.5203,2.521,2.5113,2.4915,2.498,2.4125,2.2292,0.0,0.0,0.0,0.0,0.0,0.0,0.0,0.0,0.0,0.0,0.0,0.0,0.0,0.0,0.0,0.0,0.0,0.0,0.0,0.0,0.0,0.0,0.0,0.0,0.0,0.0,1.3249,1.4032,1.4414,0.0,0.0,0.0,0.0,0.0,0.0,0.0,0.0,0.0,0.0,2.3484,2.391,2.3693,2.3805,2.4066,2.4209,2.3874,2.3862,2.4707,2.4901,2.4364,0.0,0.0,0.0,0.0,0.0,0.0,0.0,0.0,0.0,0.0,0.0,0.0,0.0,0.0,0.0,0.0,0.0,0.0,0.0,0.0,0.0,0.0,0.0,0.0,0.0,0.0,0.0,1.7122,1.6127,0.0,0.0,0.0,0.0,0.0,0.0,0.0,0.0,0.0,0.0,0.0,2.2919,2.4049,0.0,0.0,0.0,0.0,0.0,0.0,0.0,0.0,0.0,0.0,0.0,0.0,1.98,2.1512,2.3956,2.5225,2.521,2.521,2.5168,2.5101,2.5019,2.3891,2.1588,0.0,0.0,0.0,0.0,0.0,0.0,0.0,0.0,0.0,0.0,0.0,0.0,0.0,0.0,0.0,0.0,0.0,0.0,0.0,0.0,0.0,0.0,0.0,0.0,0.0,1.301,0.0,0.0,0.0,0.0,0.0,0.0,0.0,0.0,0.0,0.0,0.0,2.2348,2.3096,2.4402,2.5043,2.4411,2.4816,2.5159,0.0,0.0,0.0,0.0,0.0,0.0,0.0,0.0,0.0,0.0,0.0,0.0,0.0,0.0,2.3076,1.9288,1.8412,1.8378,1.8645,0.0,0.0,0.0,0.0,0.0,0.0,0.0,0.0,0.0,0.0,0.0,0.0,0.0,0.0,1.9987,0.0,1.7921,0.0,0.0,0.0,0.0,0.0,0.0,0.0,0.0,2.4129,2.5206,2.5256,2.6233,2.6214,0.0,2.5024,2.3515,0.0,0.0,0.0,0.0,0.0,0.0,0.0,0.0,2.0636,2.2334,2.4222,2.521,2.521,2.521,2.521,2.521,2.5101,2.415,2.2125,2.0584,1.8894,0.0,0.0,0.0,0.0,0.0,0.0,0.0,0.0,0.0,0.0,0.0,0.0,0.0,0.0,0.0,0.0,0.0,0.0,0.0,0.0,0.0,0.0,0.0,1.3696,0.0,0.0,0.0,0.0,0.0,0.0,0.0,0.0,0.0,2.0602,2.1775,2.2937,2.3974,2.4811,2.5279,2.4978,0.0,0.0,0.0,0.0,0.0,0.0,0.0,2.5941,2.5558,2.5883,2.6289,2.6556,2.6969,2.6995,2.6092,0.0,0.0,2.1333,2.0516,2.0477,2.0723,2.1383,2.1871,2.2017,2.2358,2.2599,0.0,0.0,0.0,0.0,0.0,0.0,0.0,0.0,2.2545,2.2685,0.0,2.0984,0.0,0.0,0.0,0.0,0.0,2.2782,0.0,0.0,2.6635,2.7422,2.7387,2.7087,2.7129,2.7623,2.8319,2.79,2.6274,2.1626,0.0,0.0,0.0,0.0,0.0,0.0,2.2354,2.3886,2.4801,2.5249,2.5249,2.521,2.521,2.521,2.521,2.4771,2.3941,2.2874,2.1199,1.8817,1.6888,0.0,0.0,0.0,0.0,0.0,0.0,0.0,0.0,0.0,0.0,0.0,0.0,0.0,0.0,0.0,0.0,0.0,0.0,0.0,0.0,1.2997,0.0,0.0,0.0,0.0,0.0,0.0,0.0,0.0,0.0,0.0,2.1564,2.2228,2.3341,2.5088,0.0,0.0,0.0,0.0,2.4935,2.5717,2.5228,2.5349,2.6849,2.7317,2.7117,2.5877,0.0,0.0,2.8518,2.875,2.8594,2.7506,2.6959,2.6319,2.5006,2.415,2.3991,2.467,2.416,2.3984,2.4248,2.3942,2.3687,2.7665,0.0,0.0,0.0,0.0,2.6081,2.6806,2.7576,2.736,2.6808,2.6045,2.4787,0.0,0.0,0.0,0.0,0.0,0.0,2.6798,2.8239,2.9379,2.9903,2.994,3.0067,3.0065,2.9916,2.969,2.9045,2.8008,2.5996,2.3446,2.0452,0.0,0.0,0.0,0.0,2.3753,2.4793,2.5631,2.607,2.6058,2.5497,2.518,2.5144,2.512,2.5024,2.4758,2.3671,2.2492,2.1198,1.8849,0.0,0.0,0.0,0.0,0.0,0.0,0.0,0.0,0.0,0.0,0.0,0.0,0.0,0.0,0.0,0.0,0.0,0.0,0.0,1.4144,1.4296,1.488,0.0,0.0,0.0,0.0,0.0,0.0,0.0,0.0,0.0,2.3111,2.3617,2.4132,0.0,0.0,2.5918,2.5957,2.6406,2.6711,2.6662,2.6704,0.0,2.6983,2.6935,2.6863,2.6976,2.7597,2.8014,2.7861,2.7964,2.7941,2.7558,2.7432,2.7185,2.6803,2.543,2.4418,2.4284,2.4458,2.453,2.4325,2.4181,2.4055,3.2005,3.0266,2.944,2.8834,2.8441,2.8923,2.9444,2.9912,2.9607,2.9377,2.9122,2.7962,2.6837,2.5762,2.4649,0.0,0.0,0.0,2.8973,3.0418,3.0928,3.1194,3.1233,3.1445,3.1428,3.1163,3.0076,2.9526,2.9519,2.8366,2.6451,2.3908,0.0,0.0,2.3189,2.4356,2.5348,2.6147,2.6651,2.6899,2.6899,2.6097,2.564,2.5565,2.5266,2.5057,2.4985,2.4245,2.3434,2.2578,2.0659,1.8728,0.0,0.0,0.0,0.0,0.0,0.0,0.0,0.0,0.0,0.0,0.0,1.2762,1.1168,0.0,0.0,0.0,1.2164,1.3522,1.5348,1.564,0.0,0.0,0.0,0.0,0.0,0.0,0.0,2.1286,2.2248,2.3098,2.3748,2.4249,2.4735,2.5287,2.6018,2.6516,2.6671,0.0,2.7146,2.7152,2.7359,2.7541,2.7559,2.7565,2.7747,2.8366,2.826,2.8233,2.8372,2.8345,2.8303,2.8271,2.8062,2.7869,2.7869,2.6602,2.5551,2.5337,2.5607,2.5616,2.49,2.4759,2.4618,3.5365,3.5098,3.2214,3.098,3.0886,3.0886,3.1004,3.107,3.0376,3.0938,3.2246,3.0595,3.0104,3.0474,2.8834,0.0,3.0057,3.0083,3.0673,3.1734,3.1758,3.1752,3.1704,3.177,3.1741,3.1714,3.0046,2.9793,3.0732,2.9289,2.8248,2.765,2.7045,2.7038,2.7529,2.6974,2.7045,2.7784,2.7784,2.7746,2.7656,2.6829,2.6333,2.6227,2.5462,2.494,2.4775,2.4588,2.4087,2.3226,2.2297,2.0782,1.8562,0.0,0.0,0.0,0.0,0.0,0.0,0.0,0.0,0.0,0.0,0.0,0.0,0.0,0.0,0.0,1.3981,0.0,1.5871,1.7024,0.0,0.0,0.0,1.9798,2.0498,2.1708,2.254,2.2538,0.0,0.0,2.3813,2.4336,2.5188,2.6445,2.6425,2.6581,2.7241,2.6826,2.6658,2.7349,2.7441,2.7656,2.8165,2.8592,2.89,2.9294,2.9182,2.8903,2.9114,2.9146,2.9194,2.8932,2.8579,2.8075,2.8091,2.7403,2.7158,2.7121,2.7127,2.6778,2.5815,2.5548,2.525,3.6805,3.6714,3.5823,3.4925,3.4115,3.4097,3.4112,3.4127,3.3967,3.372,3.3354,3.2343,3.1333,3.0356,2.9923,3.0321,3.1358,3.1564,3.2165,3.3031,3.3201,3.3316,3.3324,3.3239,3.2893,3.2284,3.1685,3.1357,3.1302,3.0386,2.9899,2.9813,2.9242,2.8188,2.681,2.7725,2.8346,2.8522,2.8541,2.8141,2.7339,2.6507,2.5978,2.577,2.4987,2.454,2.4491,2.4337,2.4155,2.3934,2.3052,2.2027,2.0912,1.8051,0.0,0.0,0.0,0.0,0.0,0.0,0.0,0.0,0.0,1.6881,1.3181,0.0,1.7064,0.0,1.4994,1.5932,1.8151,1.8403,0.0,0.0,2.19,2.218,2.3475,2.3522,2.3545,2.3687,2.4238,2.4671,2.4708,2.5127,2.5497,2.5785,2.5638,2.583,2.6758,2.6924,2.7141,2.7716,2.7795,2.7936,2.8008,2.8201,2.8317,2.8414,2.8268,2.8122,2.775,2.7685,2.747,2.7085,2.6814,2.6696,2.6718,2.6462,2.6309,2.6352,2.6546,2.6539,2.5894,2.5743,2.5621,3.7577,3.7143,3.7066,3.6632,3.5988,3.5633,3.5261,3.4942,3.4925,3.4624,3.4147,3.3582,3.2845,3.1987,3.1969,3.2403,3.3006,3.2798,3.3122,3.3898,3.3647,3.3597,3.3788,3.3734,3.346,3.2967,3.2336,3.1978,3.1854,3.1115,3.0854,3.0999,3.0642,2.9758,2.8483,2.9053,2.9383,2.9379,2.9383,2.9076,2.8436,2.7217,2.6513,2.6414,2.5105,2.4407,2.4442,2.4266,2.4192,2.4229,2.3674,2.3014,2.2315,1.9829,1.7788,0.0,0.0,0.0,0.0,0.0,0.0,0.0,0.0,0.0,0.0,0.0,1.8785,1.7394,1.754,1.857,2.0591,2.0895,2.1815,2.3973,2.3583,2.3496,2.437,2.414,2.3993,2.4052,2.4462,2.4778,2.486,2.5025,2.5063,2.4978,2.4791,2.5182,2.6287,2.6623,2.6834,2.7122,2.7174,2.7174,2.7188,2.7174,2.7174,2.7174,2.7174,2.7004,2.6678,2.6573,2.6414,2.6079,2.604,2.604,2.604,2.5972,2.5932,2.5941,2.6112,2.6022,2.5546,2.5389,2.5331,3.791,3.7048,3.7048,3.6996,3.6856,3.6173,3.5507,3.4896,3.4914,3.4824,3.4699,3.4474,3.4285,3.4076,3.4037,3.4216,3.4434,3.3733,3.374,3.4281,3.3566,3.337,3.3615,3.366,3.3642,3.3522,3.2602,3.2247,3.2493,3.1719,3.1422,3.1587,3.147,3.1242,3.0958,3.0425,3.0117,3.003,3.0053,3.0026,2.9905,2.8223,2.7339,2.732,2.5476,2.4448,2.4391,2.4192,2.4097,2.4173,2.4036,2.3671,2.3087,2.1224,1.9791,0.0,1.7134,0.0,0.0,0.0,0.0,0.0,0.0,0.0,0.0,2.0023,2.0389,2.0042,2.0512,2.1408,2.282,2.3375,2.397,2.4701,2.4428,2.4221,2.4291,2.4257,2.4202,2.4226,2.4627,2.4821,2.4553,2.4452,2.4363,2.4216,2.4203,2.4584,2.5631,2.5957,2.6079,2.6133,2.6133,2.624,2.6254,2.6187,2.6201,2.6187,2.6133,2.5972,2.5932,2.5783,2.5687,2.5563,2.5522,2.5577,2.5563,2.5577,2.5577,2.5508,2.5508,2.5422,2.5177,2.5089,2.4815,3.787,3.7172,3.7335,3.7032,3.6409,3.6271,3.6354,3.6549,3.6549,3.6081,3.5349,3.5036,3.453,3.3957,3.3802,3.3802,3.3848,3.399,3.3801,3.3388,3.3797,3.3692,3.322,3.3433,3.3538,3.352,3.331,3.319,3.3187,3.2456,3.2074,3.2038,3.1576,3.1305,3.127,0.0,0.0,0.0,2.9734,2.9681,2.9436,2.8502,2.7606,2.6782,2.5562,0.0,2.3976,2.386,2.3795,2.3664,2.3598,0.0,0.0,0.0,0.0,0.0,0.0,0.0,0.0,0.0,0.0,0.0,2.0246,2.0246,1.9653,2.126,2.2165,2.175,2.1831,2.2411,2.3703,2.3531,2.3904,2.5276,2.4878,2.4755,2.5188,2.5039,2.4854,2.4818,2.4691,2.458,2.4536,2.4319,2.4184,2.4178,2.4125,2.4229,2.4532,2.5018,2.5356,2.5783,2.5893,2.5851,2.5892,2.5865,2.5825,2.5892,2.5892,2.5687,2.5314,2.516,2.4935,2.4607,2.4434,2.4434,2.4434,2.4434,2.4492,2.4434,2.4434,2.4681,2.5424,2.5614,2.5586,3.8482,0.0,3.8025,3.7594,0.0,3.6887,3.6807,3.6626,3.665,3.6342,3.5832,3.5607,3.5274,3.4932,3.4873,3.4831,3.4814,3.4586,3.4335,3.4192,3.4323,3.4013,3.3315,3.3792,3.3833,3.347,3.3452,3.3404,3.3375,3.3024,3.2824,3.2777,3.2483,3.22,3.1898,3.0844,3.0027,2.9455,2.9494,2.9416,2.9277,2.8431,2.7758,2.7255,2.5739,0.0,0.0,0.0,0.0,0.0,0.0,0.0,0.0,0.0,0.0,2.096,2.0619,2.0194,1.9707,2.0378,2.1102,2.1746,2.208,2.2047,2.1456,2.281,2.3491,2.3051,2.3375,2.3917,2.4549,2.417,2.4348,2.5445,2.4983,2.4694,2.4966,2.4765,2.4576,2.4571,2.4403,2.4411,2.4701,2.4636,2.4661,2.4909,2.4962,2.4936,2.4896,2.4688,2.4758,2.53,2.5412,2.5412,2.5426,2.5426,2.529,2.5086,2.4991,2.4878,2.462,2.4563,2.4447,2.4171,2.4125,2.4125,2.4125,2.4125,2.4125,2.4125,2.4125,2.4229,2.4751,2.4921,2.4921,3.9255,3.8665,3.8739,3.8264,3.747,3.7575,3.7162,3.6371,0.0,0.0,0.0,3.6036,3.5975,3.5993,3.5932,3.5932,3.5881,3.5214,3.4916,3.5106,3.4809,3.4409,3.3959,3.4321,3.4183,3.3628,3.3484,3.3393,3.3393,3.3393,3.3393,3.3382,3.3393,3.3092,3.2391,3.1137,3.0155,2.9606,2.9357,2.9212,2.9172,2.8346,2.7882,2.7908,2.6123,2.5082,2.4913,2.4064,2.3559,2.3446,2.3282,2.3257,2.333,2.2997,2.2733,2.2626,2.2778,2.2784,2.2622,2.2921,2.306,2.2986,2.3359,2.3491,2.3274,2.4004,2.4365,2.397,2.4517,2.5013,2.5152,2.4773,2.4764,2.5343,2.4851,2.4408,2.4421,2.4366,2.4295,2.4282,2.44,2.4596,2.5114,2.5118,2.5275,2.568,2.572,2.5811,2.5707,2.504,2.4721,2.5135,2.5287,2.5179,2.5166,2.5096,2.4792,2.4505,2.4262,2.4125,2.4125,2.4125,2.4125,2.4112,2.4067,2.4067,2.4067,2.3865,2.3865,2.3806,2.3734,2.3675,2.3688,2.3747,2.3852,3.9676,3.8882,3.9217,3.8567,3.7379,3.7904,3.7695,3.6915,3.631,3.6019,3.6019,3.5905,3.5817,3.5817,3.5711,3.5667,3.5667,3.5565,3.5074,3.4389,3.4809,3.5192,3.542,3.4513,3.4203,3.4359,3.3737,3.3393,3.3393,3.3393,3.3382,3.3322,3.3382,3.3024,3.2291,3.1962,3.1446,3.0667,2.9454,2.886,2.8883,2.868,2.8231,2.7597,2.6821,2.6083,2.5427,2.4952,2.4642,2.4413,2.4372,2.4283,2.4059,2.3981,2.3796,2.3473,2.3466,2.3307,2.2943,2.2613,2.2548,2.2823,2.3492,2.3682,2.3141,2.3734,2.4196,2.4337,2.436,2.4517,2.4942,2.4517,2.4302,2.461,2.4376,2.4171,2.421,2.4629,2.4844,2.4857,2.5301,2.5563,2.5667,2.5707,2.5746,2.5824,2.5994,2.5876,2.5903,2.5694,2.5615,2.568,2.5707,2.5707,2.5667,2.5275,2.504,2.487,2.4452,2.4191,2.4191,2.4191,2.4119,2.4112,2.4034,2.3916,2.3903,2.3292,2.2967,2.2847,2.2482,2.2237,2.2738,2.2919,2.3053,3.9597,3.9379,3.9842,3.9236,3.7886,3.7698,3.741,3.7087,3.6627,3.6236,3.5905,3.5773,3.5684,3.5667,3.5622,3.5639,3.5639,3.5639,3.5357,3.5013,3.548,3.5641,3.5523,3.5295,3.4779,3.411,3.3944,3.3659,3.3262,3.3226,3.3226,3.3214,3.3244,3.3046,3.2685,3.2259,3.1863,3.1484,3.0008,2.9228,2.921,2.8724,2.8206,2.7673,2.6959,2.6265,2.5564,2.4991,2.4547,2.4271,2.4288,2.4225,2.4114,2.4081,2.3918,2.3549,2.3679,2.3613,2.3139,2.3044,2.3111,2.333,2.3978,2.4094,2.3483,2.4089,2.4474,2.4362,2.4505,2.4568,2.4523,2.4229,2.4171,2.4261,2.4419,2.457,2.4635,2.5079,2.5419,2.5445,2.5654,2.5942,2.6242,2.6282,2.6425,2.6661,2.6687,2.6674,2.6661,2.6661,2.6621,2.636,2.6282,2.6295,2.6269,2.6086,2.5785,2.5497,2.4962,2.4635,2.457,2.451,2.4287,2.404,2.4051,2.3863,2.3406,2.2919,2.247,2.2039,2.1865,2.1865,2.2298,2.2677,2.3005,3.9385,3.9594,4.0037,3.9581,3.852,3.7685,3.7336,3.7303,3.7124,3.6649,3.6034,3.5751,3.5639,3.5639,3.5639,3.5639,3.5639,3.5639,3.5622,3.5667,3.5975,3.5797,3.5383,3.571,3.5257,3.42,3.4153,3.3884,3.3409,3.3176,3.3104,3.3086,3.3104,3.3055,3.2975,3.2499,3.2194,3.2013,3.0765,3.0004,2.9853,2.898,2.8431,2.8134,2.7163,2.6437,2.5939,2.5223,2.4727,2.4531,2.4497,2.4497,2.4497,2.4414,2.4159,2.3822,2.3952,2.3834,2.3371,2.3631,2.3878,2.3995,2.4373,2.4431,2.4134,2.4436,2.4544,2.4298,2.4527,2.4536,2.4255,2.4269,2.4308,2.4334,2.4818,2.5158,2.521,2.5654,2.602,2.6033,2.6125,2.6412,2.6739,2.687,2.6948,2.7167,2.7335,2.7268,2.7188,2.7108,2.6982,2.6764,2.6726,2.687,2.6857,2.657,2.6181,2.578,2.5075,2.4643,2.4566,2.4517,2.434,2.3936,2.3789,2.3418,2.2677,2.2161,2.1803,2.1302,2.0985,2.1164,2.1865,2.2249,2.2823,3.9032,3.9385,3.9489,3.9351,3.9043,3.8311,3.798,3.7965,3.7849,3.7364,3.6671,3.5943,3.5594,3.5639,3.5639,3.5639,3.5639,3.5639,3.5639,3.5577,3.5549,3.5491,3.5249,3.5035,3.5186,3.5451,3.4394,3.3944,3.4024,3.3427,3.3104,3.3086,3.3042,3.2866,3.2687,3.2795,3.2709,3.2362,3.1809,3.1213,3.0592,2.9765,2.9298,2.9251,2.7866,2.7109,2.6982,2.6387,2.6023,2.6005,2.5955,2.5952,2.5936,2.5582,2.5142,2.4759,2.4438,2.4079,2.3691,2.4148,2.4477,2.4537,2.4593,2.4717,2.472,2.4357,2.4067,2.4041,2.415,2.4171,2.4151,2.457,2.4844,2.4909,2.5406,2.5746,2.5798,2.6242,2.6595,2.6608,2.6896,2.7379,2.73,2.7246,2.7165,2.6824,2.6782,2.6633,2.6277,2.6195,2.6126,2.6189,2.6735,2.7206,2.7141,2.6501,2.5769,2.5236,2.4406,2.4059,2.4075,2.3736,2.328,2.368,2.3171,2.2527,2.1922,2.124,2.0453,2.0355,2.0031,1.9835,2.0869,2.1376,2.1815,3.8238,3.8294,3.8957,3.9011,3.8635,3.8357,3.8023,3.7681,3.784,3.7736,3.7336,3.6494,3.5879,3.5639,3.5639,3.5639,3.5639,3.5639,3.5639,3.5577,3.5594,3.5397,3.511,3.5307,3.5351,3.5094,3.4868,3.4446,3.3739,3.2976,3.2504,3.2283,3.2248,3.2197,3.2074,3.2197,3.2162,3.2003,3.2018,3.1936,3.1579,3.0617,2.973,2.9088,2.8332,2.7689,2.7248,2.6578,2.6203,2.6203,2.6203,2.6063,2.5795,2.5594,2.5214,2.4599,2.4122,2.3955,2.4178,2.4146,2.4285,2.4622,2.4747,2.4718,2.4433,2.4498,2.4466,2.415,2.4112,2.423,2.457,2.4891,2.5105,2.5458,2.5868,2.6206,2.6347,2.6425,2.6627,2.7064,2.6832,2.6701,2.6905,2.6769,2.6483,2.6289,2.622,2.607,2.5861,2.5709,2.5557,2.5557,2.5755,2.5881,2.6077,2.5664,2.5135,2.4819,2.4265,2.3807,2.3795,2.3659,2.3372,2.3361,2.2842,2.2184,2.1375,2.0953,2.0346,1.9974,1.9857,1.9911,2.042,2.0805,2.1376,3.7476,3.7578,3.8535,3.8684,3.8294,3.8206,3.7879,3.7456,3.7855,3.8031,3.7752,3.7236,3.6558,3.5857,3.5588,3.5549,3.5549,3.5532,3.5549,3.5549,3.5487,3.5283,3.4964,3.5369,3.5328,3.488,3.5098,3.4575,3.3277,3.2493,3.1985,3.1714,3.1694,3.164,3.1565,3.164,3.164,3.1565,3.1949,3.2127,3.2004,3.1376,3.0527,2.9573,2.8973,2.8323,2.7484,2.6819,2.6366,2.6184,2.6059,2.5828,2.5556,2.5452,2.5203,2.4724,2.4336,2.4253,2.4648,2.4436,2.4442,2.474,2.4878,2.4755,2.4451,2.4573,2.4523,2.4184,2.4223,2.4549,2.4883,2.5249,2.5628,2.6033,2.644,2.6778,2.687,2.6688,2.6688,2.7121,2.6389,2.5849,2.6139,2.5988,2.5779,2.5652,2.5417,2.5276,2.5217,2.4921,2.4624,2.4624,2.4325,2.4457,2.4898,2.4791,2.4517,2.4184,2.3729,2.3367,2.3498,2.3285,2.3262,2.295,2.2902,2.2417,2.1398,2.0829,2.0465,1.9754,1.9663,2.0008,2.0183,2.0442,2.056,3.6892,3.746,3.8067,3.8294,3.8278,3.8076,3.7674,3.7131,3.8141,3.821,3.774,3.8133,3.7685,3.6329,3.5629,3.5308,3.5354,3.5337,3.5354,3.5388,3.5198,3.5038,3.4925,3.4944,3.5115,3.5296,3.4914,3.4038,3.2882,3.2127,3.1714,3.1694,3.1657,3.1452,3.1223,3.149,3.149,3.1201,3.1528,3.1768,3.1787,3.2022,3.1722,3.087,2.9988,2.8922,2.7923,2.7321,2.6784,2.6234,2.5793,2.5502,2.5486,2.5362,2.5361,2.5426,2.5455,2.5221,2.4798,2.5106,2.5249,2.4952,2.4833,2.4927,2.4682,2.438,2.4157,2.4067,2.4627,2.4992,2.5118,2.5863,2.6478,2.6648,2.7131,2.7339,2.7391,2.6773,2.6714,2.6564,2.5906,2.5334,2.5322,2.5334,2.5052,2.4767,2.4325,2.3818,2.3632,2.335,2.3117,2.3054,2.2905,2.2968,2.4241,2.4024,2.3599,2.3356,2.2966,2.2606,2.2574,2.2585,2.2595,2.2498,2.204,2.1618,2.1157,2.0751,2.0365,1.9972,1.9827,1.9965,1.9751,1.9459,1.9341,3.6754,3.7207,3.7354,3.7413,3.7413,3.7338,3.6951,3.6492,3.7115,3.7504,3.7617,3.7671,3.7392,3.6771,3.5663,3.5217,3.5278,3.5308,3.5274,3.5195,3.5211,3.5085,3.4925,3.4991,3.5041,3.5115,3.5166,3.449,3.3223,3.2389,3.1619,3.1032,3.0925,3.0861,3.0821,3.1123,3.1123,3.0821,3.1266,3.1531,3.1528,3.166,3.1576,3.1227,3.0557,2.9666,2.8694,2.7688,2.7058,2.6839,2.6379,2.5962,2.5722,2.5394,2.5091,2.4806,2.4787,2.4696,2.453,2.4385,2.4422,2.4611,2.4288,2.4137,2.4103,2.4008,2.3878,2.3999,2.4918,2.5449,2.5543,2.6166,2.6831,2.717,2.7259,2.7255,2.6918,2.6208,2.5721,2.5931,2.5346,2.4552,2.3902,2.3537,2.3231,2.3084,2.2542,2.2167,2.1941,2.1649,2.1603,2.1766,2.1375,2.1135,2.2048,2.251,2.2456,2.2381,2.2155,2.2145,2.2101,2.2101,2.2124,2.2188,2.1624,2.1404,2.1238,2.074,2.0329,2.0093,2.0041,1.9414,1.914,1.8744,1.8242,3.6693,3.7011,3.6723,3.6723,3.6845,3.66,3.6305,3.5958,3.6368,3.6845,3.72,3.7439,3.7319,3.6727,3.5873,3.5226,3.4972,3.4919,3.4849,3.4733,3.5008,3.5055,3.4927,3.5008,3.4994,3.488,3.4973,3.4438,3.3496,3.2479,3.1566,3.0882,3.0634,3.0501,3.0526,3.0757,3.0757,3.0617,3.0971,3.1206,3.1223,3.1338,3.1261,3.1055,3.0713,3.0073,2.9149,2.8072,2.7418,2.7142,2.6388,2.5771,2.5398,2.5096,2.4867,2.4689,2.4697,2.4556,2.4408,2.4079,2.397,2.4182,2.3852,2.3603,2.359,2.3688,2.3803,2.4115,2.4957,2.5715,2.5935,2.6427,2.6973,2.7191,2.6973,2.6701,2.6277,2.5264,2.4696,2.4552,2.4276,2.3548,2.2745,2.2371,2.2134,2.1821,2.1354,2.1048,2.0874,2.0575,2.044,2.0827,2.044,2.0294,2.075,2.1135,2.1471,2.1482,2.1873,2.1797,2.1807,2.1807,2.1731,2.1731,2.1669,2.1546,2.1234,2.0673,2.0323,2.0088,1.9404,1.8756,1.836,1.7996,1.7543,3.6554,3.689,3.6321,3.6321,3.6662,3.6054,3.5752,3.5816,3.6196,3.643,3.6662,3.7642,3.7326,3.6476,3.6107,3.5449,3.4377,3.4134,3.4084,3.4005,3.4642,3.4883,3.4835,3.4835,3.4835,3.4818,3.4203,3.3902,3.3715,3.2497,3.1698,3.1374,3.0754,3.0458,3.0401,3.0501,3.0443,3.0443,3.0692,3.0781,3.0845,3.1044,3.1004,3.0666,3.0558,3.0096,2.9132,2.8485,2.7819,2.7162,2.5832,2.4769,2.4693,2.4565,2.4738,2.5109,2.5282,2.5016,2.4524,2.4353,2.3968,2.3734,2.3569,2.345,2.3403,2.3416,2.3583,2.3991,2.4836,2.5523,2.5866,2.6563,2.6989,2.6714,2.6333,2.5975,2.5252,2.4397,2.3463,2.2905,2.2841,2.2542,2.1928,2.169,2.1614,2.1048,2.075,2.045,2.0187,1.9885,1.9825,1.9904,1.9747,1.9599,1.9747,1.9904,2.0304,2.0702,2.1328,2.1645,2.1731,2.1807,2.1558,2.1482,2.0837,2.0738,2.0497,1.9994,1.9707,1.9345,1.8641,1.8105,1.7658,1.7208,1.6788,3.6006,3.6117,3.5782,3.5748,3.591,3.5668,3.5539,3.5539,3.5733,3.6022,3.643,3.6845,3.6695,3.6263,3.5828,3.4893,3.3696,3.3512,3.3603,3.4,3.4578,3.4643,3.4399,3.4349,3.4349,3.4366,3.4525,3.427,3.3743,3.3172,3.2517,3.1594,3.1161,3.0767,3.034,3.0593,3.0675,3.0359,3.0593,3.0699,3.0593,3.0426,3.0326,3.0393,3.0199,2.9783,2.915,2.8543,2.7999,2.7407,2.6603,2.5969,2.5474,2.5067,2.475,2.45,2.452,2.4203,2.3684,2.3573,2.3484,2.3245,2.2871,2.2616,2.2506,2.2261,2.2339,2.2686,2.3406,2.402,2.4434,2.5448,2.6032,2.6057,2.6414,2.5836,2.4469,2.3683,2.2905,2.2176,2.2014,2.17,2.1078,2.0779,2.0148,1.9747,1.9371,1.9054,1.8807,1.8886,1.8825,1.9143,1.8984,1.8825,1.9054,1.9125,1.9283,1.9844,2.0547,2.1088,2.1328,2.1405,2.1165,2.0827,2.0197,1.9875,1.965,1.9367,1.8952,1.8786,1.8364,1.7692,1.6985,1.6451,1.6168,3.5688,3.5688,3.5539,3.5489,3.5489,3.5489,3.5489,3.5489,3.5489,3.5668,3.5943,3.6258,3.6075,3.5784,3.5385,3.4485,3.3347,3.3102,3.311,3.3361,3.3951,3.3969,3.3617,3.3665,3.3815,3.3917,3.4102,3.4023,3.3728,3.3113,3.253,3.1878,3.1199,3.0819,3.0495,3.0558,3.0426,3.0215,3.0452,3.0435,3.007,2.987,2.9705,2.9585,2.9393,2.9028,2.8543,2.8158,2.7849,2.7414,2.6669,2.5756,2.4964,2.4439,2.4137,2.382,2.3728,2.3543,2.3138,2.3138,2.3125,2.3005,2.2494,2.2113,2.199,2.1639,2.1475,2.2076,2.2701,2.3222,2.3816,2.4555,2.5052,2.4767,2.5346,2.4981,2.3463,2.2756,2.2241,2.1634,2.1405,2.0934,2.0167,1.9923,1.9063,1.8754,1.8523,1.8201,1.8112,1.8031,1.8353,1.8434,1.8193,1.8193,1.8282,1.8273,1.8264,1.8895,1.9678,2.0138,2.045,2.045,2.0285,1.9797,1.9237,1.9167,1.893,1.8364,1.792,1.7874,1.7641,1.6871,1.6043,1.5909,1.5564,3.5688,3.5688,3.5554,3.5504,3.5439,3.5439,3.5424,3.5424,3.5424,3.5359,3.5394,3.5767,3.5672,3.507,3.4976,3.4297,3.3206,3.2946,3.2624,3.2333,3.2586,3.2732,3.2729,3.2855,3.3077,3.3323,3.3198,3.3219,3.3387,3.2514,3.1945,3.2069,3.1118,3.0511,3.0658,3.0303,3.0011,2.9826,3.0011,2.9777,2.9166,2.9332,2.9164,2.848,2.8432,2.8192,2.7765,2.7565,2.7414,2.7195,2.5932,2.4667,2.3531,2.3125,2.3258,2.3173,2.3125,2.3065,2.3065,2.2944,2.2884,2.2763,2.2175,2.1978,2.1729,2.1198,2.1124,2.1981,2.2366,2.2856,2.3512,2.4024,2.3756,2.3202,2.361,2.3316,2.2176,2.1949,2.1634,2.1165,2.0857,2.0401,1.939,1.945,1.8975,1.8505,1.8442,1.8362,1.8201,1.8031,1.7959,1.7878,1.7716,1.7554,1.7716,1.7196,1.7107,1.7432,1.8212,1.8603,1.9246,1.9325,1.9,1.8514,1.8106,1.8123,1.7641,1.683,1.6347,1.6183,1.5876,1.5416,1.5289,1.5262,1.5198,3.5554,3.5554,3.5359,3.5279,3.5228,3.5148,3.5082,3.5082,3.5082,3.5082,3.5067,3.5118,3.5118,3.489,3.486,3.4431,3.3638,3.3081,3.2522,3.2005,3.1514,3.1736,3.2038,3.218,3.2266,3.236,3.2579,3.2848,3.287,3.2415,3.2066,3.1706,3.1573,3.0917,3.0017,3.0085,2.9641,2.8905,2.8935,2.8857,2.8622,2.856,2.8575,2.8336,2.824,2.7947,2.7515,2.7137,2.675,2.6312,2.5508,2.4667,2.3839,2.3305,2.3017,2.3065,2.3005,2.2811,2.2494,2.2372,2.2187,2.1628,2.1112,2.0677,2.0602,2.0031,2.0108,2.0732,2.1047,2.1278,2.1753,2.2339,2.2253,2.18,2.2113,2.2446,2.2392,2.209,2.1568,2.1021,2.0459,1.9766,1.9143,1.8754,1.8505,1.8193,1.8193,1.8282,1.804,1.7951,1.7878,1.7635,1.7392,1.7229,1.6894,1.6378,1.6034,1.6034,1.6429,1.674,1.7471,1.7963,1.7471,1.6822,1.6175,1.6018,1.5199,1.4384,1.4307,1.4803,1.4727,1.4664,1.4824,1.4928,1.4964,3.5279,3.5228,3.5148,3.5067,3.5067,3.492,3.4935,3.4935,3.4935,3.4868,3.4802,3.4817,3.475,3.4668,3.4654,3.4155,3.3318,3.2853,3.1994,3.0813,3.0125,3.045,3.1218,3.145,3.1507,3.1736,3.1834,3.2003,3.2099,3.1946,3.1663,3.1525,3.142,3.092,3.0341,2.9834,2.9559,2.8848,2.8552,2.8304,2.8012,2.7947,2.7635,2.7449,2.7297,2.699,2.6371,2.604,2.5742,2.5508,2.512,2.46,2.3708,2.303,2.2665,2.2702,2.2433,2.2063,2.1803,2.1678,2.1491,2.106,2.0484,2.0161,2.002,1.9477,1.9361,2.0286,2.035,2.0535,2.0821,2.1068,2.0971,2.073,2.0672,2.0991,2.168,2.1231,2.0779,2.0235,1.9766,1.9292,1.8674,1.8193,1.8031,1.8031,1.8031,1.7959,1.7797,1.7716,1.7456,1.6968,1.6476,1.6147,1.5643,1.5047,1.4538,1.4538,1.4525,1.4844,1.5418,1.616,1.5764,1.5032,1.4384,1.3815,1.3476,1.3313,1.3808,1.4139,1.4062,1.4146,1.4314,1.4391,1.4518,3.5082,3.4935,3.4868,3.4868,3.4868,3.4868,3.4735,3.4721,3.4654,3.4587,3.4467,3.4481,3.4332,3.4249,3.4167,3.3525,3.2316,3.2151,3.0965,2.9738,2.9008,2.9317,3.0343,3.0404,3.0569,3.0852,3.0732,3.097,3.1116,3.0911,3.1029,3.1113,3.0738,3.0679,3.0477,2.9907,2.9394,2.8961,2.8546,2.8077,2.7616,2.7402,2.6943,2.6229,2.5906,2.5605,2.5078,2.4797,2.4811,2.4838,2.4844,2.4107,2.3075,2.2347,2.2023,2.1901,2.1502,2.1112,2.0933,2.0858,2.0655,2.0344,1.9878,1.9823,1.9488,1.8854,1.8877,1.9855,2.0038,1.9963,2.012,1.9904,1.9502,1.9335,1.9186,1.9265,1.9511,1.9659,1.9511,1.8984,1.8913,1.8514,1.8193,1.787,1.7878,1.7708,1.7708,1.7375,1.7131,1.696,1.6378,1.5628,1.5213,1.4803,1.43,1.3717,1.3203,1.2948,1.2772,1.293,1.3262,1.3685,1.3626,1.3392,1.33,1.313,1.2881,1.3052,1.3385,1.3385,1.3215,1.3555,1.3886,1.388,1.3884,3.4935,3.4854,3.4765,3.475,3.4683,3.4549,3.4167,3.3644,3.3575,3.3589,3.352,3.3506,3.352,3.3451,3.3437,3.2989,3.1979,3.1199,2.9955,2.8866,2.8587,2.862,2.9002,2.9002,2.9066,2.9317,2.9718,2.9917,2.9979,3.0237,3.0447,3.0495,3.0499,3.0411,2.9624,2.9829,2.9444,2.8674,2.8356,2.7992,2.7328,2.683,2.6273,2.5481,2.5007,2.4697,2.457,2.4513,2.4355,2.3995,2.3716,2.306,2.214,2.167,2.136,2.0955,2.0782,2.0386,1.9824,1.9552,1.9156,1.8192,1.8154,1.7877,1.7986,1.7742,1.8008,1.8638,1.8681,1.8551,1.8576,1.7844,1.7602,1.7521,1.7359,1.7277,1.7513,1.8301,1.863,1.8496,1.8103,1.787,1.7554,1.7049,1.7139,1.7383,1.7131,1.6714,1.6378,1.6124,1.5282,1.4357,1.3937,1.3438,1.2674,1.2083,1.166,1.1322,1.1149,1.1322,1.166,1.1918,1.218,1.2443,1.2619,1.2454,1.2203,1.2032,1.2198,1.2283,1.2448,1.2699,1.2948,1.3027,1.276,3.475,3.4668,3.4616,3.4563,3.4481,3.4045,3.3811,3.3589,3.2946,3.2861,3.3073,3.2861,3.272,3.2648,3.2648,3.2277,3.1282,2.9947,2.9016,2.8291,2.7908,2.7537,2.755,2.767,2.7802,2.8312,2.8698,2.8903,2.8967,2.9093,2.9142,2.9205,2.9504,2.9198,2.8705,2.9061,2.8852,2.8377,2.8268,2.7954,2.7256,2.6606,2.5605,2.4589,2.3702,2.3097,2.299,2.2639,2.236,2.198,2.1675,2.1412,2.1035,2.0415,1.9823,1.9259,1.8772,1.8496,1.7997,1.7891,1.7627,1.6908,1.6991,1.6945,1.6863,1.6716,1.6817,1.7191,1.7369,1.7376,1.7577,1.6788,1.6296,1.6131,1.5718,1.5538,1.5906,1.6895,1.7674,1.7448,1.7033,1.678,1.646,1.6131,1.5884,1.5959,1.5876,1.5545,1.513,1.4706,1.3847,1.3087,1.2662,1.2072,1.1133,1.0448,1.0019,0.9763,0.9589,1.0024,1.0458,1.0799,1.1058,1.1408,1.1763,1.1774,1.1607,1.1348,1.1343,1.194,1.2192,1.1929,1.1666,1.1569,1.1047,3.4563,3.4414,3.4264,3.4196,3.4045,3.3297,3.3171,3.3395,3.2448,3.206,3.2563,3.2146,3.1769,3.1683,3.1609,3.1114,2.9977,2.8857,2.7931,2.7773,2.6772,2.6371,2.6358,2.6564,2.6744,2.763,2.7973,2.7986,2.792,2.792,2.8233,2.8038,2.7986,2.8128,2.8034,2.8008,2.8126,2.7982,2.8019,2.7718,2.7045,2.6416,2.5276,2.3485,2.2372,2.1616,2.1365,2.0899,2.0333,1.9944,1.9238,1.9244,1.9244,1.893,1.7889,1.7205,1.6849,1.6549,1.6298,1.6158,1.6191,1.6285,1.6235,1.608,1.5758,1.5583,1.5538,1.5717,1.5871,1.6226,1.6862,1.5959,1.5289,1.5123,1.4378,1.4162,1.4601,1.5569,1.5959,1.6108,1.5696,1.5296,1.5206,1.4963,1.4706,1.4538,1.4455,1.4196,1.3782,1.3269,1.2322,1.1461,1.095,1.0783,0.9927,0.9497,0.8978,0.8544,0.8281,0.8719,0.9157,0.9152,0.9497,1.0549,1.0906,1.0824,1.0646,1.0294,1.0636,1.1585,1.1327,1.0631,1.0284,1.0024,0.9589,3.4414,3.4346,3.3673,3.3297,3.3087,3.2362,3.1709,3.1057,3.0833,3.0758,3.1044,3.0895,3.0493,3.0164,2.9821,2.8847,2.7733,2.7122,2.6919,2.6702,2.5737,2.5229,2.53,2.5667,2.5676,2.5615,2.6389,2.7108,2.7191,2.7498,2.7419,2.763,2.7445,2.7391,2.7445,2.7657,2.7629,2.7603,2.7688,2.7447,2.6733,2.5897,2.4543,2.2519,2.1481,2.0786,2.0279,2.0085,1.9868,1.9159,1.8475,1.7562,1.7069,1.6939,1.6678,1.621,1.5921,1.5443,1.4992,1.496,1.4416,1.3798,1.3974,1.4186,1.4047,1.3919,1.3944,1.3998,1.3955,1.3957,1.4055,1.3789,1.3795,1.3633,1.3457,1.3262,1.3387,1.3568,1.3847,1.3968,1.3833,1.3795,1.3698,1.3432,1.3008,1.2747,1.2747,1.2316,1.1724,1.1295,1.0778,0.9836,0.8973,0.8886,0.8715,0.8627,0.8281,0.758,0.7404,0.7489,0.7753,0.7492,0.8017,0.9253,0.9598,0.9419,0.9244,0.9244,0.9414,0.9932,0.9501,0.9069,0.9074,0.899,0.8811,3.3854,3.3479,3.3101,3.2648,3.206,3.1355,3.1057,3.0833,3.0088,2.9947,3.0088,2.9601,2.8966,2.8627,2.8048,2.7263,2.6618,2.6016,2.589,2.5533,2.4772,2.4192,2.4311,2.4835,2.456,2.4368,2.498,2.5844,2.5988,2.5787,2.6121,2.6283,2.6008,2.5938,2.6389,2.6773,2.6921,2.7002,2.7245,2.7128,2.6353,2.548,2.3704,2.182,2.0676,1.9764,1.8526,1.792,1.7639,1.722,1.6591,1.5991,1.5576,1.5275,1.5112,1.463,1.4545,1.4207,1.3586,1.3571,1.3317,1.2962,1.2994,1.3099,1.29,1.2517,1.2077,1.1809,1.1632,1.1552,1.1895,1.1729,1.1466,1.1386,1.1219,1.1016,1.0984,1.093,1.1262,1.1582,1.1787,1.1901,1.2072,1.1643,1.1133,1.0961,1.1042,1.0524,0.9923,0.9575,0.9314,0.8448,0.7669,0.7492,0.7492,0.7492,0.7492,0.6877,0.6615,0.6704,0.6704,0.6704,0.7241,0.8212,0.8296,0.7834,0.8544,0.8807,0.8632,0.8456,0.8456,0.846,0.8208,0.7948,0.7499,3.3297,3.2704,3.2318,3.1796,3.1106,3.0304,3.0304,3.0506,2.9225,2.8924,2.9369,2.798,2.7012,2.6685,2.6052,2.5467,2.5283,2.4505,2.4526,2.4334,2.3414,2.2903,2.315,2.3497,2.3317,2.2264,2.3356,2.4135,2.455,2.4325,2.442,2.4552,2.4181,2.4264,2.5075,2.5627,2.5918,2.6333,2.6445,2.6364,2.5399,2.4283,2.2684,2.0546,1.973,1.8556,1.7183,1.6617,1.6197,1.5893,1.5324,1.4885,1.4651,1.4199,1.36,1.2986,1.2943,1.2777,1.2378,1.2332,1.2339,1.1864,1.2165,1.1995,1.1492,1.0768,1.0269,0.9566,0.9479,0.974,1.0086,0.974,0.9566,0.9396,0.9052,0.8615,0.8935,0.903,0.9235,0.9575,0.9836,1.0091,1.0265,1.0269,0.984,0.9753,0.9749,0.9226,0.8707,0.8448,0.8013,0.7139,0.6526,0.6174,0.6174,0.626,0.6349,0.6263,0.6088,0.6177,0.618,0.618,0.6713,0.6979,0.6425,0.6236,0.7217,0.7845,0.7503,0.7418,0.7764,0.768,0.716,0.6352,0.563,3.2775,3.2547,3.1132,3.038,3.0063,2.9094,2.8736,2.8712,2.7637,2.7209,2.7394,2.5876,2.4682,2.3821,2.3199,2.2283,2.1884,2.2289,2.2708,2.2685,2.1706,2.0988,2.1161,2.1942,2.1208,2.0314,2.1395,2.2649,2.2947,2.2936,2.3084,2.3158,2.3158,2.3475,2.4036,2.4397,2.4696,2.5146,2.4838,2.3918,2.2657,2.1933,2.0655,1.9216,1.8313,1.7651,1.6602,1.6146,1.5946,1.5451,1.5407,1.4766,1.3889,1.3512,1.2955,1.2574,1.2606,1.2842,1.1938,1.1688,1.137,1.0695,1.0384,0.9803,0.9401,0.9148,0.8803,0.8715,0.854,0.8536,0.8619,0.8627,0.8627,0.854,0.8189,0.8201,0.8285,0.7731,0.7845,0.776,0.8181,0.8356,0.8532,0.8536,0.8627,0.854,0.8368,0.7929,0.7577,0.7316,0.7143,0.6441,0.5997,0.5641,0.5374,0.5377,0.5374,0.5463,0.5649,0.5652,0.5287,0.5198,0.5203,0.5287,0.465,0.4014,0.4188,0.4819,0.5649,0.5733,0.5354,0.5636,0.5933,0.4938,0.3578,3.0657,3.0594,2.9922,2.9328,2.8712,2.7742,2.7325,2.7162,2.6307,2.5587,2.5019,2.4108,2.263,2.1212,2.0971,2.0492,1.9834,2.0156,2.0677,2.069,1.9781,1.8779,1.8356,1.9091,1.8914,1.8355,1.8276,1.8858,1.9955,2.1171,2.1552,2.1511,2.1618,2.1931,2.2744,2.322,2.361,2.3841,2.361,2.2914,2.1943,2.1251,2.018,1.7973,1.7643,1.675,1.5721,1.4964,1.4724,1.4265,1.4109,1.3657,1.3213,1.3124,1.282,1.2386,1.2591,1.2359,1.1539,1.1079,1.0349,0.9876,0.9278,0.8703,0.8009,0.7661,0.7404,0.6966,0.6877,0.6962,0.6966,0.6966,0.6877,0.6966,0.7228,0.7143,0.7064,0.6884,0.67,0.6526,0.6523,0.6694,0.6868,0.6868,0.6956,0.7139,0.7051,0.6789,0.6526,0.6352,0.6177,0.5916,0.5644,0.5371,0.5015,0.4837,0.4565,0.4746,0.5297,0.5116,0.4125,0.3946,0.3406,0.3045,0.2502,0.1875,0.134,0.1876,0.2769,0.2769,0.268,0.2591,0.2413,0.2324,0.0892,2.8858,2.8621,2.8791,2.8486,2.78,2.6928,2.6389,2.6119,2.502,2.3947,2.2862,2.1752,2.0073,1.8632,1.8525,1.8206,1.7509,1.7993,1.8286,1.8196,1.7614,1.653,1.6001,1.637,1.6696,1.6347,1.618,1.6424,1.7365,1.8594,1.9515,1.979,1.9847,2.0314,2.0988,2.1521,2.1845,2.192,2.192,2.1141,2.011,1.9955,1.8503,1.7096,1.6198,1.5738,1.4402,1.3829,1.3507,1.3434,1.3218,1.3003,1.28,1.2754,1.2475,1.2037,1.19,1.1406,1.0833,1.0341,0.9767,0.9065,0.8364,0.7397,0.6956,0.6694,0.6612,0.6,0.5911,0.5822,0.5733,0.5822,0.5911,0.5997,0.5911,0.5733,0.5644,0.5727,0.5813,0.5813,0.5633,0.5277,0.5364,0.5188,0.528,0.5641,0.5644,0.5555,0.5463,0.5374,0.5015,0.4748,0.4385,0.4111,0.3844,0.3667,0.3578,0.3489,0.4123,0.3855,0.2416,0.1162,0.0268,0.0089,-0.0089,-0.0893,-0.1873,-0.0981,-0.0178,-0.0624,-0.107,-0.1426,-0.1515,-0.1427,-0.1873,2.803,2.7383,2.78,2.7881,2.7719,2.6857,2.6047,2.5135,2.3527,2.2221,2.0953,1.8907,1.7088,1.5981,1.5833,1.5584,1.4701,1.5356,1.5814,1.5712,1.5115,1.4525,1.4102,1.3988,1.4321,1.4713,1.474,1.483,1.5123,1.6257,1.7317,1.806,1.8043,1.8665,1.9034,1.9321,1.9565,1.9565,1.9487,1.8461,1.7114,1.639,1.5546,1.4323,1.3749,1.3594,1.3497,1.3168,1.3052,1.3052,1.2692,1.2361,1.1985,1.1923,1.1547,1.1052,1.0549,1.0115,0.9685,0.9515,0.8894,0.7658,0.6694,0.626,0.6083,0.5908,0.5735,0.5735,0.5735,0.5735,0.5735,0.5735,0.5738,0.5557,0.5377,0.5013,0.5013,0.5013,0.5099,0.5099,0.4741,0.4204,0.3848,0.3669,0.4024,0.4383,0.4563,0.4472,0.4474,0.4295,0.3757,0.331,0.286,0.25,0.2142,0.1964,0.1786,0.1249,0.125,0.0803,-0.0089,-0.1339,-0.2772,-0.3038,-0.3304,-0.42,-0.4559,-0.3392,-0.2945,-0.402,-0.4556,-0.4103,-0.4543,-0.4898,-0.5351,2.7464,2.7149,2.6775,2.6599,2.6423,2.433,2.3355,2.2824,2.1087,1.9654,1.8456,1.6539,1.5242,1.4669,1.4835,1.4472,1.3731,1.4302,1.4381,1.4235,1.3873,1.314,1.2705,1.2632,1.3105,1.3281,1.3594,1.3853,1.3971,1.4364,1.4266,1.4928,1.5838,1.6324,1.6619,1.6928,1.7171,1.709,1.692,1.6032,1.5403,1.4406,1.3827,1.3105,1.206,1.2157,1.2322,1.1638,1.1655,1.166,1.1225,1.0875,1.0621,1.0366,1.0019,0.9767,0.924,0.8807,0.8368,0.8197,0.758,0.6612,0.5908,0.5735,0.5735,0.5733,0.5733,0.5735,0.5741,0.5654,0.5652,0.5657,0.566,0.5476,0.502,0.4474,0.4202,0.4113,0.3846,0.3666,0.322,0.2684,0.2416,0.2237,0.2683,0.3129,0.3307,0.3395,0.3127,0.2681,0.1965,0.1429,0.0981,0.0089,-0.0268,-0.0268,-0.0178,-0.0713,-0.1338,-0.1784,-0.2409,-0.4293,-0.5557,-0.5913,-0.5727,-0.5633,-0.545,-0.5186,-0.5366,-0.5725,-0.5899,-0.5805,-0.6694,-0.776,-0.8032,2.7126,2.6622,2.5473,2.5115,2.5031,2.2766,2.1364,2.0549,1.8932,1.7095,1.5501,1.437,1.3619,1.3414,1.3199,1.3031,1.2216,1.2252,1.2537,1.2383,1.2032,1.1386,1.1112,1.1289,1.1837,1.1837,1.2077,1.2334,1.2619,1.251,1.2419,1.2577,1.3153,1.3562,1.4246,1.44,1.4802,1.4719,1.4552,1.4052,1.349,1.2711,1.1946,1.1375,1.0418,1.0154,1.0245,0.9812,0.9643,0.9653,0.9396,0.896,0.8703,0.8532,0.8356,0.8181,0.8009,0.7661,0.7224,0.67,0.6438,0.5911,0.5733,0.5735,0.5738,0.5738,0.5741,0.5744,0.5657,0.5387,0.4933,0.4119,0.4123,0.3758,0.3578,0.3127,0.2949,0.286,0.2415,0.2147,0.179,0.179,0.0805,0.0626,0.1073,0.1608,0.2146,0.1876,0.1071,0.0446,-0.0536,-0.0803,-0.107,-0.1964,-0.2952,-0.25,-0.214,-0.2409,-0.3034,-0.366,-0.4648,-0.6278,-0.6999,-0.6713,-0.6435,-0.6432,-0.6254,-0.6074,-0.6438,-0.6802,-0.6969,-0.7132,-0.8002,-0.8886,-0.9144,2.6764,2.5641,2.3872,2.3594,2.3947,2.2591,2.081,1.8899,1.7145,1.4994,1.3006,1.2533,1.2058,1.138,1.117,1.0642,1.0152,0.9701,0.9899,1.071,1.0043,0.8978,0.9061,0.9584,1.0371,1.0443,1.0519,1.0697,1.0977,1.1128,1.0788,1.0269,1.0331,1.0838,1.1895,1.2072,1.2072,1.2066,1.2054,1.1547,1.1123,1.0418,0.973,0.9305,0.8428,0.8162,0.8249,0.8074,0.7903,0.8082,0.7906,0.7735,0.7643,0.7555,0.7555,0.7555,0.7037,0.6779,0.6691,0.608,0.5552,0.5646,0.5741,0.5741,0.5654,0.5568,0.5206,0.4757,0.5032,0.4034,0.2861,0.1607,0.1966,0.1967,0.1787,0.1429,0.1161,0.0983,0.0536,-0.0089,0.0715,0.1164,-0.0269,-0.0985,-0.0537,-0.0,0.0805,0.0447,-0.0803,-0.1517,-0.2322,-0.25,-0.2587,-0.3303,-0.4022,-0.4198,-0.4107,-0.4287,-0.4645,-0.5181,-0.545,-0.6171,-0.6707,-0.6966,-0.6966,-0.6786,-0.6874,-0.7051,-0.7584,-0.8113,-0.8285,-0.8536,-0.9401,-1.0009,-1.0356,2.5452,2.3872,2.2572,2.1496,2.0569,1.9372,1.8103,1.6685,1.4613,1.3,1.2145,1.1765,1.1086,1.0498,0.996,0.9497,0.8828,0.8679,0.9088,0.9134,0.8277,0.7267,0.7088,0.7815,0.8707,0.8694,0.8777,0.8956,0.8869,0.903,0.869,0.8086,0.7819,0.8169,0.8943,0.9205,0.9205,0.9118,0.8943,0.869,0.8782,0.8082,0.765,0.7654,0.6773,0.6331,0.6593,0.6328,0.6239,0.6593,0.6505,0.6416,0.6416,0.6328,0.6062,0.5974,0.563,0.5272,0.4643,0.4022,0.4206,0.4842,0.5476,0.5384,0.5649,0.4393,0.3767,0.305,0.2957,0.2148,0.1788,0.0179,-0.009,-0.0269,-0.0537,-0.1074,-0.1343,-0.1521,-0.1878,-0.259,-0.2321,-0.1964,-0.2681,-0.2865,-0.2505,-0.2594,-0.1968,-0.2058,-0.3044,-0.3217,-0.3662,-0.3751,-0.3929,-0.4465,-0.4914,-0.5198,-0.5544,-0.5714,-0.598,-0.6425,-0.6605,-0.6432,-0.6697,-0.7054,-0.7143,-0.7139,-0.7489,-0.7925,-0.8886,-0.941,-0.941,-0.9492,-1.0096,-1.0961,-1.1918,2.369,2.2202,2.0962,1.9521,1.7987,1.7102,1.5826,1.4028,1.231,1.1419,1.089,1.0356,0.9858,0.9255,0.8773,0.8357,0.7519,0.7121,0.7119,0.7234,0.6946,0.6045,0.5863,0.6304,0.7027,0.7115,0.7291,0.7383,0.7386,0.6675,0.6051,0.5609,0.5531,0.5432,0.5957,0.6398,0.7288,0.72,0.6936,0.7027,0.676,0.6233,0.5888,0.5802,0.5179,0.4289,0.4736,0.465,0.4383,0.4914,0.5006,0.4917,0.4919,0.4919,0.4743,0.4743,0.4383,0.3846,0.286,0.2324,0.2416,0.2598,0.3859,0.4034,0.3666,0.2235,0.0894,0.0268,0.0089,-0.0357,-0.0893,-0.2327,-0.2239,-0.233,-0.2418,-0.2865,-0.3044,-0.313,-0.3309,-0.4109,-0.4376,-0.4378,-0.4467,-0.4656,-0.448,-0.4752,-0.5025,-0.5037,-0.4862,-0.4839,-0.4926,-0.5112,-0.5188,-0.5625,-0.6008,-0.623,-0.657,-0.7058,-0.7153,-0.717,-0.7051,-0.6874,-0.6962,-0.7228,-0.7489,-0.7837,-0.8273,-0.8794,-0.9579,-1.0106,-1.0279,-1.0534,-1.0794,-1.166,-1.2699,2.1743,2.0613,1.8959,1.7494,1.6411,1.5591,1.3667,1.1062,1.0863,1.0202,0.9125,0.8619,0.8225,0.7743,0.6588,0.6127,0.5961,0.5373,0.5201,0.5129,0.5361,0.4912,0.5001,0.5359,0.5714,0.5894,0.5983,0.6157,0.6163,0.5351,0.419,0.3212,0.357,0.3303,0.3479,0.4279,0.5169,0.4989,0.508,0.5078,0.4632,0.4192,0.4287,0.4109,0.3307,0.2683,0.2772,0.2594,0.2505,0.2773,0.2955,0.3403,0.3851,0.4208,0.4208,0.3939,0.34,0.2325,0.1431,0.0984,0.0089,0.009,0.1074,0.0715,-0.0,-0.0804,-0.1876,-0.268,-0.2945,-0.3751,-0.4652,-0.4472,-0.4293,-0.4113,-0.3933,-0.4111,-0.4289,-0.4378,-0.4378,-0.4734,-0.4823,-0.4912,-0.509,-0.5277,-0.5744,-0.5981,-0.6096,-0.6247,-0.6042,-0.5836,-0.6022,-0.6508,-0.6662,-0.6789,-0.6999,-0.6949,-0.6936,-0.7146,-0.7207,-0.7224,-0.7187,-0.7228,-0.7489,-0.7753,-0.8189,-0.8623,-0.9318,-0.9749,-1.0096,-1.0621,-1.1402,-1.123,-1.1402,-1.218,-1.296,2.0344,1.8648,1.6757,1.5249,1.4054,1.2373,1.1234,1.0849,1.0072,0.9125,0.8337,0.8095,0.7416,0.6461,0.6021,0.5465,0.5027,0.4608,0.4557,0.451,0.4565,0.4476,0.4565,0.4654,0.4743,0.4743,0.4921,0.5099,0.4741,0.4022,0.3037,0.2056,0.2055,0.1699,0.1788,0.2324,0.25,0.2768,0.3035,0.2946,0.2768,0.2323,0.2593,0.2325,0.1878,0.1522,0.1522,0.1432,0.1522,0.17,0.1791,0.2059,0.2148,0.2236,0.2236,0.2147,0.1431,0.0627,0.0269,-0.0358,-0.1165,-0.1882,-0.0985,-0.1703,-0.2869,-0.3857,-0.4565,-0.4823,-0.4912,-0.5275,-0.5275,-0.5095,-0.5095,-0.5003,-0.4823,-0.5001,-0.509,-0.5359,-0.5447,-0.5714,-0.5802,-0.5802,-0.598,-0.616,-0.6554,-0.6924,-0.7194,-0.7349,-0.7178,-0.6947,-0.6715,-0.7215,-0.7337,-0.7371,-0.7241,-0.7177,-0.7078,-0.716,-0.7403,-0.7603,-0.7443,-0.7577,-0.7929,-0.8452,-0.9148,-0.9845,-1.0626,-1.1052,-1.13,-1.2254,-1.3039,-1.2443,-1.2186,-1.2954,-1.347,1.8226,1.68,1.4807,1.3187,1.1833,1.0334,0.9776,0.9668,0.8846,0.8122,0.7781,0.7184,0.6537,0.5757,0.5325,0.4928,0.4474,0.4462,0.434,0.4318,0.4297,0.4297,0.4297,0.4297,0.4387,0.4297,0.4297,0.4476,0.3941,0.3224,0.2239,0.0358,0.0537,0.0537,0.0358,0.0179,0.0179,0.0537,0.0895,0.0985,0.0985,0.0806,0.0985,0.1074,0.0716,0.0448,0.0716,0.0627,0.0448,0.0717,0.0806,0.1074,0.1253,0.1431,0.1074,0.0985,0.0538,-0.009,-0.0538,-0.0987,-0.1882,-0.2419,-0.2419,-0.3141,-0.3952,-0.494,-0.546,-0.5888,-0.5894,-0.5899,-0.5628,-0.5445,-0.5447,-0.5447,-0.5625,-0.5714,-0.5983,-0.6251,-0.652,-0.6874,-0.6962,-0.6962,-0.7051,-0.7231,-0.7563,-0.8083,-0.8615,-0.8909,-0.8602,-0.8022,-0.7601,-0.7526,-0.7608,-0.7596,-0.7556,-0.7786,-0.779,-0.8078,-0.8585,-0.8585,-0.814,-0.8364,-0.9061,-0.9671,-1.0193,-1.1058,-1.1918,-1.2431,-1.2851,-1.3717,-1.4391,-1.4126,-1.3782,-1.388,-1.4223,1.5791,1.5107,1.3094,1.1268,0.9767,0.922,0.8615,0.7902,0.7444,0.7185,0.7015,0.5924,0.538,0.4994,0.4576,0.4474,0.4338,0.432,0.432,0.4297,0.4297,0.4297,0.4297,0.4297,0.4297,0.4297,0.4208,0.403,0.3671,0.2597,0.0806,-0.1256,-0.0628,-0.0538,-0.1076,-0.1255,-0.1345,-0.1433,-0.0626,-0.0089,-0.0358,-0.0179,0.009,0.0179,-0.0626,-0.1433,-0.0806,-0.0806,-0.1076,-0.0448,-0.0,0.0358,0.0627,0.0895,0.0448,0.0179,-0.0269,-0.0628,-0.0987,-0.1346,-0.2061,-0.2688,-0.2956,-0.3944,-0.4933,-0.5292,-0.5719,-0.6425,-0.652,-0.652,-0.6337,-0.6337,-0.6337,-0.6337,-0.6425,-0.6425,-0.6605,-0.6697,-0.6874,-0.7228,-0.7577,-0.7577,-0.7837,-0.8021,-0.8794,-0.9397,-0.9666,-1.0099,-1.0076,-0.9296,-0.8986,-0.8509,-0.8663,-0.8796,-0.8843,-0.8899,-0.8714,-0.9013,-0.9664,-0.9632,-0.9082,-0.9579,-1.0361,-1.0971,-1.1666,-1.2431,-1.3203,-1.3535,-1.4035,-1.5047,-1.5553,-1.5786,-1.5621,-1.5387,-1.4977,1.4199,1.3785,1.093,0.9051,0.8037,0.7703,0.7279,0.6563,0.5852,0.566,0.5636,0.4851,0.4232,0.4045,0.3967,0.3871,0.4218,0.4119,0.4297,0.421,0.421,0.4119,0.4208,0.4119,0.4208,0.4297,0.4119,0.3312,0.2058,0.0896,-0.0179,-0.1795,-0.1615,-0.1883,-0.2063,-0.2242,-0.2599,-0.3044,-0.2684,-0.2145,-0.2416,-0.2594,-0.2504,-0.2858,-0.3755,-0.3309,-0.2772,-0.2505,-0.206,-0.1345,-0.1076,-0.0896,-0.0806,-0.0717,-0.0807,-0.0987,-0.0987,-0.1166,-0.1435,-0.1704,-0.2419,-0.3223,-0.3848,-0.483,-0.5455,-0.545,-0.5805,-0.6605,-0.7139,-0.7139,-0.7139,-0.7139,-0.7139,-0.7139,-0.7139,-0.7139,-0.7139,-0.7228,-0.7228,-0.7577,-0.8017,-0.8364,-0.8623,-0.9104,-0.9897,-1.0252,-1.0418,-1.0751,-1.1071,-1.0861,-1.095,-1.0538,-1.0386,-1.0361,-1.021,-1.0143,-1.0017,-0.9989,-1.0435,-1.04,-1.0188,-1.0794,-1.1574,-1.2357,-1.3137,-1.347,-1.3795,-1.4287,-1.4956,-1.5966,-1.6542,-1.6609,-1.7123,-1.7131,-1.6386,1.2809,1.1896,0.9741,0.7886,0.6799,0.6551,0.6071,0.5267,0.4469,0.4115,0.4202,0.3758,0.3405,0.3315,0.3315,0.3405,0.3673,0.3673,0.3583,0.3673,0.3673,0.3583,0.3673,0.3671,0.3314,0.3312,0.2773,0.1788,0.0447,-0.0179,-0.0986,-0.2154,-0.2511,-0.2778,-0.2868,-0.3224,-0.3758,-0.4378,-0.4378,-0.4469,-0.4469,-0.4467,-0.4198,-0.4823,-0.4821,-0.4554,-0.4376,-0.3931,-0.3309,-0.2418,-0.1883,-0.1972,-0.1792,-0.1524,-0.1345,-0.1346,-0.1436,-0.1614,-0.1882,-0.2329,-0.2953,-0.3935,-0.4648,-0.563,-0.6523,-0.652,-0.6337,-0.7051,-0.7139,-0.7139,-0.7143,-0.7143,-0.7323,-0.7323,-0.7411,-0.7499,-0.776,-0.7929,-0.8017,-0.8281,-0.8798,-0.9575,-0.9749,-1.0009,-1.0819,-1.1679,-1.1739,-1.2104,-1.2355,-1.2304,-1.2378,-1.2382,-1.196,-1.1393,-1.0917,-1.1034,-1.1257,-1.1316,-1.1521,-1.1746,-1.1923,-1.2266,-1.2875,-1.3222,-1.3561,-1.3808,-1.4216,-1.4629,-1.5621,-1.6617,-1.7115,-1.735,-1.7951,-1.8451,-1.7781,1.1168,0.9629,0.8516,0.7132,0.5628,0.5542,0.5003,0.4111,0.3312,0.2868,0.2777,0.2777,0.2689,0.2778,0.2867,0.2867,0.2956,0.3135,0.3045,0.2956,0.2865,0.2865,0.2776,0.2597,0.2238,0.17,0.1073,0.0358,-0.0537,-0.0985,-0.1613,-0.2333,-0.3047,-0.3667,-0.4024,-0.4736,-0.5359,-0.5536,-0.5714,-0.6157,-0.6154,-0.5885,-0.562,-0.544,-0.5442,-0.5354,-0.5354,-0.5087,-0.4643,-0.3844,-0.3044,-0.3042,-0.3041,-0.2773,-0.2238,-0.2149,-0.2327,-0.2506,-0.2596,-0.3042,-0.4111,-0.5181,-0.5628,-0.6251,-0.7143,-0.7411,-0.7228,-0.7136,-0.7228,-0.7139,-0.7231,-0.7323,-0.7415,-0.7507,-0.768,-0.7856,-0.8113,-0.8456,-0.8632,-0.8803,-0.9666,-1.0529,-1.0956,-1.1128,-1.183,-1.2709,-1.3254,-1.3798,-1.4025,-1.3679,-1.3591,-1.3434,-1.3021,-1.2423,-1.1995,-1.2123,-1.248,-1.273,-1.2946,-1.3335,-1.3574,-1.3398,-1.3307,-1.3476,-1.373,-1.4062,-1.4391,-1.4803,-1.5959,-1.7107,-1.7513,-1.7836,-1.8487,-1.8904,-1.8745,0.8285,0.6548,0.6346,0.5625,0.4645,0.4556,0.4024,0.3224,0.2956,0.251,0.1883,0.1794,0.1884,0.2333,0.2778,0.2868,0.2688,0.2688,0.2867,0.2867,0.2149,0.2058,0.179,0.1253,0.1074,0.0537,-0.0089,-0.0626,-0.1521,-0.1971,-0.2422,-0.2962,-0.3851,-0.4295,-0.4387,-0.5275,-0.6163,-0.6517,-0.6871,-0.7228,-0.758,-0.7401,-0.7129,-0.7309,-0.7757,-0.7224,-0.6779,-0.6511,-0.5711,-0.4999,-0.4465,-0.4376,-0.4198,-0.4018,-0.3484,-0.3038,-0.3306,-0.3307,-0.3486,-0.402,-0.5176,-0.5622,-0.6068,-0.6779,-0.7404,-0.7764,-0.758,-0.7573,-0.7485,-0.7228,-0.7231,-0.7411,-0.7591,-0.7683,-0.7771,-0.794,-0.8201,-0.846,-0.8723,-0.9497,-1.0438,-1.13,-1.2072,-1.2431,-1.3162,-1.3774,-1.3928,-1.4315,-1.4421,-1.4528,-1.4643,-1.432,-1.3924,-1.433,-1.4287,-1.363,-1.3873,-1.4038,-1.4112,-1.4011,-1.3946,-1.401,-1.3997,-1.4068,-1.4153,-1.4405,-1.4734,-1.5304,-1.6206,-1.735,-1.7674,-1.8158,-1.8886,-1.9213,-1.9054]},{"header":{"parameterUnit":"m.s-1","parameterCategory":1,"la1":31.0,"la2":29.5877,"lo1":-88.7671,"lo2":-86.6584,"dy":0.0162,"dx":0.0185,"nx":115,"ny":88,"refTime":"2024-08-07T18:00:00:Z","depth":0,"parameterNumber":3,"parameterNumberName":"V-component_of_WINDS"},"data":[0.0,0.0,0.0,0.0,0.0,0.0,0.0,0.0,0.0,0.0,0.0,0.0,0.0,0.0,0.0,0.0,0.0,0.0,0.0,0.0,0.0,0.0,0.0,0.0,0.0,0.0,0.0,0.0,0.0,0.0,0.0,0.0,0.0,0.0,0.0,0.0,0.0,0.0,0.0,0.0,0.0,0.0,0.0,0.0,0.0,0.0,0.0,0.0,0.0,0.0,0.0,0.0,0.0,0.0,0.0,0.0,0.0,0.0,0.0,0.0,0.0,0.0,0.0,0.0,0.0,0.0,0.0,0.0,0.0,0.0,0.0,0.0,0.0,0.0,0.0,0.0,0.0,0.0,0.0,0.0,0.0,0.0,0.0,0.0,0.0,0.0,0.0,0.0,0.0,0.0,0.0,0.0,0.0,0.0,0.0,0.0,0.0,0.0,0.0,0.0,0.0,0.0,0.0,0.0,0.0,0.0,0.0,0.0,0.0,0.0,0.0,0.0,0.0,0.0,0.0,0.0,0.0,0.0,0.0,0.0,0.0,0.0,0.0,0.0,0.0,0.0,0.0,0.0,0.0,0.0,0.0,0.0,0.0,0.0,0.0,0.0,0.0,0.0,0.0,0.0,0.0,0.0,0.0,0.0,0.0,0.0,0.0,0.0,0.0,0.0,0.0,0.0,0.0,0.0,0.0,0.0,0.0,0.0,0.0,0.0,0.0,0.0,0.0,0.0,0.0,0.0,0.0,0.0,0.0,0.0,0.0,0.0,0.0,0.0,0.0,0.0,0.0,0.0,0.0,0.0,0.0,0.0,0.0,0.0,0.0,0.0,0.0,0.0,0.0,0.0,0.0,0.0,0.0,0.0,0.0,0.0,0.0,0.0,0.0,0.0,0.0,0.0,0.0,0.0,0.0,0.0,0.0,0.0,0.0,0.0,0.0,0.0,0.0,0.0,0.0,0.0,0.0,0.0,0.0,0.0,0.0,0.0,0.0,0.0,0.0,0.0,0.0,0.0,0.0,0.0,0.0,0.0,0.0,0.0,0.0,0.0,0.0,0.0,0.0,0.0,0.0,0.0,0.0,0.0,0.0,0.0,0.0,0.0,0.0,0.0,0.0,0.0,0.0,0.0,0.0,0.0,0.0,0.0,0.0,0.0,0.0,0.0,0.0,0.0,0.0,0.0,0.0,0.0,0.0,0.0,0.0,0.0,0.0,0.0,0.0,0.0,0.0,0.0,0.0,0.0,0.0,0.0,0.0,0.0,0.0,0.0,0.0,0.0,0.0,0.0,0.0,0.0,0.0,0.0,0.0,0.0,0.0,0.0,0.0,0.0,0.0,0.0,0.0,0.0,0.0,0.0,0.0,0.0,0.0,0.0,0.0,0.0,0.0,0.0,0.0,0.0,0.0,0.0,0.0,0.0,0.0,0.0,0.0,0.0,0.0,0.0,0.0,0.0,0.0,0.0,0.0,0.0,0.0,0.0,0.0,0.0,0.0,0.0,0.0,0.0,0.0,0.0,0.0,0.0,0.0,0.0,0.0,0.0,0.0,0.0,0.0,0.0,0.0,0.0,0.0,0.0,0.0,0.0,0.0,0.0,0.0,0.0,0.0,0.0,0.0,0.0,0.0,0.0,0.0,0.0,0.0,0.0,0.0,0.0,0.0,0.0,0.0,0.0,0.0,0.0,0.0,0.0,0.0,0.0,0.0,0.0,0.0,0.0,0.0,0.0,0.0,0.0,0.0,0.0,0.0,0.0,0.0,0.0,0.0,0.0,0.0,0.0,0.0,0.0,0.0,0.0,0.0,0.0,0.0,0.0,0.0,0.0,0.0,0.0,0.0,0.0,0.0,0.0,0.0,0.0,0.0,0.0,0.0,0.0,0.0,0.0,0.0,0.0,0.0,0.0,0.0,0.0,0.0,0.0,0.0,0.0,0.0,0.0,0.0,0.0,0.0,0.0,0.0,0.0,0.0,0.0,0.0,0.0,0.0,0.0,0.0,0.0,0.0,0.0,0.0,0.0,0.0,0.0,0.0,0.0,0.0,0.0,0.0,0.0,0.0,0.0,0.0,0.0,0.0,0.0,0.0,0.0,0.0,0.0,0.0,0.0,0.0,0.0,0.0,0.0,0.0,0.0,0.0,0.0,0.0,0.0,0.0,0.0,0.0,0.0,0.0,0.0,0.0,0.0,0.0,0.0,0.0,0.0,0.0,0.0,0.0,0.0,0.0,0.0,0.0,0.0,0.0,0.0,0.0,0.0,0.0,0.0,0.0,0.0,0.0,0.0,0.0,0.0,0.0,0.0,0.0,0.0,0.0,0.0,0.0,0.0,0.0,0.0,0.0,0.0,0.0,0.0,0.0,0.0,0.0,0.0,0.0,0.0,0.0,0.0,0.0,0.0,0.0,0.0,0.0,0.0,0.0,0.0,0.0,0.0,0.0,0.0,0.0,0.0,0.0,0.0,0.0,0.0,0.0,0.0,0.0,0.0,0.0,0.0,0.0,0.0,0.0,0.0,0.0,0.0,0.0,0.0,0.0,0.0,0.0,0.0,0.0,0.0,0.0,0.0,0.0,0.0,0.0,0.0,0.0,0.0,0.0,0.0,0.0,0.0,0.0,0.0,0.0,0.0,0.0,0.0,0.0,0.0,0.0,0.0,0.0,0.0,0.0,0.0,0.0,0.0,0.0,0.0,0.0,0.0,0.0,0.0,0.0,0.0,0.0,0.0,0.0,0.0,0.0,0.0,0.0,0.0,0.0,0.0,0.0,0.0,0.0,0.0,0.0,0.0,0.0,0.0,0.0,0.0,0.0,0.0,0.0,0.0,0.0,0.0,0.0,0.0,0.0,0.0,0.0,0.0,0.0,0.0,0.0,0.0,0.0,0.0,0.0,0.0,0.0,0.0,0.0,0.0,0.0,0.0,0.0,0.0,0.0,0.0,0.0,0.0,0.0,0.0,0.0,0.0,0.0,0.0,0.0,0.0,0.0,0.0,0.0,0.0,0.0,0.0,0.0,0.0,0.0,0.0,0.0,0.0,0.0,0.0,0.0,0.0,0.0,0.0,0.0,0.0,0.0,0.0,0.0,0.0,0.0,0.0,0.0,0.0,0.0,0.0,0.0,0.0,0.0,0.0,0.0,0.0,0.0,0.0,0.0,0.0,0.0,0.0,0.0,0.0,0.0,0.0,0.0,0.0,0.0,0.0,0.0,0.0,0.0,0.0,0.0,0.0,0.0,0.0,0.0,0.0,0.0,0.0,0.0,0.0,0.0,0.0,0.0,0.0,0.0,0.0,0.0,0.0,0.0,0.0,0.0,0.0,0.0,0.0,0.0,0.0,0.0,0.0,0.0,0.0,0.0,0.0,0.0,0.0,0.0,0.0,0.0,0.0,0.0,0.0,0.0,0.0,0.0,0.0,0.0,0.0,0.0,0.0,0.0,0.0,0.0,0.0,0.0,0.0,0.0,0.0,0.0,0.0,0.0,0.0,0.0,0.0,0.0,0.0,0.0,0.0,0.0,0.0,0.0,0.0,0.0,0.0,0.0,0.0,0.0,0.0,0.0,0.0,0.0,0.0,0.0,0.0,0.0,0.0,0.0,0.0,0.0,0.0,0.0,0.0,0.0,0.0,0.0,0.0,0.0,0.0,0.0,0.0,0.0,0.0,0.0,0.0,0.0,0.0,0.0,0.0,0.0,0.0,0.0,0.0,0.0,0.0,0.0,0.0,0.0,0.0,0.0,0.0,0.0,0.0,0.0,0.0,0.0,0.0,0.0,0.0,0.0,0.0,0.0,0.0,0.0,0.0,0.0,0.0,0.0,0.0,0.0,0.0,0.0,0.0,0.0,0.0,0.0,0.0,0.0,0.0,0.0,0.0,0.0,0.0,0.0,0.0,0.0,0.0,0.0,0.0,0.0,0.0,0.0,0.0,0.0,0.0,0.0,0.0,0.0,0.0,0.0,0.0,0.0,0.0,0.0,0.0,0.0,0.0,0.0,0.0,0.0,0.0,0.0,0.0,0.0,0.0,0.0,0.0,0.0,0.0,0.0,0.0,0.0,0.0,0.0,0.0,0.0,0.0,0.0,0.0,0.0,0.0,0.0,0.0,0.0,0.0,0.0,0.0,0.0,0.0,0.0,0.0,0.0,0.0,0.0,0.0,0.0,0.0,0.0,0.0,0.0,0.0,0.0,0.0,0.0,0.0,0.0,0.0,0.0,0.0,0.0,0.0,0.0,0.0,0.0,0.0,0.0,0.0,0.0,0.0,0.0,0.0,0.1858,0.0,0.0,0.0,0.0,0.0,0.0,0.0,0.0,0.0,0.0,0.0,0.0,0.0,0.0,0.0,0.0,0.0,0.0,0.0,0.0,0.0,0.0,0.0,0.0,0.0,0.0,0.0,0.0,0.0,0.0,0.0,0.0,0.0,0.0,0.0,0.0,0.0,0.0,0.0,0.0,0.0,0.0,0.0,0.0,0.0,0.0,0.0,0.0,0.0,0.0,0.0,0.0,0.0,0.0,0.0,0.0,0.0,0.0,0.0,0.0,0.0,0.0,0.0,0.0,0.0,0.0,0.0,0.0,0.0,0.0,0.0,0.0,0.0,0.0,0.0,0.0,0.0,0.0,0.0,0.0,0.0,0.0,0.0,0.0,0.0,0.0,0.0,0.0,0.0,0.0,0.0,0.0,0.0,0.0,0.0,0.0,0.0,0.0,0.0,0.0,0.0,0.0,0.0,0.0,0.0,0.0,0.0,0.0,0.0,0.0,0.1613,0.168,0.1696,0.159,0.1409,0.0,0.0,0.0,0.0,0.0,0.0,0.0,0.0,0.0,0.0,0.0,0.0,0.0,0.0,0.0,0.0,0.0,0.0,0.0,0.0,0.0,0.0,0.0,0.0,0.0,0.0,0.0,0.0,0.0,0.0,0.0,0.0,0.0,0.0,0.0,0.0,0.0,0.0,0.0,0.0,0.0,0.0,0.0,0.0,0.0,0.0,0.0,0.0,0.0,0.0,0.0,0.0,0.0,0.0,0.0,0.0,0.0,0.0,0.0,0.0,0.0,0.0,0.0,0.0,0.0,0.0,0.0,0.0,0.0,0.0,0.0,0.0,0.0,0.0,0.0,0.0,0.0,0.0,0.0,0.0,0.0,0.0,0.0,0.0,0.0,0.0,0.0,0.0,0.0,0.0,0.0,0.0,0.0,0.0,0.0,0.0,0.0,0.0,0.0,0.0,0.0,0.0,0.0,0.0,0.0,0.0,0.0,0.0,0.0,0.0,0.0,0.0,0.1609,0.1464,0.117,0.0,0.0,0.0,0.0,0.0,0.0,0.0,0.0,0.0,0.0,0.0,0.0,0.0,0.0,0.0,0.0,0.0,0.0,0.0,0.0,0.0,0.0,0.0,0.0,0.0,0.0,0.0,0.0,0.0,0.0,0.0,0.0,0.0,0.0,0.0,0.0,0.0,0.0,0.0,0.0,0.0,0.0,0.0,0.0,0.0,0.0,0.0,0.0,0.0,0.0,0.0,0.0,0.0,0.0,0.0,0.0,0.0,0.0,0.0,0.0,0.0,0.0,0.0,0.0,0.0,0.0,0.0,0.0,0.0,0.0,0.0,0.0,0.0,0.0,0.0,0.0,0.0,0.0,0.0,0.0,0.0,0.0,0.0,0.0,0.0,0.0,0.0,0.0,0.0,0.0,0.0,0.0,0.0,0.0,0.0,0.0,0.0,0.0,0.0,0.0,0.0,0.0,0.0,0.0,0.0,0.0,0.0,0.0,0.0,0.0,0.1723,0.2046,0.1922,0.0,0.1571,0.0,0.0,0.0,0.0,0.0,0.0,0.0,0.0,0.0,0.0,0.0,0.0,0.0,0.0,0.0,0.0,0.0,0.0,0.0,0.0,0.0,0.0,0.0,0.0,0.0,0.0,0.0,0.0,0.0,0.0,0.0,0.0,0.0,0.0,0.0,0.0,0.0,0.0,0.0,0.0,0.0,0.0,0.0,0.0,0.0,0.0,0.0,0.0,0.0,0.0,0.0,0.0,0.0,0.0,0.0,0.0,0.0,0.0,0.0,0.0,0.0,0.0,0.0,0.0,0.0,0.0,0.0,0.0,0.0,0.0,0.0,0.0,0.0,0.0,0.0,0.0,0.0,0.0,0.0,0.0,0.0,0.0,0.0,0.0,0.0,0.0,0.0,0.0,0.0,0.0,0.0,0.0,0.0,0.0,0.0,0.0,0.0,0.0,0.0,0.0,0.0,0.0,0.0,0.0,0.0,0.0,0.0,0.0,0.0,0.0,0.1616,0.1724,0.157,0.1528,0.0,0.0,0.0,0.0,0.0,0.0,0.0,0.0,0.0,0.0,0.0,0.0,0.0,0.0,0.0,0.0,0.0,0.0,0.0,0.0,0.0,0.0,0.0,0.0,0.0,0.0,0.0,0.0,0.0,0.0,0.0,0.0,0.0,0.0,0.0,0.0,0.0,0.0,0.0,0.0,0.0,0.0,0.0,0.0,0.0,0.0,0.0,0.0,0.0,0.0,0.0,0.0,0.0,0.0,0.0,0.0,0.0,0.0,0.0,0.0,0.0,0.0,0.0,0.0,0.0,0.0,0.0,0.0,0.0,0.0,0.0,0.0,0.0,0.0,0.0,0.0,0.0,0.0,0.0,0.0,0.0,0.0,0.0,0.0,0.0,0.0,0.0,0.0,0.0,0.0,0.0,0.0,0.0,0.0,0.0,0.0,0.0,0.0,0.0,0.0,0.0,0.0,0.0,0.0,0.0,0.0,0.0,0.0,0.0,0.0,0.1599,0.1583,0.1625,0.1502,0.1469,0.1511,0.0,0.0,0.0,0.0,0.0,0.0,0.0,0.0,0.0,0.0,0.0,0.0,0.0,0.0,0.0,0.0,0.0,0.0,0.0,0.0,0.0,0.0,0.0,0.0,0.0,0.0,0.0,0.0,0.0,0.0,0.0,0.0,0.0,0.0,0.0,0.0,0.0,0.0,0.0,0.0,0.0,0.0,0.0,0.0,0.0,0.0,0.0,0.0,0.0,0.0,0.0,0.0,0.0,0.0,0.0,0.0,0.0,0.0,0.0,0.0,0.0,0.0,0.0,0.0,0.0,0.0,0.0,0.0,0.0,0.0,0.0,0.0,0.0,0.0,0.0,0.0,0.0,0.0,0.0,0.0,0.0,0.0,0.0,0.0,0.0,0.0,0.0,0.0,0.0,0.0,0.0,0.0,0.0,0.0,0.0,0.0,0.0,0.0,0.0,0.0,0.0,0.0,0.0,0.0,0.0,0.0,0.0,0.0,0.212,0.1861,0.1789,0.1957,0.1959,0.1761,0.0,0.0,0.0,0.0,0.0,0.0,0.0,0.0,0.0,0.0,0.0,0.0,0.0,0.0,0.0,0.0,0.0,0.0,0.0,0.0,0.0,0.0,0.0,0.0,0.0,0.0,0.0,0.0,0.0,0.0,0.0,0.0,0.0,0.0,0.0,0.0,0.0,0.0,0.0,0.0,0.0,0.0,0.0,0.0,0.0,0.0,0.0,0.0,0.0,0.0,0.0,0.0,0.0,0.0,0.0,0.0,0.0,0.0,0.0,0.0,0.0,0.0,0.0,0.0,0.0,0.0,0.0,0.0,0.0,0.0,0.0,0.0,0.0,0.0,0.0,0.0,0.0,0.0,0.0,0.0,0.0,0.0,0.0,0.0,0.0,0.0,0.0,0.0,0.0,0.0,0.0,0.0,0.0,0.0,0.0,0.0,0.0,0.0,0.0,0.0,0.0,0.0,0.0,0.0,0.0,0.0,0.0,0.0,0.0,0.1523,0.1417,0.1516,0.1891,0.1586,0.1409,0.0,0.0,0.0,0.0,0.0,0.0,0.0,0.0,0.0,0.0,0.0,0.0,0.0,0.0,0.0,0.0,0.0,0.0,0.0,0.0,0.0,0.0,0.0,0.0,0.0,0.0,0.0,0.0,0.0,0.0,0.0,0.0,0.0,0.0,0.0,0.0,0.0,0.0,0.0,0.0,0.0,0.0,0.0,0.0,0.0,0.0,0.0,0.0,0.0,0.0,0.0,0.0,0.0,0.0,0.0,0.0,0.0,0.0,0.0,0.0,0.0,0.0,0.0,0.0,0.0,0.0,0.0,0.0,0.0,0.0,0.0,0.0,0.0,0.0,0.0,0.0,0.0,0.0,0.0,0.0,0.0,0.0,0.0,0.0,0.0,0.0,0.0,0.0,0.0,0.0,0.0,0.0,0.0,0.0,0.0,0.0,0.0,0.0,0.0,0.0,0.0,0.0,0.0,0.0,0.0,0.0,0.0,0.0,0.0,0.1126,0.0,0.1062,0.0,0.1137,0.0983,0.0,0.0,0.0,0.0,0.0,0.0,0.0,0.0,0.0,0.0,0.0,0.0,0.0,0.0,0.0,0.0,0.0,0.0,0.0,0.0,0.0,0.0,0.0,0.0,0.0,0.0,0.0,0.0,0.0,0.0,0.0,0.0,0.0,0.0,0.0,0.0,0.0,0.0,0.0,0.0,0.0,0.0,0.0,0.0,0.0,0.0,0.0,0.0,0.0,0.0,0.0,0.0,0.0,0.0,0.0,0.0,0.0,0.0,0.0,0.0,0.0,0.0,0.0,0.0,0.0,0.0,0.0,0.0,0.0,0.0,0.0,0.0,0.0,0.0,0.0,0.0,0.0,0.0,0.0,0.0,0.0,0.0,0.0,0.0,0.0,0.0,0.0,0.0,0.0,0.0,0.0,0.0,0.0,0.0,0.0,0.0,0.0,0.0,0.0,0.0,0.0,0.0,0.0,0.0,0.0,0.0,0.0,0.0,0.1035,0.1001,0.0661,0.054,0.059,0.0599,0.0521,0.0,0.0,0.0,0.0,0.0,0.0,0.0,0.0,0.0,0.0,0.0,0.0,0.0,0.0,0.0,0.0,0.0,0.0,0.0,0.0,0.0,0.0,0.0,0.0,0.0,0.0,0.0,0.0,0.0,0.0,0.0,0.0,0.0,0.0,0.0,0.0,0.0,0.0,0.0,0.0,0.0,0.0,0.0,0.0,0.0,0.0,0.0,0.0,0.0,0.0,0.0,0.0,0.0,0.0,0.0,0.0,0.0,0.0,0.0,0.0,0.0,0.0,0.0,0.0,0.0,0.0,0.0,0.0,0.0,0.0,0.0,0.0,0.0,0.0,0.0,0.0,0.0,0.0,0.0,0.0,0.0,0.0,0.0,0.0,0.0,0.0,0.0,0.0,0.0,0.0,0.0,0.0,0.0,0.0,0.0,0.0,0.0,0.0,0.0,0.0,0.0,0.0,0.0,0.0,0.0,0.0,0.0,0.0,0.0,0.0813,0.0306,-0.0042,-0.0227,-0.0,0.0271,0.0,0.0,0.0,0.0,0.0,0.0,0.0,0.0,0.0,0.0,0.0,0.0,0.0,0.0,0.0,0.0,0.0,0.0,0.0,0.0,0.0,0.0,0.0,0.0,0.0,0.0,0.0,0.0,0.0,0.0,0.0,0.0,0.0,0.0,0.0,0.0,0.0,0.0,0.0,0.0,0.0,0.0,0.0,0.0,0.0,0.0,0.0,0.0,0.0,0.0,0.0,0.0,0.0,0.0,0.0,0.0,0.0,0.0,0.0,0.0,0.0,0.0,0.0,0.0,0.0,0.0,0.0,0.0,0.0,0.0,0.0,0.0,0.0,0.0,0.0,0.0,0.0,0.0,0.0,0.0,0.0,0.0,0.0,0.0,0.0,0.0,0.0,0.0,0.0,0.0,0.0,0.0,0.0,0.0,0.0,0.0,0.0,0.0,0.0,0.0,0.0,0.0,0.0,0.0,0.0,0.0,0.0,0.0,0.0,0.043,-0.0126,-0.0543,-0.0679,-0.0438,-0.0144,0.019,0.0,0.0,0.0,0.0,0.0,0.0,0.0,0.0,0.0,0.0,0.0,0.0,0.0,0.0,0.0,0.0,0.0,0.0,0.0,0.0,0.0,0.0,0.0,0.0,0.0,0.0,0.0,0.0,0.0,0.0,0.0,0.0,0.0,0.0,0.0,0.0,0.0,0.0,0.0,0.0,0.0,0.0,0.0,0.0,0.0,0.0,0.0,0.0,0.0,0.0,0.0,0.0,0.0,0.0,0.0,0.0,0.0,0.0,0.0,0.0,0.0,0.0,0.0,0.0,0.0,0.0,0.0,0.0,0.0,0.0,0.0,0.0,0.0,0.0,0.0,0.0,0.0,0.0,0.0,0.0,0.0,0.0,0.0,0.0,0.0,0.0,0.0,0.0,0.0,0.0,0.0,0.0,0.0,0.0,0.0,0.0,0.0,0.0,0.0,0.0,0.0,0.0,0.0,0.0,0.0,0.0,0.0,0.0,-0.0143,-0.0638,-0.0868,-0.0813,-0.0723,-0.0689,0.0,0.0,0.0,0.0,0.0,0.0,0.0,0.0,0.0,0.0,0.0,0.0,0.0,0.0,0.0,0.0,0.0,0.0,0.0,0.0,0.0,0.0,0.0,0.0,0.0,0.0,0.0,0.0,0.0,0.0,0.0,0.0,0.0,0.0,0.0,0.0,0.0,0.0,0.0,0.0,0.0,0.0,0.0,0.0,0.0,0.0,0.0,0.0,0.0,0.0,0.0,0.0,0.0,0.0,0.0,0.0,0.0,0.0,0.0,0.0,0.0,0.0,0.0,0.0,0.0,0.0,0.0,0.0,0.0,0.0,0.0,0.0,0.0,0.0,0.0,0.0,0.0,0.0,0.0,0.0,0.0,0.0,0.0,0.0,0.0,0.0,0.0,0.0,0.0,0.0,0.0,0.0,0.0,0.0,0.0,0.0,0.0,0.0,0.0,0.0,0.0,0.0,0.0,0.0,0.0,0.0,0.0,0.0,0.0,-0.0596,-0.0808,-0.089,-0.0872,-0.0766,-0.069,0.0,0.0,0.0,0.0,0.0,0.0,0.0,0.0,0.0,0.0,0.0,0.0,0.0,0.0,0.0,0.0,0.0,0.0,0.0,0.0,0.0,0.0,0.0,0.0,0.0,0.0,0.0,0.0,0.0,0.0,0.0,0.0,0.0,0.0,0.0,0.0,0.0,0.0,0.0,0.0,0.0,0.0,0.0,0.0,0.0,0.0,0.0,0.0,0.0,0.0,0.0,0.0,0.0,0.0,0.0,0.0,0.0,0.0,0.0,0.0,0.0,0.0,0.0,0.0,0.0,0.0,0.0,0.0,0.0,0.0,0.0,0.0,0.0,0.0,0.0,0.0,0.0,0.0,0.0,0.0,0.0,0.0,0.0,0.0,0.0,0.0,0.0,0.0,0.0,0.0,0.0,0.0,0.0,0.0,0.0,0.0,0.0,0.0,0.0,0.0,0.0,0.0,0.0,0.0,0.0,0.0,0.0,0.0,-0.043,-0.0824,-0.0872,-0.0897,-0.0897,-0.0806,-0.0782,0.0,0.0,0.0,0.0,0.0,0.0,0.0,0.0,0.0,0.0,0.0,0.0,0.0,0.0,0.0,0.0,0.0,0.0,0.0,0.0,0.0,0.0,0.0,0.0,0.0,0.0,0.0,0.0,0.0,0.0,0.0,0.0,0.0,0.0,0.0,0.0,0.0,0.0,0.0,0.0,0.0,0.0,0.0,0.0,0.0,0.0,0.0,0.0,0.0,0.0,0.0,0.0,0.0,0.0,0.0,0.0,0.0,0.0,0.0,0.0,0.0,0.0,0.0,0.0,0.0,0.0,0.0,0.0,0.0,0.0,0.0,0.0,0.0,0.0,0.0,0.0,0.0,0.0,0.0,0.0,0.0,0.0,0.0,0.0,0.0,0.0,0.0,0.0,0.0,0.0,0.0,0.0,0.0,0.0,0.0,0.0,0.0,0.0,0.0,0.0,0.0,0.0,0.0,0.0,0.0,0.0,0.0,0.0,-0.0496,-0.0905,-0.0936,-0.0897,-0.0896,-0.0841,-0.0978,0.0,0.0,0.0,0.0,0.0,0.0,0.0,0.0,0.0,0.0,0.0,0.0,0.0,0.0,0.0,0.0,0.0,0.0,0.0,0.0,0.0,0.0,0.0,0.0,0.0,0.0,0.0,0.0,0.0,0.0,0.0,0.0,0.0,0.0,0.0,0.0,0.0,0.0,0.0,0.0,0.0,0.0,0.0,0.0,0.0,0.0,0.0,0.0,0.0,0.0,0.0,0.0,0.0,0.0,0.0,0.0,0.0,0.0,0.0,0.0,0.0,0.0,0.0,0.0,0.0,0.0,0.0,0.0,0.0,0.0,0.0,0.0,0.0,0.0,0.0,0.0,0.0,0.0,0.0,0.0,0.0,0.0,0.0,0.0,0.0,0.0,0.0,0.0,0.0,0.0,0.0,0.0,0.0,0.0,0.0,0.0,0.0,0.0,0.0,0.0,0.0,0.0,0.0,0.0,0.0,0.0,0.0,0.0,-0.0917,-0.1064,-0.0937,-0.0897,-0.0897,-0.0862,-0.1068,0.0,0.0,0.0,0.0,0.0,0.0,0.0,0.0,0.0,0.0,0.0,0.0,0.0,0.0,0.0,0.0,0.0,0.0,0.0,0.0,0.0,0.0,0.0,0.0,0.0,0.0,0.0,0.0,0.0,0.0,0.0,0.0,0.0,0.0,0.0,0.0,0.0,0.0,0.0,0.0,0.0,0.0,0.0,0.0,0.0,0.0,0.0,0.0,-0.4108,0.0,0.0,0.0,0.0,0.0,0.0,0.0,0.0,0.0,0.0,0.0,0.0,0.0,0.0,0.0,0.0,0.0,0.0,0.0,0.0,0.0,0.0,0.0,0.0,0.0,0.0,0.0,0.0,0.0,0.0,0.0,0.0,0.0,0.0,0.0,0.0,0.0,0.0,0.0,0.0,0.0,0.0,0.0,0.0,0.0,0.0,0.0,0.0,0.0,0.0,0.0,0.0,0.0,0.0,0.0,0.0,0.0,0.0,0.0,-0.1001,-0.109,-0.1222,-0.1233,-0.1121,-0.1541,-0.1725,0.0,0.0,0.0,0.0,0.0,0.0,0.0,0.0,0.0,0.0,0.0,0.0,0.0,0.0,0.0,0.0,0.0,0.0,0.0,0.0,0.0,0.0,0.0,0.0,0.0,0.0,0.0,0.0,0.0,0.0,0.0,0.0,0.0,0.0,0.0,0.0,0.0,0.0,0.0,0.0,0.0,0.0,0.0,0.0,0.0,0.0,0.0,0.0,0.0,0.0,0.0,0.0,0.0,0.0,0.0,0.0,0.0,0.0,0.0,0.0,0.0,0.0,0.0,0.0,0.0,0.0,0.0,0.0,0.0,0.0,0.0,0.0,0.0,0.0,0.0,0.0,0.0,0.0,0.0,0.0,0.0,0.0,0.0,0.0,0.0,0.0,0.0,0.0,0.0,0.0,0.0,0.0,0.0,0.0,0.0,0.0,0.0,0.0,0.0,0.0,0.0,0.0,0.0,0.0,0.0,0.0,0.0,-0.0755,-0.1025,-0.1119,-0.1512,-0.1568,-0.1402,-0.2125,-0.2456,-0.2165,0.0,0.0,0.0,0.0,0.0,0.0,0.0,0.0,0.0,0.0,0.0,0.0,0.0,0.0,0.0,0.0,0.0,0.0,0.0,0.0,0.0,0.0,0.0,0.0,0.0,0.0,0.0,0.0,0.0,0.0,0.0,0.0,0.0,0.0,0.0,0.0,0.0,0.0,-0.4894,-0.5621,0.0,0.0,0.0,0.0,0.0,0.0,0.0,0.0,-0.4193,0.0,0.0,0.0,0.0,0.0,0.0,0.0,0.0,0.0,0.0,0.0,0.0,0.0,0.0,0.0,0.0,0.0,0.0,0.0,0.0,0.0,0.0,0.0,0.0,0.0,0.0,0.0,0.0,0.0,0.0,0.0,0.0,0.0,0.0,0.0,0.0,0.0,0.0,0.0,0.0,0.0,0.0,0.0,0.0,0.0,0.0,0.0,0.0,0.0,0.0,0.0,0.0,0.0,0.0,0.0,0.0,-0.1135,-0.121,-0.1262,-0.1288,-0.1234,-0.1401,-0.1736,-0.1846,-0.2266,-0.2894,0.0,0.0,0.0,0.0,0.0,0.0,0.0,0.0,0.0,0.0,0.0,0.0,0.0,0.0,0.0,0.0,0.0,0.0,0.0,0.0,0.0,0.0,0.0,0.0,0.0,0.0,0.0,0.0,0.0,0.0,0.0,0.0,0.0,0.0,0.0,0.0,0.0,0.0,0.0,-0.64,-0.6829,0.0,0.0,0.0,0.0,0.0,0.0,0.0,0.0,-0.4524,0.0,0.0,0.0,0.0,0.0,0.0,0.0,0.0,0.0,0.0,0.0,0.0,0.0,0.0,0.0,0.0,0.0,0.0,0.0,0.0,0.0,0.0,0.0,0.0,0.0,0.0,0.0,0.0,0.0,0.0,0.0,0.0,0.0,0.0,0.0,0.0,0.0,0.0,0.0,0.0,0.0,0.0,0.0,0.0,0.0,0.0,0.0,0.0,0.0,0.0,0.0,0.0,0.0,0.0,0.0,-0.1089,-0.1234,-0.1518,-0.19,-0.2015,-0.2237,-0.2627,-0.2808,-0.3097,0.0,0.0,0.0,0.0,0.0,0.0,0.0,0.0,0.0,0.0,0.0,0.0,0.0,0.0,0.0,0.0,0.0,0.0,0.0,0.0,0.0,0.0,0.0,0.0,0.0,0.0,0.0,0.0,0.0,0.0,0.0,0.0,0.0,0.0,0.0,0.0,0.0,0.0,0.0,0.0,-0.6422,-0.6867,-0.7288,0.0,0.0,0.0,0.0,0.0,0.0,-0.5888,-0.5266,0.0,0.0,0.0,0.0,0.0,0.0,0.0,0.0,0.0,0.0,0.0,0.0,0.0,0.0,0.0,0.0,0.0,0.0,0.0,0.0,0.0,0.0,0.0,0.0,0.0,0.0,0.0,0.0,0.0,0.0,0.0,0.0,0.0,0.0,0.0,0.0,0.0,0.0,0.0,0.0,0.0,0.0,0.0,0.0,0.0,0.0,0.0,0.0,0.0,0.0,0.0,0.0,0.0,0.0,0.0,-0.099,-0.134,-0.1822,-0.251,-0.2792,-0.313,-0.3463,-0.3918,-0.4058,0.0,0.0,0.0,0.0,0.0,0.0,0.0,0.0,0.0,0.0,0.0,0.0,0.0,0.0,0.0,0.0,0.0,0.0,0.0,0.0,0.0,0.0,0.0,0.0,0.0,0.0,0.0,0.0,0.0,0.0,0.0,0.0,0.0,0.0,0.0,0.0,0.0,0.0,0.0,0.0,0.0,-0.6997,-0.7519,-0.7286,0.0,0.0,0.0,0.0,-0.7236,-0.6591,0.0,0.0,0.0,0.0,0.0,0.0,0.0,0.0,0.0,0.0,0.0,0.0,0.0,0.0,0.0,0.0,0.0,0.0,0.0,0.0,0.0,0.0,0.0,0.0,0.0,0.0,0.0,0.0,0.0,0.0,0.0,0.0,0.0,0.0,0.0,0.0,0.0,0.0,0.0,0.0,0.0,0.0,0.0,0.0,0.0,0.0,0.0,0.0,0.0,0.0,0.0,0.0,0.0,0.0,0.0,0.0,-0.116,-0.1907,-0.2366,-0.2502,-0.3012,-0.3403,-0.3741,-0.431,-0.4469,0.0,0.0,0.0,0.0,0.0,0.0,0.0,0.0,0.0,0.0,0.0,0.0,0.0,0.0,0.0,0.0,0.0,0.0,0.0,0.0,0.0,0.0,0.0,0.0,0.0,0.0,0.0,0.0,0.0,0.0,0.0,0.0,0.0,0.0,0.0,0.0,0.0,0.0,0.0,0.0,0.0,-0.7914,-0.7791,-0.7735,-0.7729,0.0,0.0,-0.7249,-0.751,-0.7249,0.0,0.0,0.0,0.0,0.0,0.0,0.0,0.0,0.0,0.0,0.0,0.0,0.0,0.0,0.0,0.0,0.0,0.0,0.0,0.0,0.0,0.0,0.0,0.0,0.0,0.0,0.0,0.0,0.0,0.0,0.0,0.0,0.0,0.0,0.0,0.0,0.0,0.0,0.0,0.0,0.0,0.0,0.0,0.0,0.0,0.0,0.0,0.0,0.0,0.0,0.0,0.0,0.0,0.0,0.0,-0.1065,-0.1208,-0.2121,-0.2765,-0.3121,-0.3566,-0.4229,-0.5011,-0.4979,-0.4973,0.0,0.0,0.0,0.0,0.0,0.0,0.0,0.0,0.0,0.0,0.0,0.0,0.0,0.0,0.0,0.0,0.0,0.0,0.0,0.0,0.0,0.0,0.0,0.0,0.0,0.0,0.0,0.0,0.0,0.0,0.0,0.0,0.0,0.0,0.0,0.0,0.0,0.0,0.0,0.0,0.0,0.0,-0.8022,-0.7807,0.0,0.0,0.0,-0.7522,-0.7737,0.0,0.0,0.0,0.0,0.0,0.0,0.0,0.0,0.0,0.0,0.0,0.0,0.0,0.0,0.0,0.0,0.0,0.0,0.0,0.0,0.0,0.0,0.0,0.0,0.0,0.0,0.0,0.0,0.0,0.0,0.0,0.0,0.0,0.0,0.0,0.0,0.0,0.0,0.0,0.0,0.0,0.0,0.0,0.0,0.0,0.0,0.0,0.0,0.0,0.0,0.0,0.0,0.0,0.0,0.0,0.0,0.0,-0.1433,-0.2395,-0.3236,-0.3793,-0.4236,-0.4952,-0.5941,-0.5695,0.0,0.0,0.0,0.0,0.0,0.0,0.0,0.0,0.0,0.0,0.0,0.0,0.0,0.0,0.0,0.0,0.0,0.0,0.0,0.0,0.0,0.0,0.0,0.0,0.0,0.0,0.0,-0.3509,0.0,0.0,0.0,0.0,0.0,0.0,0.0,0.0,0.0,0.0,0.0,0.0,0.0,0.0,-0.7916,-0.8527,-0.8345,-0.8274,0.0,0.0,-0.792,-0.8078,-0.7832,-0.7589,0.0,0.0,0.0,0.0,0.0,0.0,0.0,0.0,0.0,0.0,0.0,0.0,0.0,0.0,0.0,0.0,0.0,0.0,0.0,0.0,0.0,0.0,0.0,0.0,0.0,0.0,0.0,0.0,0.0,0.0,0.0,0.0,0.0,0.0,0.0,0.0,0.0,0.0,0.0,0.0,0.0,0.0,0.0,0.0,0.0,0.0,0.0,0.0,0.0,0.0,0.0,0.0,0.0,0.0,-0.1598,-0.2059,-0.3014,-0.3849,-0.4405,-0.4963,-0.5462,-0.6,-0.6504,-0.6439,0.0,0.0,0.0,0.0,0.0,0.0,0.0,0.0,0.0,0.0,0.0,0.0,0.0,0.0,0.0,0.0,0.0,0.0,0.0,0.0,0.0,0.0,0.0,0.0,0.0,0.0,0.0,0.0,0.0,0.0,0.0,0.0,0.0,0.0,0.0,0.0,0.0,0.0,0.0,0.0,0.0,-0.9204,-0.9634,-0.9655,-0.9688,0.0,-0.902,-0.8554,-0.8573,-0.8196,-0.775,-0.7285,0.0,0.0,0.0,0.0,0.0,0.0,0.0,0.0,0.0,0.0,0.0,0.0,0.0,0.0,0.0,0.0,0.0,0.0,0.0,0.0,0.0,0.0,0.0,0.0,0.0,0.0,0.0,0.0,0.0,0.0,0.0,0.0,0.0,0.0,0.0,0.0,0.0,0.0,0.0,0.0,0.0,0.0,0.0,0.0,0.0,0.0,0.0,0.0,0.0,0.0,0.0,0.0,0.0,-0.2007,-0.2101,-0.3433,-0.4294,-0.4519,-0.5022,-0.5567,-0.6105,-0.6529,-0.6544,0.0,0.0,0.0,0.0,0.0,0.0,0.0,0.0,0.0,0.0,0.0,0.0,0.0,0.0,0.0,0.0,0.0,0.0,0.0,0.0,0.0,0.0,0.0,0.0,0.0,0.0,0.0,0.0,-0.4313,-0.4354,-0.4844,0.0,0.0,0.0,0.0,0.0,0.0,0.0,0.0,0.0,0.0,-0.994,-1.0275,-1.0294,0.0,0.0,-1.0052,-0.972,-0.9278,-0.9045,-0.8698,-0.7928,-0.7437,0.0,0.0,0.0,0.0,0.0,0.0,0.0,0.0,0.0,0.0,0.0,0.0,0.0,0.0,0.0,0.0,0.0,0.0,0.0,0.0,0.0,0.0,0.0,0.0,0.0,0.0,0.0,0.0,0.0,0.0,0.0,0.0,0.0,0.0,0.0,0.0,0.0,0.0,0.0,0.0,0.0,0.0,0.0,0.0,0.0,0.0,0.0,0.0,0.0,0.0,0.0,0.0,-0.242,-0.259,-0.3868,-0.4574,-0.4739,-0.5132,-0.5618,-0.6154,-0.6317,-0.6411,0.0,0.0,0.0,0.0,0.0,0.0,0.0,0.0,0.0,0.0,0.0,0.0,0.0,0.0,0.0,0.0,0.0,0.0,0.0,0.0,0.0,0.0,0.0,0.0,0.0,0.0,0.0,0.0,-0.4597,-0.4807,-0.5244,0.0,0.0,0.0,0.0,0.0,0.0,0.0,0.0,0.0,0.0,-1.0913,-1.1272,-1.126,-1.1153,-1.1054,-1.0692,-1.031,-0.988,-0.9782,-0.9503,-0.8696,0.0,0.0,0.0,0.0,0.0,0.0,0.0,0.0,0.0,0.0,0.0,0.0,0.0,0.0,0.0,0.0,0.0,0.0,0.0,0.0,0.0,0.0,0.0,0.0,0.0,0.0,0.0,-0.3082,0.0,0.0,-0.2503,0.0,0.0,0.0,0.0,0.0,0.0,0.0,0.0,0.0,0.0,0.0,0.0,0.0,0.0,0.0,0.0,0.0,0.0,0.0,0.0,0.0,0.0,-0.2832,-0.3644,-0.4233,-0.4739,-0.5242,-0.5301,-0.5567,-0.6154,-0.6055,-0.6015,-0.6077,0.0,0.0,0.0,0.0,0.0,0.0,0.0,0.0,0.0,0.0,0.0,0.0,0.0,0.0,0.0,0.0,0.0,0.0,0.0,0.0,0.0,0.0,0.0,0.0,0.0,0.0,-0.4594,-0.49,-0.5282,0.0,0.0,0.0,0.0,0.0,0.0,0.0,0.0,0.0,0.0,-1.1901,-1.2314,-1.2931,-1.2724,-1.2395,-1.207,-1.1006,-1.0314,-1.0424,-1.0314,-1.003,0.0,0.0,0.0,0.0,0.0,0.0,0.0,0.0,0.0,0.0,0.0,0.0,0.0,0.0,0.0,0.0,0.0,0.0,0.0,0.0,0.0,0.0,0.0,0.0,0.0,0.0,0.0,-0.6063,-0.5475,0.0,0.0,0.0,0.0,0.0,0.0,0.0,0.0,0.0,0.0,0.0,-0.4093,-0.3971,0.0,0.0,0.0,0.0,0.0,0.0,0.0,0.0,0.0,0.0,0.0,0.0,-0.3447,-0.3745,-0.4602,-0.5132,-0.5301,-0.5301,-0.5407,-0.5622,-0.5891,-0.5901,-0.5684,0.0,0.0,0.0,0.0,0.0,0.0,0.0,0.0,0.0,0.0,0.0,0.0,0.0,0.0,0.0,0.0,0.0,0.0,0.0,0.0,0.0,0.0,0.0,0.0,0.0,-0.4511,0.0,0.0,0.0,0.0,0.0,0.0,0.0,0.0,0.0,0.0,0.0,-1.1634,-1.2475,-1.318,-1.3597,-1.3531,-1.3685,-1.3874,0.0,0.0,0.0,0.0,0.0,0.0,0.0,0.0,0.0,0.0,0.0,0.0,0.0,0.0,-1.1885,-0.9148,-0.8439,-0.8279,-0.8399,0.0,0.0,0.0,0.0,0.0,0.0,0.0,0.0,0.0,0.0,0.0,0.0,0.0,0.0,-0.7275,0.0,-0.6083,0.0,0.0,0.0,0.0,0.0,0.0,0.0,0.0,-0.5129,-0.5128,-0.5081,-0.4862,-0.4858,0.0,-0.43,-0.3724,0.0,0.0,0.0,0.0,0.0,0.0,0.0,0.0,-0.3871,-0.4139,-0.4873,-0.5301,-0.5301,-0.5301,-0.5301,-0.5301,-0.5622,-0.5575,-0.5312,-0.566,-0.5462,0.0,0.0,0.0,0.0,0.0,0.0,0.0,0.0,0.0,0.0,0.0,0.0,0.0,0.0,0.0,0.0,0.0,0.0,0.0,0.0,0.0,0.0,0.0,-0.5464,0.0,0.0,0.0,0.0,0.0,0.0,0.0,0.0,0.0,-1.1895,-1.2635,-1.3511,-1.4405,-1.4908,-1.5114,-1.5008,0.0,0.0,0.0,0.0,0.0,0.0,0.0,-1.3866,-1.3877,-1.3259,-1.2751,-1.2738,-1.3667,-1.4128,-1.3366,0.0,0.0,-1.1046,-1.0285,-1.0098,-1.0219,-1.0603,-1.1024,-1.134,-1.1701,-1.208,0.0,0.0,0.0,0.0,0.0,0.0,0.0,0.0,-0.7653,-0.748,0.0,-0.6516,0.0,0.0,0.0,0.0,0.0,-0.664,0.0,0.0,-0.7075,-0.7156,-0.721,-0.6565,-0.6388,-0.6504,-0.5697,-0.5297,-0.5167,-0.4204,0.0,0.0,0.0,0.0,0.0,0.0,-0.4143,-0.486,-0.5159,-0.5309,-0.5309,-0.5301,-0.5301,-0.5301,-0.5301,-0.5209,-0.498,-0.5703,-0.5779,-0.5086,-0.5284,0.0,0.0,0.0,0.0,0.0,0.0,0.0,0.0,0.0,0.0,0.0,0.0,0.0,0.0,0.0,0.0,0.0,0.0,0.0,0.0,-0.6095,0.0,0.0,0.0,0.0,0.0,0.0,0.0,0.0,0.0,0.0,-1.4273,-1.4435,-1.5231,-1.7082,0.0,0.0,0.0,0.0,-1.6504,-1.6701,-1.6305,-1.6227,-1.6777,-1.6576,-1.6455,-1.6885,0.0,0.0,-1.4925,-1.5773,-1.6095,-1.4625,-1.5098,-1.5195,-1.4148,-1.3113,-1.2622,-1.2842,-1.2846,-1.309,-1.3859,-1.4457,-1.5091,-1.2101,0.0,0.0,0.0,0.0,-1.1138,-1.1378,-1.1564,-1.1473,-1.0967,-1.0194,-0.9764,0.0,0.0,0.0,0.0,0.0,0.0,-0.7938,-0.8231,-0.8148,-0.8083,-0.8022,-0.7846,-0.7775,-0.7807,-0.7265,-0.6772,-0.6402,-0.6002,-0.5144,-0.3791,0.0,0.0,0.0,0.0,-0.4725,-0.5101,-0.539,-0.5482,-0.5539,-0.5361,-0.5352,-0.5517,-0.5626,-0.5605,-0.5545,-0.6287,-0.6449,-0.5929,-0.6079,0.0,0.0,0.0,0.0,0.0,0.0,0.0,0.0,0.0,0.0,0.0,0.0,0.0,0.0,0.0,0.0,0.0,0.0,0.0,-0.5967,-0.7089,-0.8206,0.0,0.0,0.0,0.0,0.0,0.0,0.0,0.0,0.0,-1.7814,-1.6768,-1.6125,0.0,0.0,-1.7318,-1.6616,-1.7395,-1.8272,-1.8755,-1.8353,0.0,-1.8806,-1.8082,-1.7696,-1.8196,-1.818,-1.7933,-1.7664,-1.7901,-1.7973,-1.7557,-1.7645,-1.7739,-1.7323,-1.528,-1.3956,-1.4304,-1.4623,-1.5106,-1.5797,-1.6157,-1.6378,-1.4166,-1.3317,-1.3108,-1.2838,-1.2663,-1.2877,-1.2956,-1.3006,-1.2874,-1.247,-1.1914,-1.1654,-1.1254,-1.0737,-1.021,0.0,0.0,0.0,-0.9554,-0.9591,-0.953,-0.9463,-0.94,-0.9165,-0.9086,-0.9157,-0.8412,-0.7981,-0.7703,-0.7402,-0.6534,-0.5136,0.0,0.0,-0.456,-0.49,-0.5215,-0.5498,-0.5665,-0.5718,-0.5718,-0.5547,-0.5626,-0.5785,-0.5775,-0.59,-0.6114,-0.6781,-0.7053,-0.6849,-0.7013,-0.6678,0.0,0.0,0.0,0.0,0.0,0.0,0.0,0.0,0.0,0.0,0.0,-0.5221,-0.4259,0.0,0.0,0.0,-0.5802,-0.689,-0.8161,-0.9351,0.0,0.0,0.0,0.0,0.0,0.0,0.0,-1.8916,-1.9597,-1.999,-2.0283,-1.9462,-1.8809,-1.8626,-1.8817,-1.8826,-1.8331,0.0,-1.9723,-2.0275,-2.0061,-2.001,-2.0579,-1.9844,-1.9248,-1.9313,-1.9605,-1.9678,-1.9408,-1.9481,-1.9543,-1.9521,-1.9377,-1.9243,-1.9243,-1.7524,-1.62,-1.6533,-1.6869,-1.7278,-1.7761,-1.7824,-1.7886,-1.5838,-1.5718,-1.4511,-1.3874,-1.3751,-1.3751,-1.3481,-1.3029,-1.2816,-1.2736,-1.2783,-1.2595,-1.2856,-1.333,-1.3216,0.0,-1.184,-1.1774,-1.1544,-1.1082,-1.1013,-1.1088,-1.1227,-1.0553,-1.039,-1.0534,-0.9473,-0.8967,-0.903,-0.8468,-0.7768,-0.6894,-0.6058,-0.5624,-0.5663,-0.5549,-0.5687,-0.5969,-0.5969,-0.5961,-0.6005,-0.5948,-0.6019,-0.6297,-0.6054,-0.6218,-0.6696,-0.7283,-0.7652,-0.7771,-0.795,-0.777,-0.7125,0.0,0.0,0.0,0.0,0.0,0.0,0.0,0.0,0.0,0.0,0.0,0.0,0.0,0.0,0.0,-0.8359,0.0,-1.1113,-1.2256,0.0,0.0,0.0,-1.4252,-1.2377,-1.6433,-2.0384,-2.3035,0.0,0.0,-2.1916,-2.23,-2.258,-2.2387,-2.1494,-2.0955,-2.1379,-2.1054,-2.1015,-2.1464,-2.1536,-2.1705,-2.2005,-2.1545,-2.0997,-2.0512,-2.1008,-2.1192,-2.0767,-2.079,-2.0824,-2.102,-2.0574,-2.0305,-2.0316,-2.0001,-1.9641,-1.9524,-1.9349,-1.9366,-1.9453,-1.9515,-1.955,-1.6967,-1.7023,-1.6991,-1.6286,-1.5189,-1.5181,-1.5099,-1.5016,-1.4946,-1.4925,-1.5025,-1.4654,-1.4279,-1.3834,-1.3794,-1.3579,-1.315,-1.2753,-1.2508,-1.2432,-1.2084,-1.188,-1.1801,-1.1689,-1.1729,-1.175,-1.122,-1.0797,-1.0474,-0.9946,-0.9355,-0.8831,-0.7835,-0.6832,-0.576,-0.6147,-0.6414,-0.6519,-0.6524,-0.6691,-0.7007,-0.6793,-0.6961,-0.7695,-0.752,-0.7444,-0.7605,-0.8084,-0.8376,-0.8358,-0.8504,-0.84,-0.7871,-0.6481,0.0,0.0,0.0,0.0,0.0,0.0,0.0,0.0,0.0,-0.756,-0.5834,0.0,-0.8276,0.0,-1.0114,-1.1365,-1.2243,-1.2946,0.0,0.0,-1.6503,-1.6942,-1.8013,-1.9825,-2.186,-2.4315,-2.4238,-2.3825,-2.3447,-2.4054,-2.4515,-2.4469,-2.3596,-2.2652,-2.1765,-2.2393,-2.2774,-2.2444,-2.2408,-2.2421,-2.258,-2.2432,-2.2223,-2.2099,-2.2285,-2.2469,-2.2774,-2.2822,-2.305,-2.3441,-2.3515,-2.3412,-2.3328,-2.3412,-2.3379,-2.3212,-2.1592,-2.018,-2.0689,-2.0846,-2.0934,-1.7622,-1.7716,-1.7878,-1.7473,-1.6686,-1.6522,-1.6442,-1.6294,-1.6286,-1.633,-1.6287,-1.6289,-1.6108,-1.5861,-1.5852,-1.5542,-1.5129,-1.4689,-1.4145,-1.3438,-1.3169,-1.2813,-1.2298,-1.2445,-1.251,-1.249,-1.217,-1.1956,-1.1673,-1.1248,-1.0699,-1.0147,-0.9661,-0.8674,-0.7102,-0.6908,-0.6784,-0.6715,-0.6784,-0.6981,-0.7288,-0.7166,-0.7228,-0.7512,-0.7735,-0.7871,-0.7824,-0.8355,-0.8626,-0.8521,-0.8792,-0.8662,-0.7957,-0.7364,-0.6962,0.0,0.0,0.0,0.0,0.0,0.0,0.0,0.0,0.0,0.0,0.0,-1.0466,-1.0452,-1.2168,-1.3616,-1.4418,-1.5532,-1.6967,-1.8646,-1.9354,-2.0246,-2.1561,-2.2511,-2.3681,-2.5346,-2.5331,-2.5105,-2.4969,-2.5355,-2.5728,-2.5865,-2.5448,-2.4532,-2.3256,-2.3554,-2.3846,-2.3577,-2.3518,-2.3518,-2.3531,-2.3518,-2.3518,-2.3518,-2.3518,-2.3682,-2.4021,-2.4137,-2.431,-2.4641,-2.4711,-2.4711,-2.4711,-2.4754,-2.4824,-2.4617,-2.3511,-2.2521,-2.2502,-2.2561,-2.2509,-1.8286,-1.827,-1.827,-1.8244,-1.8175,-1.7838,-1.751,-1.7114,-1.7123,-1.7173,-1.7206,-1.7565,-1.7848,-1.8119,-1.8193,-1.7812,-1.7168,-1.6911,-1.5913,-1.4463,-1.4248,-1.3652,-1.282,-1.2921,-1.2914,-1.2952,-1.2678,-1.2621,-1.2636,-1.2255,-1.1826,-1.1263,-1.1299,-1.0529,-0.9023,-0.7868,-0.7161,-0.6933,-0.7007,-0.7209,-0.7456,-0.7562,-0.7389,-0.7002,-0.7789,-0.8121,-0.7984,-0.8567,-0.883,-0.8679,-0.9106,-0.8968,-0.8176,-0.8521,-0.8657,0.0,-0.7853,0.0,0.0,0.0,0.0,0.0,0.0,0.0,0.0,-1.2331,-1.3178,-1.2707,-1.4631,-1.6279,-1.7196,-1.8929,-2.0202,-2.0819,-2.2286,-2.339,-2.3767,-2.4577,-2.5392,-2.6093,-2.6065,-2.6042,-2.6215,-2.6336,-2.6472,-2.6659,-2.6645,-2.6133,-2.5078,-2.4741,-2.4641,-2.4584,-2.4584,-2.4469,-2.4483,-2.4526,-2.454,-2.4526,-2.4584,-2.4754,-2.4824,-2.5007,-2.5133,-2.5231,-2.53,-2.5245,-2.5231,-2.5245,-2.5245,-2.5287,-2.5176,-2.4873,-2.4313,-2.4123,-2.4069,-2.0136,-1.9869,-1.9643,-1.938,-1.9054,-1.8982,-1.8523,-1.7826,-1.7826,-1.7891,-1.7914,-1.8434,-1.8554,-1.8341,-1.8544,-1.8544,-1.8378,-1.7694,-1.7037,-1.6375,-1.5136,-1.4301,-1.376,-1.3339,-1.3127,-1.3119,-1.3121,-1.3158,-1.3324,-1.2785,-1.2634,-1.262,-1.1806,-1.124,-1.0691,0.0,0.0,0.0,-0.8037,-0.8301,-0.9,-0.8714,-0.8704,-0.9026,-0.943,0.0,-0.9263,-0.9399,-0.9614,-0.9984,-1.0138,0.0,0.0,0.0,0.0,0.0,0.0,0.0,0.0,0.0,0.0,0.0,-1.2528,-1.2528,-1.1926,-1.434,-1.6178,-1.6765,-1.7917,-1.9141,-2.0244,-2.1094,-2.1904,-2.2659,-2.3608,-2.4326,-2.4861,-2.5369,-2.5849,-2.6153,-2.6247,-2.6244,-2.6312,-2.6539,-2.6741,-2.6852,-2.6794,-2.6674,-2.6422,-2.5907,-2.5467,-2.5007,-2.5005,-2.4964,-2.4894,-2.4978,-2.5048,-2.4894,-2.4894,-2.5133,-2.5536,-2.5715,-2.5934,-2.6272,-2.6433,-2.6433,-2.6433,-2.6433,-2.6379,-2.6433,-2.6433,-2.6122,-2.5094,-2.4844,-2.4817,-2.0894,0.0,-2.0218,-1.9989,0.0,-1.9613,-1.9263,-1.8763,-1.8674,-1.8717,-1.8852,-1.9232,-1.9352,-1.9164,-1.9231,-1.9307,-1.9298,-1.8779,-1.8256,-1.7516,-1.6371,-1.5322,-1.4486,-1.3911,-1.3498,-1.3353,-1.3346,-1.3411,-1.3484,-1.3259,-1.3179,-1.3243,-1.2714,-1.2199,-1.161,-1.0847,-0.9974,-0.9005,-0.8877,-0.9064,-0.9442,-0.9513,-0.949,-0.9451,-1.0009,0.0,0.0,0.0,0.0,0.0,0.0,0.0,0.0,0.0,0.0,-1.1086,-1.1904,-1.2314,-1.2136,-1.3552,-1.4503,-1.4668,-1.5389,-1.5437,-1.4609,-1.6421,-1.7863,-1.8583,-1.9876,-2.116,-2.2298,-2.2936,-2.3513,-2.4146,-2.4874,-2.546,-2.5741,-2.6096,-2.6354,-2.6465,-2.6515,-2.664,-2.6957,-2.7122,-2.7389,-2.7665,-2.7723,-2.7694,-2.765,-2.6942,-2.6318,-2.6314,-2.6315,-2.6315,-2.6329,-2.6329,-2.6188,-2.5978,-2.5879,-2.5988,-2.6286,-2.634,-2.6447,-2.6727,-2.6794,-2.6794,-2.6794,-2.6794,-2.6794,-2.6794,-2.6794,-2.6674,-2.6082,-2.592,-2.592,-2.1314,-2.0885,-2.0706,-2.056,-2.0344,-2.019,-1.9968,-1.9748,0.0,0.0,0.0,-1.9872,-1.9942,-1.9951,-2.002,-2.002,-1.9991,-1.9822,-1.9354,-1.847,-1.764,-1.6597,-1.5298,-1.4568,-1.3985,-1.3587,-1.3528,-1.3492,-1.3492,-1.3492,-1.3492,-1.3572,-1.3492,-1.3035,-1.2191,-1.1642,-1.0975,-1.0122,-0.9823,-0.9703,-0.9761,-1.0177,-1.008,-0.9474,-1.0422,-1.0841,-1.0639,-1.0967,-1.1174,-1.1183,-1.1608,-1.1659,-1.1379,-1.2163,-1.2731,-1.2998,-1.389,-1.4655,-1.5044,-1.5753,-1.6373,-1.6777,-1.7682,-1.7863,-1.7143,-1.8253,-1.9381,-2.0292,-2.169,-2.292,-2.3973,-2.4558,-2.4981,-2.5343,-2.596,-2.6404,-2.6418,-2.6707,-2.6982,-2.6968,-2.7099,-2.7316,-2.777,-2.7897,-2.8071,-2.8521,-2.8565,-2.8666,-2.855,-2.781,-2.7335,-2.7671,-2.7717,-2.7842,-2.7828,-2.7628,-2.7534,-2.6977,-2.6828,-2.6794,-2.6794,-2.6794,-2.6794,-2.6779,-2.6846,-2.6846,-2.6846,-2.6974,-2.6974,-2.7026,-2.7063,-2.7115,-2.713,-2.7078,-2.6959,-2.2448,-2.2223,-2.1627,-2.1709,-2.2128,-2.1336,-2.0787,-2.0462,-2.0023,-1.9863,-1.9863,-2.0108,-2.0264,-2.0264,-2.0411,-2.0489,-2.0489,-2.043,-2.0148,-1.9655,-1.89,-1.7835,-1.6611,-1.5638,-1.4695,-1.3969,-1.3631,-1.3492,-1.3492,-1.3492,-1.3572,-1.3717,-1.3572,-1.3259,-1.2883,-1.2914,-1.2785,-1.2313,-1.1233,-1.0647,-1.0584,-1.0795,-1.0766,-1.0456,-1.1592,-1.2093,-1.1789,-1.2373,-1.2896,-1.3324,-1.344,-1.3599,-1.4031,-1.4126,-1.4511,-1.4954,-1.4451,-1.4706,-1.6065,-1.6886,-1.7616,-1.84,-1.8939,-1.867,-1.7517,-1.9478,-2.1786,-2.3916,-2.4254,-2.4732,-2.5492,-2.6062,-2.6289,-2.6162,-2.6486,-2.6727,-2.677,-2.7234,-2.7592,-2.7607,-2.81,-2.839,-2.8507,-2.855,-2.8594,-2.8681,-2.8869,-2.8739,-2.8768,-2.8536,-2.8448,-2.8521,-2.855,-2.855,-2.8507,-2.8071,-2.781,-2.7621,-2.7157,-2.6866,-2.6866,-2.6866,-2.6905,-2.6779,-2.6928,-2.7033,-2.7018,-2.7393,-2.7615,-2.7715,-2.8012,-2.8207,-2.783,-2.768,-2.7595,-2.3441,-2.308,-2.2312,-2.2312,-2.2877,-2.2317,-2.2036,-2.1737,-2.0934,-2.0397,-2.0108,-2.0342,-2.0498,-2.0489,-2.0566,-2.0576,-2.0576,-2.0576,-2.0517,-2.0215,-1.9465,-1.8752,-1.8002,-1.6646,-1.5667,-1.5009,-1.4408,-1.4028,-1.3863,-1.3848,-1.3848,-1.3928,-1.3855,-1.3772,-1.3622,-1.3527,-1.3361,-1.3203,-1.2276,-1.1809,-1.1802,-1.1751,-1.1828,-1.2033,-1.2571,-1.3024,-1.345,-1.3569,-1.3888,-1.444,-1.445,-1.4556,-1.4777,-1.4829,-1.5091,-1.5661,-1.5747,-1.6229,-1.7357,-1.8248,-1.8882,-1.9231,-1.9766,-1.9685,-1.8763,-2.0574,-2.2525,-2.4362,-2.5045,-2.5664,-2.6297,-2.6674,-2.6727,-2.6592,-2.7002,-2.7287,-2.736,-2.7853,-2.8231,-2.826,-2.8492,-2.8811,-2.9145,-2.9189,-2.9348,-2.961,-2.977,-2.9755,-2.974,-2.974,-2.9566,-2.9276,-2.9189,-2.9203,-2.9174,-2.8971,-2.8637,-2.8318,-2.7723,-2.736,-2.7287,-2.7341,-2.7331,-2.7053,-2.7305,-2.7572,-2.7527,-2.768,-2.7997,-2.8336,-2.8496,-2.8496,-2.8158,-2.7879,-2.766,-2.4135,-2.379,-2.3115,-2.3083,-2.349,-2.3207,-2.3104,-2.2971,-2.1868,-2.1053,-2.0595,-2.0537,-2.0576,-2.0576,-2.0576,-2.0576,-2.0576,-2.0576,-2.0566,-2.0489,-1.9942,-1.9537,-1.9112,-1.7804,-1.6817,-1.613,-1.5295,-1.4646,-1.4267,-1.4168,-1.4137,-1.4129,-1.4137,-1.4201,-1.4338,-1.3962,-1.3831,-1.4003,-1.3297,-1.2891,-1.2749,-1.2601,-1.2733,-1.3194,-1.3322,-1.3762,-1.4601,-1.471,-1.4858,-1.5254,-1.5308,-1.5308,-1.5308,-1.5404,-1.5764,-1.6373,-1.7006,-1.7798,-1.859,-1.948,-1.9947,-1.9868,-2.0633,-2.0866,-2.0431,-2.181,-2.3393,-2.4618,-2.5621,-2.6312,-2.6703,-2.6953,-2.6997,-2.7026,-2.7563,-2.794,-2.7998,-2.8492,-2.8898,-2.8913,-2.9015,-2.9334,-2.9697,-2.9842,-3.006,-3.0572,-3.0762,-3.0821,-3.0866,-3.0911,-3.0631,-3.0251,-2.9944,-2.9842,-2.9827,-2.9769,-2.9592,-2.9139,-2.8719,-2.8473,-2.8385,-2.8453,-2.8373,-2.8025,-2.8226,-2.8535,-2.8381,-2.8365,-2.8543,-2.8919,-2.915,-2.8996,-2.8496,-2.8222,-2.781,-2.4628,-2.4135,-2.3963,-2.4114,-2.4279,-2.3939,-2.3732,-2.3608,-2.2406,-2.1572,-2.1172,-2.0752,-2.0654,-2.0576,-2.0576,-2.0576,-2.0576,-2.0576,-2.0576,-2.0644,-2.0731,-2.0285,-1.964,-1.9221,-1.8317,-1.6909,-1.613,-1.538,-1.4618,-1.4275,-1.4137,-1.4129,-1.4281,-1.4633,-1.4982,-1.4601,-1.4649,-1.5263,-1.4412,-1.3734,-1.3302,-1.3097,-1.3044,-1.31,-1.397,-1.4414,-1.465,-1.5621,-1.6182,-1.6249,-1.6218,-1.6296,-1.6285,-1.6693,-1.728,-1.7824,-1.8,-1.8477,-1.953,-2.0263,-2.063,-2.068,-2.1663,-2.1964,-2.1488,-2.3419,-2.5251,-2.6237,-2.6587,-2.6727,-2.6823,-2.7287,-2.7592,-2.7665,-2.8216,-2.8594,-2.8652,-2.9145,-2.9537,-2.9552,-3.0002,-3.0408,-3.0453,-3.0527,-3.0704,-3.1131,-3.1219,-3.1321,-3.1595,-3.1637,-3.1694,-3.1489,-3.1028,-3.0616,-3.0543,-3.0352,-3.044,-3.0478,-3.0274,-2.9977,-2.9863,-3.0109,-3.0339,-2.9505,-2.9658,-2.9759,-2.9626,-2.964,-2.9621,-2.9617,-2.9837,-2.9968,-2.9257,-2.8889,-2.8559,-2.5913,-2.583,-2.4819,-2.4734,-2.521,-2.5029,-2.5287,-2.5656,-2.3991,-2.3125,-2.288,-2.182,-2.1134,-2.0576,-2.0576,-2.0576,-2.0576,-2.0576,-2.0576,-2.0644,-2.0654,-2.0643,-2.0476,-1.9976,-1.9294,-1.866,-1.748,-1.643,-1.5733,-1.5289,-1.533,-1.5745,-1.5816,-1.5965,-1.6167,-1.5965,-1.6035,-1.6306,-1.553,-1.4977,-1.4726,-1.3872,-1.4022,-1.5142,-1.4985,-1.5191,-1.589,-1.6287,-1.6374,-1.6374,-1.6374,-1.6524,-1.6832,-1.7101,-1.7655,-1.8536,-1.8931,-1.9485,-2.0288,-2.0898,-2.1392,-2.1689,-2.2776,-2.3151,-2.2684,-2.4391,-2.5895,-2.6587,-2.6779,-2.691,-2.7287,-2.7523,-2.7882,-2.8274,-2.8983,-2.9361,-2.9261,-3.0132,-3.0631,-3.0323,-3.0866,-3.1263,-3.1087,-3.1204,-3.1422,-3.161,-3.1667,-3.1766,-3.1936,-3.2033,-3.213,-3.213,-3.1946,-3.1819,-3.1634,-3.1693,-3.1741,-3.1767,-3.148,-3.1166,-3.1151,-3.1254,-3.1299,-3.0721,-3.1011,-3.0958,-3.0526,-3.0486,-3.0449,-3.0321,-3.0,-2.9941,-2.9572,-2.9303,-2.8889,-2.7103,-2.6928,-2.5505,-2.5242,-2.583,-2.5891,-2.64,-2.6964,-2.5294,-2.4345,-2.4166,-2.2818,-2.175,-2.1016,-2.0858,-2.0731,-2.0731,-2.0722,-2.0731,-2.0731,-2.0799,-2.0991,-2.1217,-2.073,-2.0294,-1.9936,-1.8859,-1.7712,-1.6773,-1.6289,-1.6385,-1.6862,-1.6941,-1.7001,-1.7139,-1.7001,-1.7001,-1.7139,-1.6455,-1.6105,-1.5957,-1.4882,-1.4889,-1.6141,-1.5649,-1.5699,-1.6678,-1.6677,-1.6555,-1.6441,-1.6602,-1.6853,-1.7157,-1.7656,-1.8311,-1.9144,-1.9883,-2.0623,-2.1332,-2.181,-2.2299,-2.287,-2.392,-2.4326,-2.4133,-2.5224,-2.6297,-2.6741,-2.7021,-2.7384,-2.7636,-2.8042,-2.8463,-2.8913,-2.9624,-3.0003,-2.9973,-3.0836,-3.1248,-3.0925,-3.145,-3.1921,-3.1709,-3.1807,-3.1977,-3.2104,-3.2241,-3.2351,-3.2422,-3.2625,-3.2826,-3.2826,-3.3024,-3.2902,-3.2594,-3.2602,-3.2833,-3.2982,-3.2661,-3.2609,-3.2491,-3.2644,-3.2612,-3.2474,-3.2556,-3.2465,-3.2024,-3.1769,-3.1214,-3.0859,-3.057,-3.0228,-2.9782,-2.9605,-2.9499,-2.7926,-2.7092,-2.6163,-2.583,-2.5819,-2.6047,-2.6625,-2.7476,-2.5848,-2.4933,-2.4509,-2.3597,-2.2644,-2.1829,-2.1514,-2.1215,-2.1138,-2.1128,-2.1138,-2.1158,-2.1359,-2.1471,-2.1507,-2.1624,-2.1308,-2.0584,-1.9955,-1.8965,-1.7576,-1.7082,-1.6862,-1.6941,-1.701,-1.7345,-1.7755,-1.7276,-1.7276,-1.7833,-1.7207,-1.6802,-1.6724,-1.6053,-1.5558,-1.556,-1.5528,-1.5867,-1.6284,-1.6907,-1.7063,-1.6472,-1.7153,-1.7445,-1.7434,-1.8853,-1.9725,-1.9865,-2.0798,-2.1924,-2.2923,-2.3107,-2.3442,-2.4096,-2.516,-2.5588,-2.5117,-2.603,-2.6712,-2.6846,-2.7472,-2.7879,-2.7897,-2.8724,-2.9406,-2.9595,-3.0132,-3.0497,-3.0555,-3.1072,-3.1278,-3.1379,-3.1849,-3.2281,-3.2266,-3.2281,-3.2501,-3.2718,-3.3024,-3.3391,-3.3594,-3.3815,-3.3951,-3.4018,-3.4118,-3.4052,-3.3061,-3.3219,-3.3547,-3.3668,-3.3889,-3.4153,-3.4268,-3.4284,-3.4137,-3.3991,-3.3777,-3.3609,-3.3532,-3.3048,-3.2276,-3.1808,-3.1576,-3.1188,-3.056,-3.0399,-3.0359,-2.8075,-2.7406,-2.7139,-2.7058,-2.7058,-2.7128,-2.7718,-2.8383,-2.7464,-2.6628,-2.5853,-2.4934,-2.3822,-2.2755,-2.2829,-2.222,-2.1302,-2.1215,-2.1195,-2.1252,-2.1262,-2.1395,-2.1507,-2.1548,-2.1578,-2.1308,-2.0611,-1.9713,-1.8701,-1.8232,-1.8163,-1.8279,-1.8307,-1.8452,-1.8519,-1.7969,-1.7969,-1.8519,-1.7599,-1.712,-1.7207,-1.6922,-1.6789,-1.6779,-1.6333,-1.6699,-1.7843,-1.8326,-1.8423,-1.8189,-1.8816,-1.9387,-1.9737,-2.0656,-2.1054,-2.0907,-2.1738,-2.263,-2.338,-2.4173,-2.4852,-2.5486,-2.6275,-2.6573,-2.6419,-2.6663,-2.6989,-2.7246,-2.7919,-2.8388,-2.8618,-2.9188,-2.9798,-3.0176,-3.0542,-3.0807,-3.1102,-3.1652,-3.2048,-3.1879,-3.2296,-3.2879,-3.3355,-3.3614,-3.3802,-3.3903,-3.4219,-3.4463,-3.4607,-3.4814,-3.4911,-3.4833,-3.5052,-3.5174,-3.4609,-3.4333,-3.4415,-3.4464,-3.461,-3.4593,-3.4691,-3.4691,-3.456,-3.4496,-3.4438,-3.4253,-3.3988,-3.3516,-3.2851,-3.263,-3.2386,-3.2311,-3.1541,-3.1506,-3.1438,-2.8155,-2.7637,-2.8051,-2.8051,-2.7891,-2.8211,-2.8621,-2.9118,-2.8542,-2.7891,-2.7151,-2.5973,-2.4935,-2.4309,-2.397,-2.3426,-2.2387,-2.2032,-2.1776,-2.1704,-2.1558,-2.1482,-2.1614,-2.1558,-2.1655,-2.169,-2.1014,-2.0387,-1.9829,-1.9323,-1.9249,-1.9391,-1.9235,-1.9152,-1.9075,-1.8664,-1.8664,-1.8854,-1.8152,-1.7745,-1.7755,-1.755,-1.7687,-1.793,-1.7465,-1.7714,-1.8839,-1.9293,-1.9377,-1.9361,-2.0248,-2.1244,-2.2078,-2.2596,-2.2587,-2.223,-2.3031,-2.4026,-2.4729,-2.5374,-2.5931,-2.6505,-2.6959,-2.7152,-2.7137,-2.713,-2.7262,-2.7741,-2.8458,-2.9066,-2.9315,-2.974,-3.0221,-3.0733,-3.1029,-3.1263,-3.1595,-3.2336,-3.2772,-3.2879,-3.3108,-3.363,-3.4202,-3.4448,-3.4577,-3.4752,-3.5018,-3.5203,-3.5261,-3.5459,-3.5582,-3.5357,-3.5582,-3.5688,-3.5402,-3.5174,-3.5038,-3.5055,-3.4835,-3.4883,-3.4899,-3.4899,-3.4947,-3.4947,-3.4847,-3.4648,-3.4313,-3.3901,-3.3656,-3.3433,-3.3609,-3.3663,-3.3123,-3.2633,-3.2479,-2.8303,-2.7799,-2.8633,-2.8633,-2.8131,-2.8937,-2.9341,-2.9263,-2.8791,-2.8462,-2.8131,-2.6603,-2.6136,-2.6018,-2.5049,-2.4592,-2.4521,-2.3679,-2.299,-2.2829,-2.2069,-2.1797,-2.1873,-2.1873,-2.1873,-2.1863,-2.1373,-2.1081,-2.0864,-2.0307,-2.0,-1.9891,-1.9593,-1.9404,-1.9274,-1.9152,-1.9208,-1.9208,-1.8808,-1.8586,-1.8442,-1.8104,-1.8172,-1.87,-1.8726,-1.8806,-1.9009,-1.9761,-2.0026,-1.9734,-2.12,-2.2896,-2.4055,-2.4352,-2.4204,-2.3932,-2.4737,-2.6018,-2.7118,-2.6693,-2.662,-2.7063,-2.7233,-2.7335,-2.7401,-2.7416,-2.7735,-2.8592,-2.9208,-2.9752,-3.0152,-3.0557,-3.0911,-3.1278,-3.1522,-3.1792,-3.2321,-3.2971,-3.3665,-3.4118,-3.4184,-3.4382,-3.4754,-3.488,-3.4927,-3.5203,-3.5402,-3.5599,-3.5681,-3.5873,-3.595,-3.5907,-3.5994,-3.6097,-3.5994,-3.5907,-3.5705,-3.5498,-3.5148,-3.4977,-3.4947,-3.4899,-3.5008,-3.5055,-3.5374,-3.5206,-3.5324,-3.4982,-3.501,-3.4899,-3.5059,-3.4966,-3.4471,-3.3955,-3.3488,-2.9028,-2.8858,-2.9365,-2.9468,-2.9209,-2.9534,-2.9689,-2.9689,-2.9456,-2.904,-2.8462,-2.7891,-2.7277,-2.6711,-2.6511,-2.6294,-2.5739,-2.5368,-2.4526,-2.315,-2.2241,-2.2176,-2.2553,-2.2628,-2.2628,-2.2531,-2.1889,-2.1414,-2.1188,-2.1031,-2.0715,-2.0128,-2.0043,-1.979,-1.9515,-1.8931,-1.8798,-1.9341,-1.8931,-1.8721,-1.8931,-1.9198,-1.932,-1.9177,-1.9518,-1.9901,-2.0411,-2.1121,-2.1582,-2.18,-2.2923,-2.39,-2.4708,-2.5176,-2.5406,-2.5593,-2.5952,-2.6645,-2.7366,-2.7358,-2.7255,-2.7458,-2.7745,-2.7929,-2.8042,-2.8238,-2.8722,-2.9565,-3.0094,-3.0606,-3.1274,-3.1566,-3.1721,-3.1751,-3.148,-3.1905,-3.2917,-3.3511,-3.4118,-3.4643,-3.4723,-3.4897,-3.5253,-3.5453,-3.5793,-3.5994,-3.6241,-3.6409,-3.6516,-3.6474,-3.655,-3.6385,-3.6468,-3.655,-3.6409,-3.635,-3.6266,-3.5985,-3.5588,-3.527,-3.5148,-3.5102,-3.5224,-3.5357,-3.5698,-3.5856,-3.6002,-3.6044,-3.6022,-3.6087,-3.604,-3.5875,-3.561,-3.5279,-3.4871,-2.9419,-2.9419,-2.9689,-2.9779,-2.9779,-2.9779,-2.9779,-2.9779,-2.9779,-2.9534,-2.9106,-2.8712,-2.844,-2.7957,-2.7895,-2.7553,-2.7004,-2.6686,-2.5637,-2.4127,-2.3117,-2.3021,-2.343,-2.3463,-2.335,-2.3202,-2.2894,-2.2519,-2.2008,-2.223,-2.1942,-2.13,-2.0945,-2.0495,-1.9993,-1.9281,-1.9198,-1.9528,-1.9121,-1.911,-1.9715,-2.0053,-2.0226,-2.0333,-2.0677,-2.1187,-2.1803,-2.2298,-2.2652,-2.3207,-2.4118,-2.509,-2.5851,-2.6322,-2.6573,-2.6805,-2.6938,-2.7203,-2.7575,-2.7575,-2.756,-2.766,-2.8027,-2.8304,-2.84,-2.8716,-2.9422,-3.0385,-3.0678,-3.124,-3.2186,-3.2438,-3.2501,-3.2718,-3.2296,-3.2555,-3.3665,-3.4218,-3.4578,-3.4961,-3.5102,-3.5362,-3.5827,-3.5941,-3.6426,-3.6609,-3.6748,-3.6908,-3.693,-3.697,-3.6811,-3.6771,-3.6891,-3.6891,-3.6869,-3.6851,-3.6834,-3.6492,-3.6054,-3.5776,-3.5599,-3.5599,-3.5671,-3.5899,-3.618,-3.6239,-3.6364,-3.6631,-3.6742,-3.6851,-3.6985,-3.702,-3.6897,-3.6807,-3.6445,-2.9419,-2.9419,-2.9702,-2.9792,-2.9869,-2.9869,-2.9856,-2.9856,-2.9856,-2.9934,-2.9831,-2.9353,-2.9406,-2.9821,-2.8961,-2.8525,-2.8486,-2.7523,-2.6655,-2.5834,-2.5004,-2.4554,-2.4329,-2.4422,-2.4253,-2.3879,-2.412,-2.4024,-2.3486,-2.3732,-2.3746,-2.2981,-2.2196,-2.1464,-2.0874,-2.0248,-2.0053,-2.0118,-1.977,-2.0085,-2.0996,-2.073,-2.0899,-2.1854,-2.1916,-2.2224,-2.2786,-2.3027,-2.3207,-2.3433,-2.4824,-2.6108,-2.7188,-2.756,-2.7473,-2.7494,-2.756,-2.761,-2.761,-2.771,-2.776,-2.786,-2.8255,-2.8384,-2.8575,-2.9044,-2.989,-3.1102,-3.1212,-3.175,-3.2962,-3.3219,-3.3459,-3.3917,-3.3563,-3.3767,-3.4643,-3.4787,-3.4961,-3.5224,-3.5407,-3.5694,-3.6276,-3.6199,-3.6451,-3.6713,-3.6788,-3.6829,-3.6908,-3.697,-3.7027,-3.7066,-3.7143,-3.722,-3.7143,-3.7301,-3.7321,-3.717,-3.6729,-3.651,-3.6197,-3.6155,-3.6305,-3.6533,-3.6716,-3.6751,-3.6985,-3.7361,-3.7596,-3.7667,-3.7861,-3.8156,-3.808,-3.7775,-3.738,-2.9702,-2.9702,-2.9934,-2.9998,-3.0088,-3.0152,-3.0228,-3.0228,-3.0228,-3.0228,-3.0216,-3.0126,-3.0126,-3.033,-3.0037,-2.9667,-2.9241,-2.863,-2.8023,-2.7335,-2.6797,-2.6045,-2.5484,-2.5368,-2.5322,-2.5169,-2.4886,-2.4529,-2.4434,-2.4649,-2.4495,-2.4001,-2.3363,-2.2773,-2.2313,-2.1558,-2.1339,-2.1486,-2.1313,-2.1353,-2.1667,-2.1717,-2.1729,-2.2039,-2.2163,-2.2531,-2.3088,-2.359,-2.4086,-2.4536,-2.5287,-2.6108,-2.6945,-2.7408,-2.7675,-2.761,-2.766,-2.7795,-2.8027,-2.8125,-2.8271,-2.8701,-2.9058,-2.9393,-2.9422,-2.9837,-3.0817,-3.1925,-3.2256,-3.2922,-3.431,-3.4399,-3.4431,-3.4719,-3.4544,-3.4399,-3.448,-3.4675,-3.5024,-3.5333,-3.5616,-3.6028,-3.6385,-3.6609,-3.6713,-3.6891,-3.6891,-3.6869,-3.6987,-3.7009,-3.7066,-3.7182,-3.7297,-3.7372,-3.7503,-3.7667,-3.7773,-3.7773,-3.756,-3.738,-3.7044,-3.6829,-3.7044,-3.7343,-3.7649,-3.7737,-3.8096,-3.8473,-3.8523,-3.8314,-3.8364,-3.8451,-3.8368,-3.814,-3.7747,-2.9998,-3.0088,-3.0152,-3.0216,-3.0216,-3.0355,-3.0368,-3.0368,-3.0368,-3.0444,-3.052,-3.0533,-3.0609,-3.0672,-3.0659,-3.0485,-3.0131,-2.9451,-2.9061,-2.8986,-2.8463,-2.7537,-2.6663,-2.6389,-2.6321,-2.6045,-2.5894,-2.5685,-2.5533,-2.5755,-2.564,-2.5188,-2.4659,-2.4157,-2.3598,-2.2687,-2.2274,-2.2336,-2.2207,-2.2113,-2.2482,-2.2531,-2.2882,-2.3135,-2.3314,-2.3669,-2.4271,-2.4711,-2.5077,-2.5287,-2.5563,-2.6037,-2.7034,-2.769,-2.7989,-2.791,-2.8076,-2.8367,-2.8543,-2.8638,-2.8779,-2.912,-2.9528,-2.975,-2.9962,-3.0573,-3.175,-3.2464,-3.3045,-3.4008,-3.4997,-3.5237,-3.5249,-3.5369,-3.5448,-3.5283,-3.4864,-3.5161,-3.5453,-3.5766,-3.6028,-3.6284,-3.665,-3.6891,-3.697,-3.697,-3.697,-3.7027,-3.7105,-3.7143,-3.7223,-3.7449,-3.7667,-3.781,-3.8,-3.8198,-3.8373,-3.8373,-3.8337,-3.8172,-3.7923,-3.7613,-3.7823,-3.8162,-3.8473,-3.8743,-3.8862,-3.8939,-3.8725,-3.8585,-3.8634,-3.8603,-3.8541,-3.8491,-3.8068,-3.0228,-3.0368,-3.0444,-3.0444,-3.0444,-3.0444,-3.0596,-3.0583,-3.0659,-3.0735,-3.0898,-3.0911,-3.1048,-3.111,-3.1172,-3.1263,-3.1344,-3.0244,-2.9903,-2.9868,-2.9519,-2.8684,-2.7683,-2.7617,-2.7404,-2.7056,-2.731,-2.704,-2.6812,-2.7108,-2.6973,-2.6455,-2.6022,-2.5515,-2.49,-2.3896,-2.3381,-2.3452,-2.3219,-2.3145,-2.3482,-2.3611,-2.4047,-2.4567,-2.4908,-2.5161,-2.5631,-2.5903,-2.5918,-2.5946,-2.5614,-2.6309,-2.75,-2.822,-2.8572,-2.8542,-2.8795,-2.9058,-2.9212,-2.9241,-2.9361,-2.9601,-3.0033,-3.0092,-3.0589,-3.1691,-3.2696,-3.3208,-3.3849,-3.4752,-3.5562,-3.5907,-3.6105,-3.6172,-3.6274,-3.6232,-3.6122,-3.602,-3.6122,-3.6468,-3.6527,-3.6731,-3.6891,-3.7048,-3.7066,-3.7126,-3.7126,-3.7261,-3.7374,-3.7431,-3.7667,-3.7964,-3.8132,-3.8314,-3.8504,-3.8737,-3.8894,-3.898,-3.9017,-3.8924,-3.8792,-3.8645,-3.8748,-3.8892,-3.8902,-3.896,-3.9064,-3.9007,-3.8873,-3.8873,-3.8931,-3.8815,-3.8676,-3.8658,-3.8407,-3.0368,-3.0432,-3.0622,-3.0609,-3.0685,-3.0836,-3.1172,-3.1649,-3.1723,-3.1736,-3.1809,-3.1796,-3.1809,-3.1882,-3.1869,-3.2136,-3.2542,-3.1473,-3.0615,-2.9631,-2.9602,-2.938,-2.9002,-2.9002,-2.8939,-2.8684,-2.8325,-2.8143,-2.8078,-2.7829,-2.7656,-2.7458,-2.7102,-2.667,-2.6557,-2.5702,-2.5371,-2.548,-2.5309,-2.4984,-2.4932,-2.5239,-2.5371,-2.5481,-2.5783,-2.6026,-2.6119,-2.6172,-2.6347,-2.6649,-2.6688,-2.7,-2.771,-2.8497,-2.8998,-2.9243,-2.9271,-2.9524,-2.9951,-3.0107,-3.036,-3.1038,-3.1602,-3.2252,-3.2281,-3.3193,-3.4047,-3.4507,-3.4949,-3.5636,-3.6458,-3.6995,-3.7111,-3.715,-3.7226,-3.7264,-3.7132,-3.6706,-3.6563,-3.6696,-3.6913,-3.7048,-3.722,-3.7411,-3.7392,-3.7279,-3.7374,-3.7541,-3.7667,-3.7756,-3.8062,-3.84,-3.8554,-3.8752,-3.9008,-3.9216,-3.9364,-3.9483,-3.9532,-3.9483,-3.9364,-3.9287,-3.9227,-3.9165,-3.9129,-3.9202,-3.9301,-3.9354,-3.9283,-3.9256,-3.9183,-3.9082,-3.898,-3.8933,-3.898,-3.0609,-3.0672,-3.0761,-3.0849,-3.0911,-3.1334,-3.1529,-3.1736,-3.2376,-3.2434,-3.2218,-3.2434,-3.2577,-3.2648,-3.2648,-3.2989,-3.34,-3.2825,-3.1665,-3.074,-3.0456,-3.045,-3.0464,-3.0329,-3.0208,-2.9704,-2.9331,-2.9156,-2.9093,-2.8967,-2.8889,-2.8826,-2.8492,-2.8443,-2.8332,-2.7457,-2.7023,-2.6929,-2.6476,-2.6182,-2.6321,-2.626,-2.64,-2.6369,-2.6909,-2.7405,-2.752,-2.7709,-2.7984,-2.8259,-2.8248,-2.8031,-2.8169,-2.9291,-3.0092,-3.0086,-3.0484,-3.063,-3.1016,-3.1145,-3.1475,-3.2308,-3.2815,-3.3256,-3.3822,-3.4656,-3.5257,-3.5641,-3.601,-3.6635,-3.7058,-3.7487,-3.7703,-3.7774,-3.7948,-3.798,-3.77,-3.7288,-3.7055,-3.7206,-3.7376,-3.7469,-3.7632,-3.7774,-3.7879,-3.7826,-3.7861,-3.7998,-3.8165,-3.831,-3.8566,-3.883,-3.8971,-3.9178,-3.9476,-3.9683,-3.9813,-3.9897,-3.9939,-3.9832,-3.9721,-3.9609,-3.9537,-3.9458,-3.9395,-3.9432,-3.9502,-3.9577,-3.9558,-3.9362,-3.9264,-3.9324,-3.9383,-3.9371,-3.95,-3.0849,-3.0986,-3.1123,-3.1198,-3.1334,-3.2015,-3.2173,-3.1969,-3.2875,-3.3199,-3.2706,-3.3143,-3.3478,-3.3533,-3.3602,-3.3955,-3.4032,-3.3787,-3.2703,-3.1392,-3.1485,-3.1567,-3.1552,-3.1379,-3.1175,-3.0286,-2.9997,-3.0011,-3.0072,-3.0072,-2.9752,-2.9936,-3.0011,-2.9771,-2.9671,-2.913,-2.8497,-2.8474,-2.7776,-2.7358,-2.7642,-2.7355,-2.7463,-2.7742,-2.8125,-2.8685,-2.8873,-2.9164,-2.9585,-2.9848,-3.0053,-2.9492,-2.9352,-3.0294,-3.1618,-3.1039,-3.1522,-3.179,-3.1986,-3.2231,-3.2651,-3.3389,-3.3847,-3.4288,-3.5187,-3.6054,-3.6604,-3.6804,-3.7163,-3.7542,-3.7432,-3.7826,-3.808,-3.8147,-3.8455,-3.8389,-3.8036,-3.7819,-3.7826,-3.772,-3.7893,-3.8099,-3.8114,-3.8231,-3.831,-3.8373,-3.8405,-3.848,-3.8651,-3.881,-3.908,-3.9321,-3.9486,-3.9552,-3.9816,-3.9941,-4.0081,-4.0196,-4.0251,-4.0158,-4.006,-4.0041,-3.9941,-3.9717,-3.9661,-3.9703,-3.9731,-3.9804,-3.9693,-3.9427,-3.9502,-3.9675,-3.9766,-3.9832,-3.9939,-3.0986,-3.1061,-3.1676,-3.2015,-3.2232,-3.2932,-3.3561,-3.4192,-3.4394,-3.4461,-3.4177,-3.4312,-3.4618,-3.4853,-3.507,-3.4994,-3.4866,-3.4404,-3.3391,-3.2105,-3.2211,-3.2437,-3.2382,-3.2267,-3.2135,-3.2059,-3.145,-3.0911,-3.0733,-3.0406,-3.0451,-3.0286,-3.048,-3.0555,-3.048,-3.005,-2.9889,-2.986,-2.9434,-2.9177,-2.9174,-2.94,-2.9379,-2.9348,-2.9297,-2.9412,-2.9645,-2.9777,-2.9876,-3.0219,-3.0597,-3.0883,-3.1113,-3.2027,-3.2383,-3.2336,-3.2284,-3.2558,-3.2897,-3.3405,-3.3962,-3.4806,-3.5703,-3.6479,-3.7077,-3.7729,-3.8053,-3.82,-3.834,-3.8609,-3.8615,-3.867,-3.8688,-3.8766,-3.8807,-3.8792,-3.8604,-3.8582,-3.8566,-3.8377,-3.8529,-3.8688,-3.8681,-3.8733,-3.8877,-3.8943,-3.8943,-3.9061,-3.9264,-3.9389,-3.9534,-3.9819,-4.0062,-4.0081,-4.0139,-4.0158,-4.0251,-4.0408,-4.0441,-4.0406,-4.0356,-4.0425,-4.0304,-4.0078,-3.9977,-4.0,-4.004,-4.004,-3.9981,-3.9835,-3.996,-4.008,-4.0099,-4.0138,-4.0158,-3.1569,-3.1909,-3.2245,-3.2648,-3.3199,-3.3919,-3.4192,-3.4394,-3.5073,-3.5219,-3.5073,-3.5434,-3.593,-3.6151,-3.6553,-3.651,-3.6137,-3.532,-3.4513,-3.373,-3.3325,-3.3145,-3.3156,-3.3107,-3.319,-3.3234,-3.2851,-3.2201,-3.1807,-3.1845,-3.1546,-3.1462,-3.169,-3.1747,-3.145,-3.1072,-3.097,-3.0925,-3.0659,-3.0528,-3.0584,-3.091,-3.0753,-3.045,-3.0367,-3.0434,-3.068,-3.1038,-3.1176,-3.1387,-3.1702,-3.2249,-3.2841,-3.3326,-3.3743,-3.3849,-3.3651,-3.388,-3.4491,-3.5126,-3.5619,-3.6352,-3.721,-3.7774,-3.8275,-3.8813,-3.9197,-3.9238,-3.927,-3.9314,-3.9212,-3.9282,-3.9339,-3.9383,-3.9451,-3.9387,-3.9274,-3.9411,-3.9276,-3.9102,-3.9163,-3.9231,-3.9178,-3.9308,-3.9476,-3.9524,-3.9481,-3.9622,-3.9797,-3.9882,-3.9944,-4.0176,-4.0392,-4.0425,-4.0425,-4.0425,-4.0425,-4.0554,-4.0617,-4.0603,-4.0603,-4.0603,-4.055,-4.0364,-4.0327,-4.03,-4.0196,-4.0139,-4.0177,-4.0214,-4.0214,-4.0233,-4.0345,-4.0417,-4.0463,-3.2155,-3.2704,-3.303,-3.3506,-3.4095,-3.4861,-3.4861,-3.4633,-3.577,-3.6039,-3.5627,-3.663,-3.735,-3.7584,-3.7906,-3.8114,-3.7838,-3.6502,-3.5685,-3.4915,-3.4387,-3.3955,-3.4,-3.4188,-3.4406,-3.4447,-3.4143,-3.3837,-3.3027,-3.3024,-3.3002,-3.2879,-3.313,-3.3093,-3.2532,-3.2074,-3.1864,-3.1522,-3.1377,-3.142,-3.1931,-3.1933,-3.1801,-3.1487,-3.1729,-3.1979,-3.2317,-3.2612,-3.2844,-3.2949,-3.3239,-3.363,-3.4307,-3.4708,-3.5198,-3.5679,-3.532,-3.5588,-3.6204,-3.6591,-3.6877,-3.7627,-3.8003,-3.863,-3.9108,-3.9496,-3.9709,-3.9844,-3.9865,-3.9802,-3.9716,-3.9802,-3.9844,-3.9905,-4.0004,-4.0101,-3.989,-3.9909,-4.0002,-3.9882,-3.9819,-3.9735,-3.969,-3.9709,-3.9838,-3.9859,-3.984,-3.9964,-4.0101,-4.0176,-4.0285,-4.0489,-4.0631,-4.0706,-4.0706,-4.0673,-4.066,-4.0693,-4.0739,-4.0725,-4.0745,-4.0745,-4.066,-4.0616,-4.0568,-4.0519,-4.0415,-4.0358,-4.0482,-4.0518,-4.0413,-4.0449,-4.0604,-4.0679,-4.0706,-3.2632,-3.2832,-3.4124,-3.4795,-3.5044,-3.5928,-3.6289,-3.6258,-3.7011,-3.7279,-3.7021,-3.8004,-3.8743,-3.9256,-3.9581,-3.9185,-3.8289,-3.7465,-3.634,-3.5268,-3.5077,-3.5103,-3.5044,-3.5114,-3.5471,-3.5542,-3.5085,-3.4382,-3.402,-3.4003,-3.3903,-3.3853,-3.3853,-3.3681,-3.3235,-3.2971,-3.2772,-3.2477,-3.2664,-3.3224,-3.3908,-3.3614,-3.3706,-3.3964,-3.3905,-3.3727,-3.4038,-3.4235,-3.4393,-3.4704,-3.4809,-3.5213,-3.5715,-3.5901,-3.6583,-3.6777,-3.6353,-3.5523,-3.6742,-3.7355,-3.7779,-3.8564,-3.9094,-3.9686,-3.9924,-4.0022,-4.012,-4.0139,-4.0177,-4.0157,-4.012,-4.0158,-4.0158,-4.0177,-4.025,-4.0307,-4.027,-4.0241,-4.0358,-4.0394,-4.0211,-4.0175,-4.0138,-4.0157,-4.0158,-4.0177,-4.0233,-4.0321,-4.0389,-4.0457,-4.0508,-4.0665,-4.0733,-4.0784,-4.082,-4.0839,-4.082,-4.0808,-4.0842,-4.0861,-4.0851,-4.0862,-4.0901,-4.0851,-4.081,-4.076,-4.0703,-4.0712,-4.0842,-4.079,-4.0665,-4.0745,-4.092,-4.0953,-4.0898,-3.4499,-3.4581,-3.519,-3.5737,-3.6258,-3.6982,-3.7266,-3.7385,-3.7921,-3.8293,-3.8526,-3.9149,-3.9999,-4.0747,-4.0937,-4.0436,-3.9565,-3.872,-3.7689,-3.6384,-3.6242,-3.6266,-3.6417,-3.6478,-3.6724,-3.6614,-3.6457,-3.6225,-3.5633,-3.5061,-3.4828,-3.4761,-3.4764,-3.4591,-3.4038,-3.3786,-3.3563,-3.3423,-3.3563,-3.3971,-3.4444,-3.4509,-3.4604,-3.5275,-3.5004,-3.5116,-3.5311,-3.5468,-3.5548,-3.5755,-3.5817,-3.6285,-3.6801,-3.7061,-3.7498,-3.8404,-3.7905,-3.7755,-3.834,-3.8638,-3.8961,-3.9245,-3.9792,-4.0082,-4.0266,-4.0353,-4.0441,-4.0539,-4.0554,-4.0519,-4.0539,-4.0539,-4.0554,-4.0539,-4.0473,-4.0508,-4.0581,-4.0592,-4.0583,-4.0631,-4.0612,-4.0545,-4.0496,-4.0496,-4.0481,-4.0489,-4.0504,-4.0569,-4.0631,-4.0679,-4.0725,-4.0804,-4.0803,-4.08,-4.0846,-4.0867,-4.0859,-4.0858,-4.0928,-4.0931,-4.0965,-4.0982,-4.0991,-4.0981,-4.09,-4.0894,-4.0935,-4.0914,-4.0883,-4.0883,-4.0889,-4.0894,-4.0925,-4.093,-4.0889,-3.6117,-3.6305,-3.6196,-3.6461,-3.706,-3.7578,-3.7863,-3.8003,-3.8712,-3.927,-3.9799,-4.0483,-4.1385,-4.2096,-4.2101,-4.1622,-4.0753,-3.9943,-3.8992,-3.8148,-3.7559,-3.7345,-3.7468,-3.765,-3.772,-3.7596,-3.7434,-3.7327,-3.7029,-3.6493,-3.5942,-3.5702,-3.5805,-3.5542,-3.5103,-3.4778,-3.4622,-3.4574,-3.4574,-3.5011,-3.5545,-3.5633,-3.5925,-3.6249,-3.6381,-3.6412,-3.6562,-3.6742,-3.6861,-3.6909,-3.7069,-3.7497,-3.7979,-3.8118,-3.8395,-3.9066,-3.8925,-3.9133,-3.9397,-3.963,-3.9916,-4.0061,-4.0213,-4.0403,-4.0481,-4.0545,-4.0598,-4.0752,-4.0765,-4.0778,-4.079,-4.0778,-4.0765,-4.0733,-4.0765,-4.079,-4.0803,-4.0752,-4.072,-4.072,-4.0725,-4.0773,-4.0742,-4.0784,-4.0792,-4.0784,-4.0803,-4.0815,-4.0808,-4.082,-4.0846,-4.0877,-4.0859,-4.0829,-4.0855,-4.089,-4.0898,-4.0906,-4.0945,-4.0971,-4.0964,-4.096,-4.0956,-4.0957,-4.0937,-4.0908,-4.0855,-4.0867,-4.0898,-4.0874,-4.0845,-4.0834,-4.0831,-4.0854,-4.0855,-3.6862,-3.7345,-3.706,-3.6999,-3.7121,-3.7653,-3.8076,-3.8521,-3.9546,-4.0295,-4.0902,-4.1973,-4.283,-4.3318,-4.3206,-4.2527,-4.1227,-4.08,-3.9638,-3.8647,-3.8129,-3.8086,-3.8224,-3.8432,-3.8559,-3.8328,-3.815,-3.8136,-3.8147,-3.7613,-3.7137,-3.6825,-3.679,-3.6435,-3.6177,-3.5958,-3.5848,-3.5848,-3.5891,-3.6429,-3.7124,-3.7471,-3.7765,-3.8308,-3.8559,-3.8656,-3.8649,-3.8514,-3.845,-3.845,-3.8489,-3.8617,-3.8898,-3.8999,-3.9296,-3.9519,-3.9717,-3.9829,-3.9956,-4.0017,-4.012,-4.0334,-4.0545,-4.0673,-4.07,-4.0746,-4.081,-4.081,-4.081,-4.081,-4.081,-4.081,-4.0829,-4.0834,-4.0839,-4.0826,-4.0826,-4.0826,-4.0796,-4.0796,-4.0819,-4.0858,-4.0894,-4.091,-4.0857,-4.084,-4.084,-4.083,-4.0849,-4.0869,-4.0882,-4.0921,-4.0896,-4.0881,-4.0881,-4.089,-4.0898,-4.0879,-4.0899,-4.091,-4.0918,-4.0915,-4.0922,-4.0883,-4.0843,-4.082,-4.0801,-4.0816,-4.0831,-4.0818,-4.0781,-4.0751,-4.0665,-4.0624,-4.0645,-3.7285,-3.7539,-3.7711,-3.7812,-3.7911,-3.9126,-3.9648,-3.9934,-4.0943,-4.1672,-4.2195,-4.3087,-4.3646,-4.3841,-4.3703,-4.2939,-4.1642,-4.1243,-4.0055,-3.9111,-3.864,-3.8709,-3.8813,-3.8878,-3.8886,-3.8847,-3.8656,-3.8584,-3.8646,-3.8418,-3.8413,-3.814,-3.7771,-3.7542,-3.7327,-3.7145,-3.7033,-3.7071,-3.7127,-3.754,-3.7887,-3.8277,-3.8511,-3.8886,-3.9141,-3.9152,-3.908,-3.9289,-3.9345,-3.9364,-3.947,-3.9548,-3.9637,-3.9724,-3.9813,-3.9916,-4.0021,-4.0139,-4.0233,-4.0288,-4.0408,-4.0598,-4.0746,-4.081,-4.081,-4.079,-4.079,-4.081,-4.0848,-4.088,-4.0861,-4.09,-4.0919,-4.0905,-4.0884,-4.0849,-4.0839,-4.0848,-4.0874,-4.0871,-4.0909,-4.0947,-4.0964,-4.0974,-4.0928,-4.0896,-4.0882,-4.0855,-4.0877,-4.0908,-4.091,-4.0912,-4.0887,-4.0898,-4.0917,-4.0897,-4.0898,-4.0873,-4.0857,-4.0859,-4.0847,-4.0849,-4.0834,-4.0784,-4.0752,-4.0725,-4.0711,-4.0765,-4.0761,-4.0732,-4.0688,-4.0662,-4.0545,-4.0394,-4.0381,-3.7508,-3.7844,-3.8486,-3.8674,-3.8728,-4.0034,-4.0822,-4.1216,-4.2026,-4.2848,-4.3471,-4.3899,-4.4199,-4.4221,-4.4204,-4.3296,-4.2254,-4.1694,-4.069,-3.9879,-3.9354,-3.9383,-3.94,-3.937,-3.9331,-3.9331,-3.9197,-3.9117,-3.9129,-3.9082,-3.909,-3.8998,-3.8746,-3.8564,-3.8358,-3.8259,-3.8063,-3.8095,-3.8159,-3.8346,-3.863,-3.8832,-3.9074,-3.9346,-3.9569,-3.9618,-3.9615,-3.9724,-3.9785,-3.9823,-3.9905,-4.0005,-4.0082,-4.0138,-4.0175,-4.0211,-4.0266,-4.0353,-4.0454,-4.0583,-4.0646,-4.0765,-4.079,-4.081,-4.0829,-4.0829,-4.0848,-4.0868,-4.09,-4.0916,-4.0915,-4.0906,-4.0945,-4.0902,-4.0898,-4.0877,-4.089,-4.0896,-4.0944,-4.0959,-4.0996,-4.0996,-4.1008,-4.1011,-4.0962,-4.0925,-4.094,-4.0914,-4.0884,-4.0896,-4.0914,-4.091,-4.0865,-4.089,-4.0929,-4.0881,-4.0842,-4.0847,-4.0825,-4.0813,-4.0791,-4.0789,-4.0731,-4.066,-4.0626,-4.0607,-4.0635,-4.0642,-4.0646,-4.0646,-4.0558,-4.045,-4.0227,-4.0081,-4.0003,-3.7695,-3.8374,-3.9339,-3.9461,-3.927,-4.0133,-4.1063,-4.1955,-4.2702,-4.3545,-4.4261,-4.4438,-4.461,-4.4808,-4.48,-4.3904,-4.2696,-4.2441,-4.1632,-4.0321,-3.9908,-4.0081,-4.0042,-3.992,-3.9743,-3.9664,-3.9603,-3.9576,-3.958,-3.9457,-3.9571,-3.9709,-3.9592,-3.9416,-3.9212,-3.9178,-3.9178,-3.916,-3.9122,-3.9296,-3.9438,-3.9569,-3.9764,-3.9906,-4.008,-4.0116,-4.0098,-4.0133,-4.0187,-4.0172,-4.0206,-4.026,-4.0257,-4.0274,-4.0274,-4.0274,-4.0427,-4.0511,-4.0526,-4.0681,-4.0796,-4.0822,-4.0848,-4.0848,-4.088,-4.0912,-4.092,-4.0955,-4.0981,-4.0954,-4.0916,-4.0906,-4.0929,-4.0949,-4.0937,-4.0932,-4.094,-4.0945,-4.0973,-4.0937,-4.097,-4.1019,-4.1034,-4.1043,-4.0992,-4.0976,-4.0988,-4.0954,-4.091,-4.089,-4.0891,-4.0881,-4.0836,-4.0824,-4.0837,-4.08,-4.079,-4.0791,-4.0771,-4.0726,-4.0711,-4.0687,-4.0622,-4.0539,-4.0539,-4.0549,-4.0534,-4.0504,-4.0427,-4.0325,-4.027,-4.0157,-3.9924,-3.9775,-3.9687,-3.8453,-3.9339,-4.0099,-4.0642,-4.1031,-4.1782,-4.239,-4.2905,-4.3675,-4.4243,-4.4546,-4.4688,-4.4881,-4.5023,-4.4925,-4.4206,-4.291,-4.2661,-4.1857,-4.0366,-4.0232,-4.0188,-4.02,-4.0204,-4.0101,-4.0043,-4.0005,-3.9986,-4.0005,-3.9909,-4.0024,-4.0191,-4.0224,-4.0154,-3.9929,-3.9869,-3.9869,-3.9889,-3.9929,-4.0024,-4.0024,-4.0172,-4.0296,-4.0315,-4.0472,-4.0544,-4.0482,-4.0524,-4.0538,-4.0482,-4.0496,-4.0511,-4.0511,-4.0524,-4.0565,-4.0578,-4.0706,-4.0734,-4.0752,-4.0837,-4.0878,-4.0906,-4.0905,-4.0897,-4.0842,-4.0937,-4.0999,-4.1039,-4.1007,-4.0979,-4.0957,-4.0996,-4.1035,-4.1054,-4.1051,-4.1021,-4.1013,-4.0987,-4.0972,-4.0875,-4.0872,-4.089,-4.0908,-4.0974,-4.0959,-4.0953,-4.0968,-4.0983,-4.0961,-4.087,-4.0832,-4.0824,-4.0807,-4.0772,-4.0759,-4.0862,-4.0738,-4.0655,-4.0617,-4.0568,-4.0559,-4.0607,-4.0564,-4.0523,-4.0508,-4.0489,-4.0406,-4.0302,-4.0081,-3.9962,-3.9962,-3.9922,-3.9754,-3.9524,-3.9287,-3.9426,-4.026,-4.092,-4.1626,-4.2375,-4.2867,-4.3188,-4.3497,-4.4014,-4.4153,-4.4085,-4.4414,-4.4467,-4.4497,-4.4614,-4.4018,-4.2643,-4.2553,-4.1979,-4.0511,-4.0423,-4.0449,-4.0436,-4.037,-4.0369,-4.0354,-4.0323,-4.0326,-4.0345,-4.0429,-4.0488,-4.0551,-4.0641,-4.0575,-4.0462,-4.0395,-4.0303,-4.0319,-4.0365,-4.0369,-4.0395,-4.05,-4.061,-4.0642,-4.0707,-4.081,-4.078,-4.081,-4.084,-4.0759,-4.0768,-4.0779,-4.0798,-4.0798,-4.0839,-4.0839,-4.084,-4.0874,-4.0896,-4.093,-4.0964,-4.1011,-4.101,-4.0954,-4.0871,-4.0935,-4.0967,-4.0995,-4.0976,-4.0955,-4.0928,-4.0989,-4.1013,-4.1028,-4.1003,-4.0974,-4.0961,-4.0915,-4.0901,-4.0809,-4.0781,-4.0801,-4.0791,-4.0868,-4.0908,-4.0916,-4.0923,-4.102,-4.108,-4.0886,-4.0856,-4.0893,-4.0784,-4.0667,-4.081,-4.1073,-4.0901,-4.0543,-4.0566,-4.0662,-4.0504,-4.0534,-4.0519,-4.0473,-4.0406,-4.0319,-4.0212,-4.0082,-3.9901,-3.9791,-3.9747,-3.966,-3.959,-3.9364,-3.9082,-4.0466,-4.1119,-4.1843,-4.2497,-4.3032,-4.3128,-4.3346,-4.3558,-4.3568,-4.3327,-4.2928,-4.3828,-4.3844,-4.3357,-4.4081,-4.3595,-4.2415,-4.2238,-4.161,-4.1028,-4.0723,-4.074,-4.0729,-4.0703,-4.0655,-4.0649,-4.0636,-4.059,-4.0629,-4.0645,-4.0722,-4.0811,-4.0801,-4.0824,-4.0789,-4.0713,-4.0629,-4.0632,-4.0641,-4.0621,-4.0655,-4.0742,-4.0791,-4.0809,-4.0882,-4.0928,-4.0922,-4.0953,-4.0959,-4.0941,-4.0968,-4.0953,-4.0932,-4.0897,-4.0897,-4.0904,-4.0914,-4.095,-4.0991,-4.1004,-4.1015,-4.1035,-4.1001,-4.097,-4.0957,-4.0949,-4.0914,-4.0889,-4.0831,-4.0824,-4.0829,-4.083,-4.0849,-4.0848,-4.0846,-4.0829,-4.081,-4.0801,-4.0801,-4.0761,-4.0751,-4.074,-4.0718,-4.0773,-4.0868,-4.1248,-4.1409,-4.1801,-4.1674,-4.0875,-4.0907,-4.1089,-4.0906,-4.0569,-4.0731,-4.0977,-4.09,-4.0527,-4.0873,-4.0969,-4.0758,-4.0473,-4.0406,-4.0356,-4.025,-4.0139,-3.9963,-3.984,-3.9754,-3.9637,-3.9439,-3.9489,-3.9439,-3.9227,-3.9017,-4.1253,-4.2132,-4.2814,-4.3063,-4.2934,-4.2798,-4.305,-4.3512,-4.3197,-4.2928,-4.2889,-4.3153,-4.3156,-4.3231,-4.3531,-4.2954,-4.2477,-4.2073,-4.1607,-4.1179,-4.0859,-4.0869,-4.0859,-4.0849,-4.0839,-4.0839,-4.0818,-4.0796,-4.0819,-4.0837,-4.0864,-4.0944,-4.0925,-4.0961,-4.0957,-4.093,-4.0881,-4.0863,-4.0844,-4.0851,-4.0863,-4.0911,-4.0933,-4.095,-4.0972,-4.1007,-4.1007,-4.101,-4.1007,-4.1,-4.1016,-4.1003,-4.0979,-4.0955,-4.0955,-4.0959,-4.0991,-4.105,-4.1073,-4.1073,-4.1058,-4.1051,-4.1023,-4.1058,-4.1033,-4.0991,-4.0859,-4.0751,-4.074,-4.0754,-4.0754,-4.0757,-4.0757,-4.0749,-4.0751,-4.0729,-4.0718,-4.0703,-4.0692,-4.0655,-4.0642,-4.0642,-4.0617,-4.061,-4.0805,-4.1378,-4.1867,-4.2217,-4.2325,-4.1513,-4.1234,-4.1447,-4.1088,-4.0765,-4.055,-4.07,-4.0658,-4.0604,-4.0938,-4.102,-4.0652,-4.0389,-4.0321,-4.0195,-4.0022,-3.9857,-3.9656,-3.9519,-3.9408,-3.9163,-3.897,-3.9165,-3.9245,-3.8998,-3.8844,-4.1421,-4.2377,-4.2701,-4.2799,-4.2667,-4.2231,-4.2343,-4.2728,-4.2527,-4.2274,-4.198,-4.2364,-4.2469,-4.2305,-4.2598,-4.243,-4.1694,-4.1578,-4.1296,-4.1082,-4.0888,-4.0888,-4.0888,-4.0888,-4.0878,-4.0888,-4.0888,-4.0869,-4.0924,-4.0967,-4.1013,-4.1033,-4.1032,-4.1032,-4.1033,-4.1015,-4.1035,-4.1012,-4.1006,-4.1023,-4.1023,-4.1027,-4.1023,-4.1001,-4.1009,-4.1033,-4.1029,-4.103,-4.1033,-4.1048,-4.1047,-4.1021,-4.0996,-4.0991,-4.1021,-4.1023,-4.1071,-4.1094,-4.111,-4.1101,-4.1051,-4.1022,-4.1022,-4.1052,-4.1041,-4.0973,-4.0788,-4.061,-4.0649,-4.0688,-4.0687,-4.0672,-4.0692,-4.0692,-4.0667,-4.0655,-4.0636,-4.0615,-4.0593,-4.0534,-4.0519,-4.0519,-4.0504,-4.0492,-4.0809,-4.1585,-4.1877,-4.1915,-4.2278,-4.2253,-4.2033,-4.2146,-4.1555,-4.0982,-4.077,-4.0528,-4.0547,-4.0611,-4.0826,-4.0826,-4.0459,-4.0213,-4.0042,-3.9899,-3.9769,-3.9537,-3.9287,-3.9127,-3.8971,-3.8737,-3.8491,-3.8548,-3.8651,-3.8658,-3.8554,-4.1136,-4.2077,-4.1847,-4.2052,-4.2305,-4.1588,-4.1418,-4.162,-4.1684,-4.1274,-4.0827,-4.1493,-4.1567,-4.1419,-4.1781,-4.1694,-4.1276,-4.1102,-4.1102,-4.0888,-4.0888,-4.0888,-4.0888,-4.0888,-4.0888,-4.0888,-4.0897,-4.0915,-4.0929,-4.0992,-4.1066,-4.1114,-4.1108,-4.109,-4.108,-4.1074,-4.1072,-4.103,-4.1011,-4.0996,-4.1053,-4.1074,-4.1054,-4.0996,-4.1011,-4.1049,-4.1066,-4.1066,-4.108,-4.1091,-4.1094,-4.1053,-4.103,-4.1006,-4.1052,-4.1074,-4.1112,-4.1108,-4.1101,-4.1111,-4.1042,-4.1006,-4.0987,-4.0963,-4.0915,-4.0889,-4.0694,-4.0568,-4.0593,-4.0593,-4.0582,-4.0582,-4.0582,-4.0582,-4.0568,-4.0568,-4.0559,-4.0564,-4.0534,-4.0473,-4.0389,-4.0389,-4.0319,-4.0323,-4.0502,-4.1528,-4.1867,-4.1665,-4.1971,-4.2371,-4.2278,-4.2297,-4.1648,-4.0941,-4.0731,-4.0559,-4.0559,-4.0653,-4.0644,-4.0511,-4.0138,-3.9901,-3.9705,-3.9561,-3.9383,-3.9127,-3.8894,-3.8759,-3.856,-3.8198,-3.8016,-3.7877,-3.7946,-3.8083,-3.8267,-4.1237,-4.1501,-4.1515,-4.1685,-4.1833,-4.1061,-4.0761,-4.0863,-4.0991,-4.0919,-4.0745,-4.0983,-4.113,-4.1071,-4.1196,-4.1146,-4.0994,-4.0906,-4.0888,-4.0917,-4.0917,-4.0906,-4.0897,-4.0906,-4.0897,-4.0888,-4.0906,-4.094,-4.0983,-4.1045,-4.1074,-4.1113,-4.1101,-4.107,-4.1081,-4.1072,-4.1031,-4.0961,-4.0947,-4.092,-4.0964,-4.0953,-4.0939,-4.0877,-4.0863,-4.0901,-4.0922,-4.0959,-4.1022,-4.1091,-4.1099,-4.1084,-4.1066,-4.1068,-4.1086,-4.1101,-4.1101,-4.1097,-4.1088,-4.1078,-4.1022,-4.0948,-4.0894,-4.0809,-4.075,-4.0711,-4.0662,-4.0559,-4.0489,-4.0489,-4.0489,-4.0489,-4.0489,-4.0489,-4.0489,-4.0489,-4.0489,-4.0473,-4.0473,-4.0389,-4.0304,-4.0213,-4.0139,-4.0233,-4.0447,-4.0741,-4.1022,-4.1198,-4.168,-4.1997,-4.159,-4.1495,-4.1272,-4.0795,-4.0571,-4.0306,-4.0176,-4.0063,-3.9989,-3.9857,-3.975,-3.959,-3.9389,-3.9192,-3.8979,-3.8844,-3.8688,-3.8468,-3.8212,-3.7844,-3.7596,-3.7524,-3.7356,-3.7374,-3.7685,-4.0626,-4.1147,-4.0967,-4.1046,-4.1181,-4.0786,-4.0623,-4.0696,-4.0811,-4.0867,-4.0839,-4.0902,-4.0972,-4.0979,-4.0979,-4.0972,-4.0949,-4.0949,-4.0957,-4.0949,-4.0949,-4.0957,-4.0949,-4.0929,-4.096,-4.094,-4.0941,-4.0957,-4.1013,-4.1035,-4.1062,-4.1096,-4.1056,-4.1019,-4.1013,-4.0967,-4.0902,-4.0801,-4.0801,-4.0811,-4.0811,-4.0791,-4.08,-4.0751,-4.0731,-4.0762,-4.0781,-4.0827,-4.0901,-4.1003,-4.107,-4.1046,-4.1035,-4.1065,-4.1091,-4.1111,-4.1108,-4.1081,-4.1051,-4.1008,-4.0948,-4.0866,-4.0791,-4.0706,-4.0612,-4.0593,-4.0582,-4.0504,-4.0489,-4.0489,-4.0508,-4.0508,-4.0495,-4.0495,-4.0479,-4.0463,-4.0394,-4.0321,-4.0304,-4.0251,-4.0101,-3.9882,-3.984,-3.9775,-4.0028,-4.0396,-4.0603,-4.0536,-4.1052,-4.1536,-4.1127,-4.0819,-4.0701,-4.0397,-4.0042,-3.9787,-3.9583,-3.9464,-3.9527,-3.9338,-3.9305,-3.92,-3.9045,-3.895,-3.8833,-3.8725,-3.8535,-3.836,-3.7946,-3.7542,-3.7339,-3.7208,-3.7009,-3.6806,-3.7069,-3.9932,-4.0893,-4.0501,-4.045,-4.0687,-4.0718,-4.0749,-4.0829,-4.094,-4.1013,-4.1,-4.1,-4.1025,-4.1019,-4.0994,-4.0994,-4.0987,-4.0974,-4.0981,-4.0987,-4.0974,-4.0974,-4.098,-4.0992,-4.0994,-4.098,-4.0982,-4.0975,-4.0992,-4.1023,-4.1062,-4.1086,-4.1,-4.089,-4.0857,-4.078,-4.0703,-4.068,-4.0655,-4.059,-4.0571,-4.0591,-4.0629,-4.0633,-4.0653,-4.0665,-4.0665,-4.0699,-4.0752,-4.0855,-4.0961,-4.0942,-4.0922,-4.0941,-4.0994,-4.0998,-4.0989,-4.0978,-4.0972,-4.0942,-4.0829,-4.0726,-4.0687,-4.0615,-4.0508,-4.0479,-4.0473,-4.0469,-4.0473,-4.0489,-4.0492,-4.0495,-4.0499,-4.0502,-4.0449,-4.0415,-4.0325,-4.0214,-4.0177,-4.012,-3.988,-3.9641,-3.9505,-3.9457,-3.9619,-4.0002,-4.0195,-4.0074,-4.0161,-4.0589,-4.0619,-4.0444,-4.0374,-4.001,-3.9855,-3.9653,-3.9583,-3.977,-3.9844,-3.9283,-3.887,-3.891,-3.8921,-3.8862,-3.8773,-3.8634,-3.8491,-3.8314,-3.7826,-3.7321,-3.7132,-3.6978,-3.6678,-3.6509,-3.6591,-4.027,-4.0766,-4.064,-4.0667,-4.0771,-4.0781,-4.0857,-4.0967,-4.0987,-4.1037,-4.107,-4.1094,-4.109,-4.1086,-4.1019,-4.1013,-4.1006,-4.1006,-4.0994,-4.0994,-4.0998,-4.0983,-4.0996,-4.1016,-4.1001,-4.0992,-4.0996,-4.0991,-4.0987,-4.1027,-4.1061,-4.1065,-4.0932,-4.0869,-4.0878,-4.0754,-4.0629,-4.0574,-4.0515,-4.0473,-4.0408,-4.0422,-4.0431,-4.0419,-4.0375,-4.0454,-4.0511,-4.0535,-4.0636,-4.071,-4.0772,-4.0781,-4.08,-4.0799,-4.0848,-4.0883,-4.0863,-4.0882,-4.0867,-4.0818,-4.0688,-4.0648,-4.0604,-4.0511,-4.0441,-4.0413,-4.0408,-4.037,-4.0386,-4.0473,-4.0492,-4.0479,-4.0466,-4.0468,-4.0452,-4.0379,-4.0307,-4.0233,-4.0177,-3.9941,-3.9645,-3.9408,-3.9178,-3.9127,-3.9053,-3.9441,-3.9884,-3.9871,-4.0165,-4.0189,-4.023,-4.016,-4.0154,-4.0467,-4.0627,-4.0152,-4.0007,-4.0197,-4.013,-3.9565,-3.9111,-3.8756,-3.8719,-3.8652,-3.8621,-3.8528,-3.8382,-3.8117,-3.7721,-3.7208,-3.7055,-3.6821,-3.6474,-3.6326,-3.6409]}]]